Wetterdaten: Sonntag, 21.10.2018
Datum Zeit Temp. A. Pool Temp. Temp. 5cm Feuchte A. Luftdruck Regen Wind Richtung Richtung Sonnenschein ET UV Solar Taupunkt Windchill Windben Empfang
21.10.2018 00:00 10,0 C 12,2 C 9,4 C 85 % 1026,7 hPa 0,0 l/m 1,2 km/h (1 Bft) W 261 0 min 0,000 mm 0,0 UV-I 0 W/m 7,6 C 10,0 C 3,2 km/h (1 Bft) 100,00 %
21.10.2018 00:02 9,9 C 12,2 C 9,4 C 85 % 1026,7 hPa 0,0 l/m 0,5 km/h (0 Bft) W 261 0 min 0,000 mm 0,0 UV-I 0 W/m 7,5 C 9,9 C 1,6 km/h (1 Bft) 100,00 %
21.10.2018 00:04 9,8 C 12,2 C 9,4 C 86 % 1026,7 hPa 0,0 l/m 0,0 km/h (0 Bft) W 261 0 min 0,000 mm 0,0 UV-I 0 W/m 7,6 C 9,8 C 1,6 km/h (1 Bft) 100,00 %
21.10.2018 00:06 9,8 C 12,2 C 9,4 C 86 % 1026,7 hPa 0,0 l/m 0,1 km/h (0 Bft) W 261 0 min 0,000 mm 0,0 UV-I 0 W/m 7,6 C 9,8 C 1,6 km/h (1 Bft) 97,37 %
21.10.2018 00:08 9,8 C 12,2 C 9,4 C 86 % 1026,6 hPa 0,0 l/m 0,0 km/h (0 Bft) W 261 0 min 0,000 mm 0,0 UV-I 0 W/m 7,6 C 9,8 C 0,0 km/h (0 Bft) 100,00 %
21.10.2018 00:10 9,8 C 12,2 C 8,9 C 86 % 1026,7 hPa 0,0 l/m 0,7 km/h (0 Bft) W 261 0 min 0,000 mm 0,0 UV-I 0 W/m 7,6 C 9,8 C 1,6 km/h (1 Bft) 100,00 %
21.10.2018 00:12 9,9 C 12,2 C 8,9 C 85 % 1026,6 hPa 0,0 l/m 1,0 km/h (0 Bft) W 261 0 min 0,000 mm 0,0 UV-I 0 W/m 7,5 C 9,9 C 1,6 km/h (1 Bft) 100,00 %
21.10.2018 00:14 9,9 C 12,2 C 8,9 C 85 % 1026,7 hPa 0,0 l/m 1,2 km/h (1 Bft) W 261 0 min 0,000 mm 0,0 UV-I 0 W/m 7,5 C 9,9 C 1,6 km/h (1 Bft) 100,00 %
21.10.2018 00:16 9,9 C 12,2 C 9,4 C 85 % 1026,7 hPa 0,0 l/m 0,9 km/h (0 Bft) W 261 0 min 0,000 mm 0,0 UV-I 0 W/m 7,5 C 9,9 C 3,2 km/h (1 Bft) 100,00 %
21.10.2018 00:18 9,9 C 12,2 C 9,4 C 85 % 1026,7 hPa 0,0 l/m 1,3 km/h (1 Bft) W 261 0 min 0,000 mm 0,0 UV-I 0 W/m 7,5 C 9,9 C 3,2 km/h (1 Bft) 100,00 %
21.10.2018 00:20 9,9 C 12,2 C 9,4 C 85 % 1026,7 hPa 0,0 l/m 1,1 km/h (1 Bft) W 261 0 min 0,000 mm 0,0 UV-I 0 W/m 7,5 C 9,9 C 1,6 km/h (1 Bft) 100,00 %
21.10.2018 00:22 9,8 C 12,2 C 9,4 C 86 % 1026,7 hPa 0,0 l/m 0,6 km/h (0 Bft) W 261 0 min 0,000 mm 0,0 UV-I 0 W/m 7,6 C 9,8 C 1,6 km/h (1 Bft) 100,00 %
21.10.2018 00:24 9,9 C 12,2 C 9,4 C 85 % 1026,6 hPa 0,0 l/m 0,2 km/h (0 Bft) W 261 0 min 0,000 mm 0,0 UV-I 0 W/m 7,5 C 9,9 C 1,6 km/h (1 Bft) 100,00 %
21.10.2018 00:26 9,9 C 12,2 C 9,4 C 85 % 1026,7 hPa 0,0 l/m 0,3 km/h (0 Bft) W 261 0 min 0,000 mm 0,0 UV-I 0 W/m 7,5 C 9,9 C 1,6 km/h (1 Bft) 98,11 %
21.10.2018 00:28 9,8 C 12,2 C 9,4 C 86 % 1026,7 hPa 0,0 l/m 0,2 km/h (0 Bft) W 261 0 min 0,000 mm 0,0 UV-I 0 W/m 7,6 C 9,8 C 1,6 km/h (1 Bft) 100,00 %
21.10.2018 00:30 9,7 C 12,2 C 9,4 C 86 % 1026,7 hPa 0,0 l/m 0,5 km/h (0 Bft) W 261 0 min 0,000 mm 0,0 UV-I 0 W/m 7,5 C 9,7 C 1,6 km/h (1 Bft) 98,00 %
21.10.2018 00:32 9,7 C 12,2 C 9,4 C 87 % 1026,7 hPa 0,0 l/m 2,1 km/h (1 Bft) W 271 0 min 0,000 mm 0,0 UV-I 0 W/m 7,6 C 9,7 C 3,2 km/h (1 Bft) 100,00 %
21.10.2018 00:34 9,7 C 12,2 C 9,4 C 87 % 1026,7 hPa 0,0 l/m 3,9 km/h (1 Bft) N 5 0 min 0,000 mm 0,0 UV-I 0 W/m 7,6 C 9,7 C 4,8 km/h (1 Bft) 100,00 %
21.10.2018 00:36 9,7 C 12,2 C 9,4 C 87 % 1026,6 hPa 0,0 l/m 5,0 km/h (1 Bft) N-NO 17 0 min 0,000 mm 0,0 UV-I 0 W/m 7,6 C 9,7 C 6,4 km/h (2 Bft) 100,00 %
21.10.2018 00:38 9,6 C 12,2 C 9,4 C 87 % 1026,6 hPa 0,0 l/m 4,7 km/h (1 Bft) N-NO 26 0 min 0,000 mm 0,0 UV-I 0 W/m 7,5 C 9,6 C 6,4 km/h (2 Bft) 100,00 %
21.10.2018 00:40 9,6 C 12,2 C 9,4 C 87 % 1026,5 hPa 0,0 l/m 5,7 km/h (1 Bft) N-NO 13 0 min 0,000 mm 0,0 UV-I 0 W/m 7,5 C 9,6 C 6,4 km/h (2 Bft) 98,21 %
21.10.2018 00:42 9,6 C 12,2 C 9,4 C 87 % 1026,6 hPa 0,0 l/m 5,4 km/h (1 Bft) N 5 0 min 0,000 mm 0,0 UV-I 0 W/m 7,5 C 9,6 C 6,4 km/h (2 Bft) 100,00 %
21.10.2018 00:44 9,7 C 12,2 C 9,4 C 87 % 1026,7 hPa 0,0 l/m 5,2 km/h (1 Bft) N 10 0 min 0,000 mm 0,0 UV-I 0 W/m 7,6 C 9,7 C 6,4 km/h (2 Bft) 100,00 %
21.10.2018 00:46 9,8 C 12,2 C 9,4 C 86 % 1026,7 hPa 0,0 l/m 3,5 km/h (1 Bft) N 10 0 min 0,000 mm 0,0 UV-I 0 W/m 7,6 C 9,8 C 4,8 km/h (1 Bft) 97,56 %
21.10.2018 00:48 9,9 C 12,2 C 9,4 C 85 % 1026,5 hPa 0,0 l/m 3,7 km/h (1 Bft) N-NO 15 0 min 0,000 mm 0,0 UV-I 0 W/m 7,5 C 9,9 C 6,4 km/h (2 Bft) 98,00 %
21.10.2018 00:50 9,9 C 12,2 C 9,4 C 85 % 1026,5 hPa 0,0 l/m 3,0 km/h (1 Bft) N-NO 13 0 min 0,000 mm 0,0 UV-I 0 W/m 7,5 C 9,9 C 4,8 km/h (1 Bft) 98,00 %
21.10.2018 00:52 10,1 C 12,2 C 9,4 C 84 % 1026,5 hPa 0,0 l/m 3,7 km/h (1 Bft) N 355 0 min 0,000 mm 0,0 UV-I 0 W/m 7,5 C 10,1 C 4,8 km/h (1 Bft) 97,37 %
21.10.2018 00:54 10,1 C 12,2 C 9,4 C 84 % 1026,7 hPa 0,0 l/m 2,5 km/h (1 Bft) N 355 0 min 0,000 mm 0,0 UV-I 0 W/m 7,5 C 10,1 C 3,2 km/h (1 Bft) 98,11 %
21.10.2018 00:56 10,1 C 12,2 C 9,4 C 84 % 1026,7 hPa 0,0 l/m 2,4 km/h (1 Bft) N 351 0 min 0,000 mm 0,0 UV-I 0 W/m 7,5 C 10,1 C 3,2 km/h (1 Bft) 97,56 %
21.10.2018 00:58 10,0 C 12,2 C 9,4 C 85 % 1026,7 hPa 0,0 l/m 2,0 km/h (1 Bft) N-NO 27 0 min 0,000 mm 0,0 UV-I 0 W/m 7,6 C 10,0 C 4,8 km/h (1 Bft) 92,00 %
21.10.2018 01:00 9,9 C 12,2 C 9,4 C 85 % 1026,7 hPa 0,0 l/m 2,8 km/h (1 Bft) N-NO 27 0 min 0,000 mm 0,0 UV-I 0 W/m 7,5 C 9,9 C 4,8 km/h (1 Bft) 100,00 %
21.10.2018 01:02 9,9 C 12,2 C 9,4 C 86 % 1026,7 hPa 0,0 l/m 3,3 km/h (1 Bft) N 5 0 min 0,000 mm 0,0 UV-I 0 W/m 7,7 C 9,9 C 4,8 km/h (1 Bft) 96,23 %
21.10.2018 01:04 9,8 C 12,2 C 9,4 C 87 % 1026,7 hPa 0,0 l/m 3,4 km/h (1 Bft) NO 35 0 min 0,000 mm 0,0 UV-I 0 W/m 7,7 C 9,8 C 6,4 km/h (2 Bft) 95,12 %
21.10.2018 01:06 9,7 C 12,2 C 9,4 C 87 % 1026,7 hPa 0,0 l/m 5,3 km/h (1 Bft) NO 38 0 min 0,000 mm 0,0 UV-I 0 W/m 7,6 C 9,7 C 8,0 km/h (2 Bft) 96,23 %
21.10.2018 01:08 9,8 C 12,2 C 9,4 C 88 % 1026,7 hPa 0,0 l/m 6,4 km/h (2 Bft) NO 39 0 min 0,000 mm 0,0 UV-I 0 W/m 7,9 C 9,8 C 8,0 km/h (2 Bft) 94,87 %
21.10.2018 01:10 9,8 C 12,2 C 9,4 C 88 % 1026,5 hPa 0,0 l/m 6,4 km/h (2 Bft) NO 46 0 min 0,000 mm 0,0 UV-I 0 W/m 7,9 C 9,8 C 8,0 km/h (2 Bft) 94,00 %
21.10.2018 01:12 9,8 C 12,2 C 9,4 C 87 % 1026,5 hPa 0,0 l/m 7,1 km/h (2 Bft) O-NO 60 0 min 0,000 mm 0,0 UV-I 0 W/m 7,7 C 9,3 C 9,7 km/h (2 Bft) 94,34 %
21.10.2018 01:14 9,8 C 12,2 C 9,4 C 87 % 1026,5 hPa 0,0 l/m 7,5 km/h (2 Bft) NO 47 0 min 0,000 mm 0,0 UV-I 0 W/m 7,7 C 9,0 C 9,7 km/h (2 Bft) 97,37 %
21.10.2018 01:16 9,7 C 12,2 C 9,4 C 88 % 1026,4 hPa 0,0 l/m 7,8 km/h (2 Bft) O-NO 69 0 min 0,000 mm 0,0 UV-I 0 W/m 7,8 C 8,7 C 9,7 km/h (2 Bft) 94,00 %
21.10.2018 01:18 9,7 C 12,2 C 9,4 C 88 % 1026,3 hPa 0,0 l/m 7,7 km/h (2 Bft) O-NO 57 0 min 0,000 mm 0,0 UV-I 0 W/m 7,8 C 8,7 C 9,7 km/h (2 Bft) 94,00 %
21.10.2018 01:20 9,6 C 12,2 C 9,4 C 88 % 1026,3 hPa 0,0 l/m 7,4 km/h (2 Bft) N-NO 30 0 min 0,000 mm 0,0 UV-I 0 W/m 7,7 C 8,9 C 9,7 km/h (2 Bft) 95,74 %
21.10.2018 01:22 9,6 C 12,2 C 9,4 C 88 % 1026,3 hPa 0,0 l/m 5,3 km/h (1 Bft) NO 42 0 min 0,000 mm 0,0 UV-I 0 W/m 7,7 C 9,6 C 6,4 km/h (2 Bft) 93,62 %
21.10.2018 01:24 9,5 C 12,2 C 8,9 C 88 % 1026,3 hPa 0,0 l/m 4,3 km/h (1 Bft) N-NO 32 0 min 0,000 mm 0,0 UV-I 0 W/m 7,6 C 9,5 C 6,4 km/h (2 Bft) 96,00 %
21.10.2018 01:26 9,4 C 12,2 C 8,9 C 89 % 1026,3 hPa 0,0 l/m 3,5 km/h (1 Bft) N-NO 32 0 min 0,000 mm 0,0 UV-I 0 W/m 7,7 C 9,4 C 4,8 km/h (1 Bft) 95,74 %
21.10.2018 01:28 9,5 C 12,2 C 8,9 C 89 % 1026,3 hPa 0,0 l/m 2,8 km/h (1 Bft) N-NO 32 0 min 0,000 mm 0,0 UV-I 0 W/m 7,8 C 9,5 C 4,8 km/h (1 Bft) 93,62 %
21.10.2018 01:30 9,4 C 12,2 C 8,9 C 89 % 1026,3 hPa 0,0 l/m 2,9 km/h (1 Bft) N-NO 32 0 min 0,000 mm 0,0 UV-I 0 W/m 7,7 C 9,4 C 4,8 km/h (1 Bft) 97,37 %
21.10.2018 01:32 9,4 C 12,2 C 8,9 C 89 % 1026,3 hPa 0,0 l/m 3,5 km/h (1 Bft) NO 36 0 min 0,000 mm 0,0 UV-I 0 W/m 7,7 C 9,4 C 4,8 km/h (1 Bft) 94,34 %
21.10.2018 01:34 9,4 C 12,2 C 8,9 C 89 % 1026,3 hPa 0,0 l/m 3,4 km/h (1 Bft) NO 36 0 min 0,000 mm 0,0 UV-I 0 W/m 7,7 C 9,4 C 4,8 km/h (1 Bft) 93,62 %
21.10.2018 01:36 9,4 C 12,2 C 8,9 C 89 % 1026,2 hPa 0,0 l/m 5,1 km/h (1 Bft) NO 46 0 min 0,000 mm 0,0 UV-I 0 W/m 7,7 C 9,4 C 8,0 km/h (2 Bft) 95,12 %
21.10.2018 01:38 9,4 C 12,2 C 8,9 C 89 % 1026,3 hPa 0,0 l/m 4,9 km/h (1 Bft) NO 46 0 min 0,000 mm 0,0 UV-I 0 W/m 7,7 C 9,4 C 6,4 km/h (2 Bft) 94,34 %
21.10.2018 01:40 9,4 C 12,2 C 8,9 C 89 % 1026,3 hPa 0,0 l/m 3,7 km/h (1 Bft) NO 46 0 min 0,000 mm 0,0 UV-I 0 W/m 7,7 C 9,4 C 4,8 km/h (1 Bft) 94,00 %
21.10.2018 01:42 9,4 C 12,2 C 8,9 C 89 % 1026,3 hPa 0,0 l/m 3,0 km/h (1 Bft) NO 46 0 min 0,000 mm 0,0 UV-I 0 W/m 7,7 C 9,4 C 4,8 km/h (1 Bft) 95,74 %
21.10.2018 01:44 9,4 C 12,2 C 8,9 C 89 % 1026,3 hPa 0,0 l/m 3,5 km/h (1 Bft) NO 52 0 min 0,000 mm 0,0 UV-I 0 W/m 7,7 C 9,4 C 4,8 km/h (1 Bft) 94,87 %
21.10.2018 01:46 9,4 C 12,2 C 8,9 C 89 % 1026,3 hPa 0,0 l/m 3,9 km/h (1 Bft) O-NO 62 0 min 0,000 mm 0,0 UV-I 0 W/m 7,7 C 9,4 C 6,4 km/h (2 Bft) 98,00 %
21.10.2018 01:48 9,4 C 12,2 C 8,9 C 89 % 1026,3 hPa 0,0 l/m 4,3 km/h (1 Bft) O-NO 62 0 min 0,000 mm 0,0 UV-I 0 W/m 7,7 C 9,4 C 4,8 km/h (1 Bft) 97,87 %
21.10.2018 01:50 9,4 C 12,2 C 8,9 C 89 % 1026,3 hPa 0,0 l/m 4,4 km/h (1 Bft) O-NO 62 0 min 0,000 mm 0,0 UV-I 0 W/m 7,7 C 9,4 C 6,4 km/h (2 Bft) 96,00 %
21.10.2018 01:52 9,4 C 12,2 C 8,9 C 89 % 1026,2 hPa 0,0 l/m 4,8 km/h (1 Bft) NO 40 0 min 0,000 mm 0,0 UV-I 0 W/m 7,7 C 9,4 C 6,4 km/h (2 Bft) 97,14 %
21.10.2018 01:54 9,4 C 12,2 C 8,9 C 89 % 1026,2 hPa 0,0 l/m 4,0 km/h (1 Bft) NO 42 0 min 0,000 mm 0,0 UV-I 0 W/m 7,7 C 9,4 C 4,8 km/h (1 Bft) 98,11 %
21.10.2018 01:56 9,4 C 12,2 C 8,9 C 89 % 1026,2 hPa 0,0 l/m 4,4 km/h (1 Bft) NO 41 0 min 0,000 mm 0,0 UV-I 0 W/m 7,7 C 9,4 C 6,4 km/h (2 Bft) 95,74 %
21.10.2018 01:58 9,4 C 12,2 C 8,9 C 89 % 1026,3 hPa 0,0 l/m 4,4 km/h (1 Bft) NO 38 0 min 0,000 mm 0,0 UV-I 0 W/m 7,7 C 9,4 C 4,8 km/h (1 Bft) 97,87 %
21.10.2018 02:00 9,4 C 12,2 C 8,9 C 88 % 1026,3 hPa 0,0 l/m 3,8 km/h (1 Bft) O-NO 68 0 min 0,000 mm 0,0 UV-I 0 W/m 7,5 C 9,4 C 4,8 km/h (1 Bft) 96,00 %
21.10.2018 02:02 9,4 C 12,2 C 8,9 C 89 % 1026,3 hPa 0,0 l/m 4,0 km/h (1 Bft) O-NO 57 0 min 0,000 mm 0,0 UV-I 0 W/m 7,7 C 9,4 C 6,4 km/h (2 Bft) 97,37 %
21.10.2018 02:04 9,4 C 12,2 C 8,9 C 89 % 1026,3 hPa 0,0 l/m 3,2 km/h (1 Bft) O-NO 57 0 min 0,000 mm 0,0 UV-I 0 W/m 7,7 C 9,4 C 4,8 km/h (1 Bft) 98,11 %
21.10.2018 02:06 9,4 C 12,2 C 8,9 C 89 % 1026,3 hPa 0,0 l/m 2,5 km/h (1 Bft) O-NO 57 0 min 0,000 mm 0,0 UV-I 0 W/m 7,7 C 9,4 C 3,2 km/h (1 Bft) 95,74 %
21.10.2018 02:08 9,4 C 12,2 C 8,9 C 88 % 1026,3 hPa 0,0 l/m 2,3 km/h (1 Bft) O-NO 57 0 min 0,000 mm 0,0 UV-I 0 W/m 7,5 C 9,4 C 4,8 km/h (1 Bft) 100,00 %
21.10.2018 02:10 9,5 C 12,2 C 8,9 C 88 % 1026,3 hPa 0,0 l/m 3,2 km/h (1 Bft) O-NO 57 0 min 0,000 mm 0,0 UV-I 0 W/m 7,6 C 9,5 C 4,8 km/h (1 Bft) 97,87 %
21.10.2018 02:12 9,5 C 11,7 C 8,9 C 88 % 1026,3 hPa 0,0 l/m 2,7 km/h (1 Bft) O-NO 57 0 min 0,000 mm 0,0 UV-I 0 W/m 7,6 C 9,5 C 3,2 km/h (1 Bft) 97,37 %
21.10.2018 02:14 9,5 C 12,2 C 8,9 C 88 % 1026,3 hPa 0,0 l/m 1,7 km/h (1 Bft) O-NO 57 0 min 0,000 mm 0,0 UV-I 0 W/m 7,6 C 9,5 C 3,2 km/h (1 Bft) 98,11 %
21.10.2018 02:16 9,6 C 12,2 C 8,9 C 88 % 1026,3 hPa 0,0 l/m 1,6 km/h (1 Bft) O-NO 57 0 min 0,000 mm 0,0 UV-I 0 W/m 7,7 C 9,6 C 3,2 km/h (1 Bft) 97,22 %
21.10.2018 02:18 9,5 C 11,7 C 8,9 C 88 % 1026,4 hPa 0,0 l/m 1,0 km/h (0 Bft) O-NO 57 0 min 0,000 mm 0,0 UV-I 0 W/m 7,6 C 9,5 C 3,2 km/h (1 Bft) 95,45 %
21.10.2018 02:20 9,5 C 12,2 C 8,9 C 88 % 1026,3 hPa 0,0 l/m 0,5 km/h (0 Bft) O-NO 57 0 min 0,000 mm 0,0 UV-I 0 W/m 7,6 C 9,5 C 1,6 km/h (1 Bft) 96,23 %
21.10.2018 02:22 9,5 C 12,2 C 8,9 C 88 % 1026,3 hPa 0,0 l/m 0,9 km/h (0 Bft) O-NO 57 0 min 0,000 mm 0,0 UV-I 0 W/m 7,6 C 9,5 C 1,6 km/h (1 Bft) 97,87 %
21.10.2018 02:24 9,5 C 12,2 C 8,9 C 88 % 1026,3 hPa 0,0 l/m 1,6 km/h (1 Bft) O-NO 74 0 min 0,000 mm 0,0 UV-I 0 W/m 7,6 C 9,5 C 3,2 km/h (1 Bft) 94,00 %
21.10.2018 02:26 9,5 C 11,7 C 8,9 C 88 % 1026,3 hPa 0,0 l/m 2,3 km/h (1 Bft) O-NO 78 0 min 0,000 mm 0,0 UV-I 0 W/m 7,6 C 9,5 C 3,2 km/h (1 Bft) 97,73 %
21.10.2018 02:28 9,5 C 12,2 C 8,9 C 88 % 1026,3 hPa 0,0 l/m 2,8 km/h (1 Bft) O 86 0 min 0,000 mm 0,0 UV-I 0 W/m 7,6 C 9,5 C 4,8 km/h (1 Bft) 98,11 %
21.10.2018 02:30 9,6 C 11,7 C 8,9 C 88 % 1026,3 hPa 0,0 l/m 2,8 km/h (1 Bft) O 86 0 min 0,000 mm 0,0 UV-I 0 W/m 7,7 C 9,6 C 3,2 km/h (1 Bft) 95,74 %
21.10.2018 02:32 9,6 C 11,7 C 9,4 C 88 % 1026,3 hPa 0,0 l/m 2,2 km/h (1 Bft) SO 128 0 min 0,000 mm 0,0 UV-I 0 W/m 7,7 C 9,6 C 4,8 km/h (1 Bft) 97,87 %
21.10.2018 02:34 9,6 C 11,7 C 9,4 C 88 % 1026,3 hPa 0,0 l/m 2,5 km/h (1 Bft) O-SO 115 0 min 0,000 mm 0,0 UV-I 0 W/m 7,7 C 9,6 C 6,4 km/h (2 Bft) 100,00 %
21.10.2018 02:36 9,6 C 11,7 C 9,4 C 87 % 1026,3 hPa 0,0 l/m 4,2 km/h (1 Bft) O 94 0 min 0,000 mm 0,0 UV-I 0 W/m 7,5 C 9,6 C 6,4 km/h (2 Bft) 94,74 %
21.10.2018 02:38 9,6 C 11,7 C 9,4 C 87 % 1026,3 hPa 0,0 l/m 4,5 km/h (1 Bft) O 90 0 min 0,000 mm 0,0 UV-I 0 W/m 7,5 C 9,6 C 9,7 km/h (2 Bft) 100,00 %
21.10.2018 02:40 9,7 C 11,7 C 9,4 C 87 % 1026,3 hPa 0,0 l/m 5,6 km/h (1 Bft) O-SO 110 0 min 0,000 mm 0,0 UV-I 0 W/m 7,6 C 9,7 C 9,7 km/h (2 Bft) 98,11 %
21.10.2018 02:42 9,7 C 11,7 C 9,4 C 87 % 1026,4 hPa 0,0 l/m 3,8 km/h (1 Bft) O-SO 110 0 min 0,000 mm 0,0 UV-I 0 W/m 7,6 C 9,7 C 4,8 km/h (1 Bft) 97,37 %
21.10.2018 02:44 9,7 C 11,7 C 9,4 C 87 % 1026,4 hPa 0,0 l/m 4,0 km/h (1 Bft) O 80 0 min 0,000 mm 0,0 UV-I 0 W/m 7,6 C 9,7 C 6,4 km/h (2 Bft) 100,00 %
21.10.2018 02:46 9,7 C 11,7 C 9,4 C 87 % 1026,4 hPa 0,0 l/m 4,6 km/h (1 Bft) O-SO 112 0 min 0,000 mm 0,0 UV-I 0 W/m 7,6 C 9,7 C 6,4 km/h (2 Bft) 100,00 %
21.10.2018 02:48 9,7 C 11,7 C 9,4 C 87 % 1026,3 hPa 0,0 l/m 3,0 km/h (1 Bft) O-SO 112 0 min 0,000 mm 0,0 UV-I 0 W/m 7,6 C 9,7 C 4,8 km/h (1 Bft) 98,00 %
21.10.2018 02:50 9,7 C 12,2 C 9,4 C 87 % 1026,4 hPa 0,0 l/m 2,9 km/h (1 Bft) O-SO 112 0 min 0,000 mm 0,0 UV-I 0 W/m 7,6 C 9,7 C 4,8 km/h (1 Bft) 98,00 %
21.10.2018 02:52 9,7 C 11,7 C 9,4 C 87 % 1026,3 hPa 0,0 l/m 1,3 km/h (1 Bft) O-SO 112 0 min 0,000 mm 0,0 UV-I 0 W/m 7,6 C 9,7 C 3,2 km/h (1 Bft) 100,00 %
21.10.2018 02:54 9,7 C 11,7 C 9,4 C 87 % 1026,3 hPa 0,0 l/m 3,1 km/h (1 Bft) O-SO 112 0 min 0,000 mm 0,0 UV-I 0 W/m 7,6 C 9,7 C 4,8 km/h (1 Bft) 100,00 %
21.10.2018 02:56 9,7 C 11,7 C 9,4 C 87 % 1026,3 hPa 0,0 l/m 2,6 km/h (1 Bft) O-SO 112 0 min 0,000 mm 0,0 UV-I 0 W/m 7,6 C 9,7 C 4,8 km/h (1 Bft) 100,00 %
21.10.2018 02:58 9,7 C 11,7 C 9,4 C 86 % 1026,4 hPa 0,0 l/m 1,2 km/h (1 Bft) O-SO 112 0 min 0,000 mm 0,0 UV-I 0 W/m 7,5 C 9,7 C 1,6 km/h (1 Bft) 100,00 %
21.10.2018 03:00 9,7 C 11,7 C 9,4 C 88 % 1026,4 hPa 0,0 l/m 0,2 km/h (0 Bft) O-SO 112 0 min 0,000 mm 0,0 UV-I 0 W/m 7,8 C 9,7 C 1,6 km/h (1 Bft) 100,00 %
21.10.2018 03:02 9,6 C 11,7 C 9,4 C 88 % 1026,4 hPa 0,0 l/m 1,1 km/h (1 Bft) O-SO 112 0 min 0,000 mm 0,0 UV-I 0 W/m 7,7 C 9,6 C 3,2 km/h (1 Bft) 98,39 %
21.10.2018 03:04 9,6 C 11,7 C 8,9 C 88 % 1026,3 hPa 0,0 l/m 2,5 km/h (1 Bft) O 89 0 min 0,000 mm 0,0 UV-I 0 W/m 7,7 C 9,6 C 4,8 km/h (1 Bft) 100,00 %
21.10.2018 03:06 9,5 C 11,7 C 9,4 C 87 % 1026,4 hPa 0,0 l/m 3,9 km/h (1 Bft) O 89 0 min 0,000 mm 0,0 UV-I 0 W/m 7,4 C 9,5 C 4,8 km/h (1 Bft) 100,00 %
21.10.2018 03:08 9,5 C 11,7 C 9,4 C 87 % 1026,3 hPa 0,0 l/m 4,4 km/h (1 Bft) O 96 0 min 0,000 mm 0,0 UV-I 0 W/m 7,4 C 9,5 C 6,4 km/h (2 Bft) 100,00 %
21.10.2018 03:10 9,5 C 11,7 C 9,4 C 87 % 1026,3 hPa 0,0 l/m 4,6 km/h (1 Bft) O-SO 103 0 min 0,000 mm 0,0 UV-I 0 W/m 7,4 C 9,5 C 6,4 km/h (2 Bft) 100,00 %
21.10.2018 03:12 9,5 C 11,7 C 9,4 C 86 % 1026,3 hPa 0,0 l/m 3,8 km/h (1 Bft) O-SO 102 0 min 0,000 mm 0,0 UV-I 0 W/m 7,3 C 9,5 C 6,4 km/h (2 Bft) 97,87 %
21.10.2018 03:14 9,6 C 11,7 C 8,9 C 86 % 1026,3 hPa 0,0 l/m 3,8 km/h (1 Bft) O-SO 102 0 min 0,000 mm 0,0 UV-I 0 W/m 7,4 C 9,6 C 6,4 km/h (2 Bft) 97,87 %
21.10.2018 03:16 9,6 C 11,7 C 8,9 C 86 % 1026,3 hPa 0,0 l/m 2,9 km/h (1 Bft) O-SO 102 0 min 0,000 mm 0,0 UV-I 0 W/m 7,4 C 9,6 C 4,8 km/h (1 Bft) 100,00 %
21.10.2018 03:18 9,6 C 11,7 C 8,9 C 85 % 1026,3 hPa 0,0 l/m 1,6 km/h (1 Bft) O-SO 102 0 min 0,000 mm 0,0 UV-I 0 W/m 7,2 C 9,6 C 3,2 km/h (1 Bft) 97,87 %
21.10.2018 03:20 9,6 C 11,7 C 8,9 C 85 % 1026,3 hPa 0,0 l/m 1,7 km/h (1 Bft) O-SO 102 0 min 0,000 mm 0,0 UV-I 0 W/m 7,2 C 9,6 C 3,2 km/h (1 Bft) 96,23 %
21.10.2018 03:22 9,5 C 11,7 C 8,9 C 85 % 1026,4 hPa 0,0 l/m 2,3 km/h (1 Bft) O-SO 102 0 min 0,000 mm 0,0 UV-I 0 W/m 7,1 C 9,5 C 4,8 km/h (1 Bft) 97,44 %
21.10.2018 03:24 9,5 C 11,7 C 8,9 C 85 % 1026,4 hPa 0,0 l/m 2,2 km/h (1 Bft) O-SO 102 0 min 0,000 mm 0,0 UV-I 0 W/m 7,1 C 9,5 C 3,2 km/h (1 Bft) 98,00 %
21.10.2018 03:26 9,5 C 11,7 C 8,9 C 85 % 1026,4 hPa 0,0 l/m 2,4 km/h (1 Bft) O-SO 102 0 min 0,000 mm 0,0 UV-I 0 W/m 7,1 C 9,5 C 3,2 km/h (1 Bft) 95,74 %
21.10.2018 03:28 9,5 C 11,7 C 8,9 C 85 % 1026,4 hPa 0,0 l/m 3,6 km/h (1 Bft) O-SO 102 0 min 0,000 mm 0,0 UV-I 0 W/m 7,1 C 9,5 C 4,8 km/h (1 Bft) 98,00 %
21.10.2018 03:30 9,5 C 11,7 C 8,9 C 85 % 1026,3 hPa 0,0 l/m 4,0 km/h (1 Bft) O-SO 114 0 min 0,000 mm 0,0 UV-I 0 W/m 7,1 C 9,5 C 9,7 km/h (2 Bft) 94,74 %
21.10.2018 03:32 9,5 C 11,7 C 8,9 C 85 % 1026,3 hPa 0,0 l/m 4,3 km/h (1 Bft) SO 138 0 min 0,000 mm 0,0 UV-I 0 W/m 7,1 C 9,5 C 6,4 km/h (2 Bft) 95,74 %
21.10.2018 03:34 9,4 C 11,7 C 9,4 C 84 % 1026,2 hPa 0,0 l/m 3,3 km/h (1 Bft) SO 138 0 min 0,000 mm 0,0 UV-I 0 W/m 6,8 C 9,4 C 6,4 km/h (2 Bft) 94,00 %
21.10.2018 03:36 9,4 C 11,7 C 9,4 C 84 % 1026,1 hPa 0,0 l/m 5,1 km/h (1 Bft) SO 138 0 min 0,000 mm 0,0 UV-I 0 W/m 6,8 C 9,4 C 8,0 km/h (2 Bft) 95,74 %
21.10.2018 03:38 9,4 C 11,7 C 8,9 C 84 % 1026,1 hPa 0,0 l/m 6,5 km/h (2 Bft) O-SO 109 0 min 0,000 mm 0,0 UV-I 0 W/m 6,8 C 9,4 C 9,7 km/h (2 Bft) 95,74 %
21.10.2018 03:40 9,4 C 11,7 C 8,9 C 83 % 1026,1 hPa 0,0 l/m 5,5 km/h (1 Bft) SO 145 0 min 0,000 mm 0,0 UV-I 0 W/m 6,7 C 9,4 C 9,7 km/h (2 Bft) 94,34 %
21.10.2018 03:42 9,3 C 11,7 C 8,9 C 83 % 1026,1 hPa 0,0 l/m 6,2 km/h (2 Bft) O-SO 123 0 min 0,000 mm 0,0 UV-I 0 W/m 6,6 C 9,3 C 11,3 km/h (2 Bft) 97,37 %
21.10.2018 03:44 9,3 C 11,7 C 8,9 C 83 % 1026,1 hPa 0,0 l/m 3,9 km/h (1 Bft) O-SO 123 0 min 0,000 mm 0,0 UV-I 0 W/m 6,6 C 9,3 C 6,4 km/h (2 Bft) 94,34 %
21.10.2018 03:46 9,3 C 11,7 C 8,9 C 83 % 1026,1 hPa 0,0 l/m 4,6 km/h (1 Bft) O 88 0 min 0,000 mm 0,0 UV-I 0 W/m 6,6 C 9,3 C 9,7 km/h (2 Bft) 95,74 %
21.10.2018 03:48 9,3 C 11,7 C 8,9 C 82 % 1026,1 hPa 0,0 l/m 4,6 km/h (1 Bft) O-SO 105 0 min 0,000 mm 0,0 UV-I 0 W/m 6,4 C 9,3 C 6,4 km/h (2 Bft) 96,30 %
21.10.2018 03:50 9,3 C 11,7 C 8,9 C 82 % 1026,0 hPa 0,0 l/m 5,7 km/h (1 Bft) O 88 0 min 0,000 mm 0,0 UV-I 0 W/m 6,4 C 9,3 C 9,7 km/h (2 Bft) 95,08 %
21.10.2018 03:52 9,3 C 11,7 C 8,9 C 81 % 1026,0 hPa 0,0 l/m 9,3 km/h (2 Bft) O-SO 113 0 min 0,000 mm 0,0 UV-I 0 W/m 6,2 C 7,3 C 11,3 km/h (2 Bft) 97,92 %
21.10.2018 03:54 9,3 C 11,7 C 8,9 C 81 % 1026,0 hPa 0,0 l/m 7,4 km/h (2 Bft) O-NO 78 0 min 0,000 mm 0,0 UV-I 0 W/m 6,2 C 8,6 C 11,3 km/h (2 Bft) 98,00 %
21.10.2018 03:56 9,3 C 11,7 C 8,9 C 80 % 1026,0 hPa 0,0 l/m 5,3 km/h (1 Bft) O-SO 104 0 min 0,000 mm 0,0 UV-I 0 W/m 6,0 C 9,3 C 9,7 km/h (2 Bft) 100,00 %
21.10.2018 03:58 9,3 C 11,7 C 8,9 C 80 % 1026,0 hPa 0,0 l/m 6,1 km/h (2 Bft) O 101 0 min 0,000 mm 0,0 UV-I 0 W/m 6,0 C 9,3 C 9,7 km/h (2 Bft) 100,00 %
21.10.2018 04:00 9,2 C 11,7 C 8,9 C 80 % 1026,1 hPa 0,0 l/m 5,2 km/h (1 Bft) NO 53 0 min 0,000 mm 0,0 UV-I 0 W/m 5,9 C 9,2 C 9,7 km/h (2 Bft) 100,00 %
21.10.2018 04:02 9,2 C 11,7 C 8,9 C 80 % 1026,2 hPa 0,0 l/m 3,9 km/h (1 Bft) O-SO 117 0 min 0,000 mm 0,0 UV-I 0 W/m 5,9 C 9,2 C 6,4 km/h (2 Bft) 96,97 %
21.10.2018 04:04 9,2 C 11,7 C 8,9 C 80 % 1026,2 hPa 0,0 l/m 3,1 km/h (1 Bft) O-SO 117 0 min 0,000 mm 0,0 UV-I 0 W/m 5,9 C 9,2 C 4,8 km/h (1 Bft) 98,00 %
21.10.2018 04:06 9,2 C 11,7 C 8,9 C 80 % 1026,2 hPa 0,0 l/m 2,2 km/h (1 Bft) O-SO 117 0 min 0,000 mm 0,0 UV-I 0 W/m 5,9 C 9,2 C 3,2 km/h (1 Bft) 97,87 %
21.10.2018 04:08 9,2 C 11,7 C 8,9 C 81 % 1026,2 hPa 0,0 l/m 1,0 km/h (0 Bft) O-SO 117 0 min 0,000 mm 0,0 UV-I 0 W/m 6,1 C 9,2 C 3,2 km/h (1 Bft) 100,00 %
21.10.2018 04:10 9,1 C 11,7 C 8,3 C 82 % 1026,2 hPa 0,0 l/m 1,4 km/h (1 Bft) O-SO 117 0 min 0,000 mm 0,0 UV-I 0 W/m 6,2 C 9,1 C 3,2 km/h (1 Bft) 100,00 %
21.10.2018 04:12 9,1 C 11,7 C 8,3 C 81 % 1026,2 hPa 0,0 l/m 1,9 km/h (1 Bft) O-SO 117 0 min 0,000 mm 0,0 UV-I 0 W/m 6,0 C 9,1 C 3,2 km/h (1 Bft) 98,00 %
21.10.2018 04:14 9,1 C 11,7 C 8,3 C 82 % 1026,3 hPa 0,0 l/m 1,8 km/h (1 Bft) O-SO 117 0 min 0,000 mm 0,0 UV-I 0 W/m 6,2 C 9,1 C 4,8 km/h (1 Bft) 100,00 %
21.10.2018 04:16 9,1 C 11,7 C 8,3 C 81 % 1026,3 hPa 0,0 l/m 0,7 km/h (0 Bft) O-SO 121 0 min 0,000 mm 0,0 UV-I 0 W/m 6,0 C 9,1 C 3,2 km/h (1 Bft) 100,00 %
21.10.2018 04:18 9,1 C 11,7 C 8,3 C 81 % 1026,4 hPa 0,0 l/m 1,6 km/h (1 Bft) O-SO 121 0 min 0,000 mm 0,0 UV-I 0 W/m 6,0 C 9,1 C 3,2 km/h (1 Bft) 100,00 %
21.10.2018 04:20 9,1 C 11,7 C 8,3 C 81 % 1026,4 hPa 0,0 l/m 0,6 km/h (0 Bft) O-SO 121 0 min 0,000 mm 0,0 UV-I 0 W/m 6,0 C 9,1 C 1,6 km/h (1 Bft) 100,00 %
21.10.2018 04:22 9,1 C 11,7 C 8,3 C 80 % 1026,2 hPa 0,0 l/m 3,3 km/h (1 Bft) O-SO 121 0 min 0,000 mm 0,0 UV-I 0 W/m 5,8 C 9,1 C 4,8 km/h (1 Bft) 98,11 %
21.10.2018 04:24 9,1 C 11,7 C 8,3 C 81 % 1026,1 hPa 0,0 l/m 5,1 km/h (1 Bft) O-SO 120 0 min 0,000 mm 0,0 UV-I 0 W/m 6,0 C 9,1 C 6,4 km/h (2 Bft) 100,00 %
21.10.2018 04:26 9,1 C 11,7 C 8,3 C 81 % 1026,2 hPa 0,0 l/m 2,9 km/h (1 Bft) O-SO 120 0 min 0,000 mm 0,0 UV-I 0 W/m 6,0 C 9,1 C 4,8 km/h (1 Bft) 100,00 %
21.10.2018 04:28 9,0 C 11,7 C 8,3 C 81 % 1026,1 hPa 0,0 l/m 1,2 km/h (1 Bft) O-SO 120 0 min 0,000 mm 0,0 UV-I 0 W/m 5,9 C 9,0 C 3,2 km/h (1 Bft) 100,00 %
21.10.2018 04:30 9,0 C 11,7 C 8,3 C 80 % 1026,2 hPa 0,0 l/m 1,4 km/h (1 Bft) O-SO 120 0 min 0,000 mm 0,0 UV-I 0 W/m 5,7 C 9,0 C 3,2 km/h (1 Bft) 100,00 %
21.10.2018 04:32 9,0 C 11,7 C 8,3 C 81 % 1026,3 hPa 0,0 l/m 1,8 km/h (1 Bft) O-SO 120 0 min 0,000 mm 0,0 UV-I 0 W/m 5,9 C 9,0 C 4,8 km/h (1 Bft) 100,00 %
21.10.2018 04:34 8,9 C 11,7 C 8,3 C 81 % 1026,3 hPa 0,0 l/m 1,5 km/h (1 Bft) O-SO 120 0 min 0,000 mm 0,0 UV-I 0 W/m 5,8 C 8,9 C 3,2 km/h (1 Bft) 97,14 %
21.10.2018 04:36 9,0 C 11,7 C 8,3 C 81 % 1026,4 hPa 0,0 l/m 1,2 km/h (1 Bft) O-SO 120 0 min 0,000 mm 0,0 UV-I 0 W/m 5,9 C 9,0 C 3,2 km/h (1 Bft) 100,00 %
21.10.2018 04:38 9,0 C 11,7 C 8,3 C 82 % 1026,5 hPa 0,0 l/m 1,9 km/h (1 Bft) O-SO 120 0 min 0,000 mm 0,0 UV-I 0 W/m 6,1 C 9,0 C 3,2 km/h (1 Bft) 100,00 %
21.10.2018 04:40 8,9 C 11,7 C 8,3 C 82 % 1026,5 hPa 0,0 l/m 0,1 km/h (0 Bft) O-SO 120 0 min 0,000 mm 0,0 UV-I 0 W/m 6,0 C 8,9 C 1,6 km/h (1 Bft) 100,00 %
21.10.2018 04:42 8,9 C 11,7 C 8,3 C 82 % 1026,4 hPa 0,0 l/m 1,0 km/h (0 Bft) O-SO 120 0 min 0,000 mm 0,0 UV-I 0 W/m 6,0 C 8,9 C 1,6 km/h (1 Bft) 100,00 %
21.10.2018 04:44 8,9 C 11,7 C 8,3 C 82 % 1026,5 hPa 0,0 l/m 0,3 km/h (0 Bft) O-SO 120 0 min 0,000 mm 0,0 UV-I 0 W/m 6,0 C 8,9 C 1,6 km/h (1 Bft) 98,00 %
21.10.2018 04:46 8,9 C 11,7 C 8,3 C 82 % 1026,4 hPa 0,0 l/m 1,0 km/h (0 Bft) O-SO 120 0 min 0,000 mm 0,0 UV-I 0 W/m 6,0 C 8,9 C 1,6 km/h (1 Bft) 100,00 %
21.10.2018 04:48 8,9 C 11,7 C 8,3 C 82 % 1026,3 hPa 0,0 l/m 0,2 km/h (0 Bft) O-SO 120 0 min 0,000 mm 0,0 UV-I 0 W/m 6,0 C 8,9 C 1,6 km/h (1 Bft) 100,00 %
21.10.2018 04:50 8,8 C 11,7 C 8,3 C 83 % 1026,3 hPa 0,0 l/m 4,0 km/h (1 Bft) O-SO 123 0 min 0,000 mm 0,0 UV-I 0 W/m 6,1 C 8,8 C 6,4 km/h (2 Bft) 100,00 %
21.10.2018 04:52 8,8 C 11,7 C 8,3 C 84 % 1026,1 hPa 0,0 l/m 7,1 km/h (2 Bft) O-SO 113 0 min 0,000 mm 0,0 UV-I 0 W/m 6,2 C 8,3 C 11,3 km/h (2 Bft) 100,00 %
21.10.2018 04:54 8,7 C 11,7 C 8,3 C 83 % 1026,2 hPa 0,0 l/m 6,6 km/h (2 Bft) O-SO 103 0 min 0,000 mm 0,0 UV-I 0 W/m 6,0 C 8,6 C 11,3 km/h (2 Bft) 100,00 %
21.10.2018 04:56 8,8 C 11,7 C 8,3 C 81 % 1026,2 hPa 0,0 l/m 5,5 km/h (1 Bft) O 96 0 min 0,000 mm 0,0 UV-I 0 W/m 5,7 C 8,8 C 11,3 km/h (2 Bft) 94,34 %
21.10.2018 04:58 8,8 C 11,7 C 8,3 C 80 % 1026,2 hPa 0,0 l/m 5,8 km/h (2 Bft) O 87 0 min 0,000 mm 0,0 UV-I 0 W/m 5,5 C 8,8 C 11,3 km/h (2 Bft) 95,74 %
21.10.2018 05:00 8,8 C 11,7 C 8,3 C 81 % 1026,3 hPa 0,0 l/m 3,7 km/h (1 Bft) O 94 0 min 0,000 mm 0,0 UV-I 0 W/m 5,7 C 8,8 C 6,4 km/h (2 Bft) 95,45 %
21.10.2018 05:02 8,8 C 11,7 C 8,3 C 81 % 1026,3 hPa 0,0 l/m 2,2 km/h (1 Bft) O 93 0 min 0,000 mm 0,0 UV-I 0 W/m 5,7 C 8,8 C 4,8 km/h (1 Bft) 96,00 %
21.10.2018 05:04 8,7 C 11,7 C 8,3 C 81 % 1026,4 hPa 0,0 l/m 2,2 km/h (1 Bft) O-NO 66 0 min 0,000 mm 0,0 UV-I 0 W/m 5,6 C 8,7 C 4,8 km/h (1 Bft) 96,00 %
21.10.2018 05:06 8,7 C 11,7 C 8,3 C 82 % 1026,5 hPa 0,0 l/m 3,8 km/h (1 Bft) O-NO 60 0 min 0,000 mm 0,0 UV-I 0 W/m 5,8 C 8,7 C 6,4 km/h (2 Bft) 92,11 %
21.10.2018 05:08 8,7 C 11,7 C 8,3 C 81 % 1026,5 hPa 0,0 l/m 3,5 km/h (1 Bft) O-NO 59 0 min 0,000 mm 0,0 UV-I 0 W/m 5,6 C 8,7 C 4,8 km/h (1 Bft) 94,64 %
21.10.2018 05:10 8,6 C 11,7 C 8,3 C 81 % 1026,4 hPa 0,0 l/m 2,5 km/h (1 Bft) O-NO 59 0 min 0,000 mm 0,0 UV-I 0 W/m 5,5 C 8,6 C 4,8 km/h (1 Bft) 93,62 %
21.10.2018 05:12 8,6 C 11,7 C 7,8 C 81 % 1026,5 hPa 0,0 l/m 3,4 km/h (1 Bft) O-NO 58 0 min 0,000 mm 0,0 UV-I 0 W/m 5,5 C 8,6 C 4,8 km/h (1 Bft) 98,00 %
21.10.2018 05:15 8,5 C 11,7 C 7,8 C 82 % 1026,4 hPa 0,0 l/m 4,6 km/h (1 Bft) NO 47 0 min 0,000 mm 0,0 UV-I 0 W/m 5,6 C 8,5 C 8,0 km/h (2 Bft) 92,65 %
21.10.2018 05:16 8,5 C 11,7 C 7,8 C 81 % 1026,4 hPa 0,0 l/m 5,6 km/h (1 Bft) NO 38 0 min 0,000 mm 0,0 UV-I 0 W/m 5,4 C 8,5 C 8,0 km/h (2 Bft) 90,91 %
21.10.2018 05:18 8,5 C 11,7 C 7,8 C 81 % 1026,5 hPa 0,0 l/m 5,9 km/h (2 Bft) NO 46 0 min 0,000 mm 0,0 UV-I 0 W/m 5,4 C 8,5 C 8,0 km/h (2 Bft) 91,07 %
21.10.2018 05:20 8,5 C 11,7 C 7,8 C 81 % 1026,4 hPa 0,0 l/m 3,8 km/h (1 Bft) NO 51 0 min 0,000 mm 0,0 UV-I 0 W/m 5,4 C 8,5 C 6,4 km/h (2 Bft) 95,24 %
21.10.2018 05:22 8,5 C 11,7 C 7,8 C 81 % 1026,5 hPa 0,0 l/m 2,9 km/h (1 Bft) NO 51 0 min 0,000 mm 0,0 UV-I 0 W/m 5,4 C 8,5 C 4,8 km/h (1 Bft) 94,00 %
21.10.2018 05:24 8,4 C 11,7 C 7,8 C 82 % 1026,5 hPa 0,0 l/m 2,5 km/h (1 Bft) NO 51 0 min 0,000 mm 0,0 UV-I 0 W/m 5,5 C 8,4 C 3,2 km/h (1 Bft) 95,12 %
21.10.2018 05:26 8,4 C 11,7 C 7,8 C 82 % 1026,5 hPa 0,0 l/m 2,6 km/h (1 Bft) NO 51 0 min 0,000 mm 0,0 UV-I 0 W/m 5,5 C 8,4 C 4,8 km/h (1 Bft) 96,23 %
21.10.2018 05:28 8,3 C 11,7 C 7,8 C 82 % 1026,5 hPa 0,0 l/m 3,5 km/h (1 Bft) NO 51 0 min 0,000 mm 0,0 UV-I 0 W/m 5,4 C 8,3 C 4,8 km/h (1 Bft) 96,00 %
21.10.2018 05:30 8,3 C 11,7 C 7,8 C 82 % 1026,5 hPa 0,0 l/m 2,6 km/h (1 Bft) NO 51 0 min 0,000 mm 0,0 UV-I 0 W/m 5,4 C 8,3 C 3,2 km/h (1 Bft) 95,74 %
21.10.2018 05:32 8,3 C 11,7 C 7,8 C 81 % 1026,4 hPa 0,0 l/m 1,2 km/h (1 Bft) NO 51 0 min 0,000 mm 0,0 UV-I 0 W/m 5,2 C 8,3 C 3,2 km/h (1 Bft) 93,62 %
21.10.2018 05:34 8,3 C 11,7 C 7,8 C 81 % 1026,4 hPa 0,0 l/m 0,7 km/h (0 Bft) NO 51 0 min 0,000 mm 0,0 UV-I 0 W/m 5,2 C 8,3 C 1,6 km/h (1 Bft) 95,12 %
21.10.2018 05:36 8,3 C 11,7 C 7,8 C 81 % 1026,4 hPa 0,0 l/m 0,6 km/h (0 Bft) NO 51 0 min 0,000 mm 0,0 UV-I 0 W/m 5,2 C 8,3 C 1,6 km/h (1 Bft) 92,86 %
21.10.2018 05:38 8,4 C 11,7 C 7,2 C 80 % 1026,4 hPa 0,0 l/m 0,7 km/h (0 Bft) NO 51 0 min 0,000 mm 0,0 UV-I 0 W/m 5,2 C 8,4 C 1,6 km/h (1 Bft) 93,62 %
21.10.2018 05:40 8,4 C 11,7 C 7,2 C 80 % 1026,4 hPa 0,0 l/m 0,5 km/h (0 Bft) NO 51 0 min 0,000 mm 0,0 UV-I 0 W/m 5,2 C 8,4 C 1,6 km/h (1 Bft) 95,74 %
21.10.2018 05:42 8,4 C 11,7 C 7,2 C 81 % 1026,5 hPa 0,0 l/m 1,2 km/h (1 Bft) NO 51 0 min 0,000 mm 0,0 UV-I 0 W/m 5,3 C 8,4 C 1,6 km/h (1 Bft) 91,49 %
21.10.2018 05:45 8,3 C 11,7 C 7,8 C 82 % 1026,4 hPa 0,0 l/m 0,9 km/h (0 Bft) NO 51 0 min 0,000 mm 0,0 UV-I 0 W/m 5,4 C 8,3 C 1,6 km/h (1 Bft) 94,37 %
21.10.2018 05:46 8,3 C 11,7 C 7,8 C 82 % 1026,5 hPa 0,0 l/m 0,9 km/h (0 Bft) NO 51 0 min 0,000 mm 0,0 UV-I 0 W/m 5,4 C 8,3 C 1,6 km/h (1 Bft) 92,86 %
21.10.2018 05:48 8,3 C 11,7 C 7,8 C 82 % 1026,5 hPa 0,0 l/m 1,2 km/h (1 Bft) NO 51 0 min 0,000 mm 0,0 UV-I 0 W/m 5,4 C 8,3 C 3,2 km/h (1 Bft) 96,00 %
21.10.2018 05:50 8,3 C 11,7 C 7,8 C 82 % 1026,5 hPa 0,0 l/m 1,6 km/h (1 Bft) NO 51 0 min 0,000 mm 0,0 UV-I 0 W/m 5,4 C 8,3 C 3,2 km/h (1 Bft) 97,87 %
21.10.2018 05:52 8,2 C 11,7 C 7,8 C 83 % 1026,4 hPa 0,0 l/m 2,1 km/h (1 Bft) NO 51 0 min 0,000 mm 0,0 UV-I 0 W/m 5,5 C 8,2 C 3,2 km/h (1 Bft) 98,00 %
21.10.2018 05:54 8,2 C 11,7 C 7,2 C 83 % 1026,3 hPa 0,0 l/m 3,4 km/h (1 Bft) NO 51 0 min 0,000 mm 0,0 UV-I 0 W/m 5,5 C 8,2 C 4,8 km/h (1 Bft) 97,87 %
21.10.2018 05:56 8,2 C 11,7 C 7,2 C 83 % 1026,3 hPa 0,0 l/m 4,1 km/h (1 Bft) NO 54 0 min 0,000 mm 0,0 UV-I 0 W/m 5,5 C 8,2 C 6,4 km/h (2 Bft) 100,00 %
21.10.2018 05:58 8,2 C 11,7 C 7,2 C 82 % 1026,3 hPa 0,0 l/m 4,2 km/h (1 Bft) NO 53 0 min 0,000 mm 0,0 UV-I 0 W/m 5,3 C 8,2 C 8,0 km/h (2 Bft) 100,00 %
21.10.2018 06:00 8,2 C 11,7 C 7,8 C 81 % 1026,3 hPa 0,0 l/m 2,3 km/h (1 Bft) NO 53 0 min 0,000 mm 0,0 UV-I 0 W/m 5,1 C 8,2 C 3,2 km/h (1 Bft) 100,00 %
21.10.2018 06:02 8,3 C 11,7 C 7,8 C 81 % 1026,4 hPa 0,0 l/m 2,3 km/h (1 Bft) NO 53 0 min 0,000 mm 0,0 UV-I 0 W/m 5,2 C 8,3 C 4,8 km/h (1 Bft) 100,00 %
21.10.2018 06:04 8,3 C 11,7 C 7,8 C 80 % 1026,4 hPa 0,0 l/m 2,2 km/h (1 Bft) NO 53 0 min 0,000 mm 0,0 UV-I 0 W/m 5,1 C 8,3 C 3,2 km/h (1 Bft) 100,00 %
21.10.2018 06:06 8,3 C 11,7 C 7,8 C 82 % 1026,4 hPa 0,0 l/m 1,0 km/h (0 Bft) NO 53 0 min 0,000 mm 0,0 UV-I 0 W/m 5,4 C 8,3 C 3,2 km/h (1 Bft) 100,00 %
21.10.2018 06:08 8,3 C 11,7 C 7,8 C 83 % 1026,4 hPa 0,0 l/m 0,0 km/h (0 Bft) NO 53 0 min 0,000 mm 0,0 UV-I 0 W/m 5,6 C 8,3 C 0,0 km/h (0 Bft) 100,00 %
21.10.2018 06:10 8,2 C 11,7 C 7,8 C 83 % 1026,4 hPa 0,0 l/m 0,0 km/h (0 Bft) NO 53 0 min 0,000 mm 0,0 UV-I 0 W/m 5,5 C 8,2 C 0,0 km/h (0 Bft) 100,00 %
21.10.2018 06:12 8,2 C 11,7 C 7,8 C 83 % 1026,4 hPa 0,0 l/m 0,6 km/h (0 Bft) NO 53 0 min 0,000 mm 0,0 UV-I 0 W/m 5,5 C 8,2 C 1,6 km/h (1 Bft) 95,74 %
21.10.2018 06:14 8,2 C 11,7 C 7,8 C 83 % 1026,4 hPa 0,0 l/m 0,3 km/h (0 Bft) NO 53 0 min 0,000 mm 0,0 UV-I 0 W/m 5,5 C 8,2 C 1,6 km/h (1 Bft) 100,00 %
21.10.2018 06:16 8,2 C 11,7 C 7,8 C 83 % 1026,4 hPa 0,0 l/m 0,0 km/h (0 Bft) NO 53 0 min 0,000 mm 0,0 UV-I 0 W/m 5,5 C 8,2 C 0,0 km/h (0 Bft) 100,00 %
21.10.2018 06:18 8,2 C 11,7 C 7,8 C 83 % 1026,3 hPa 0,0 l/m 0,2 km/h (0 Bft) NO 53 0 min 0,000 mm 0,0 UV-I 0 W/m 5,5 C 8,2 C 1,6 km/h (1 Bft) 97,87 %
21.10.2018 06:20 8,2 C 11,7 C 7,8 C 84 % 1026,4 hPa 0,0 l/m 2,2 km/h (1 Bft) NO 53 0 min 0,000 mm 0,0 UV-I 0 W/m 5,7 C 8,2 C 4,8 km/h (1 Bft) 97,92 %
21.10.2018 06:22 8,1 C 11,7 C 7,8 C 84 % 1026,4 hPa 0,0 l/m 1,9 km/h (1 Bft) NO 53 0 min 0,000 mm 0,0 UV-I 0 W/m 5,6 C 8,1 C 3,2 km/h (1 Bft) 98,00 %
21.10.2018 06:24 8,1 C 11,7 C 7,8 C 84 % 1026,4 hPa 0,0 l/m 2,5 km/h (1 Bft) NO 53 0 min 0,000 mm 0,0 UV-I 0 W/m 5,6 C 8,1 C 4,8 km/h (1 Bft) 97,37 %
21.10.2018 06:26 8,1 C 11,7 C 7,8 C 83 % 1026,4 hPa 0,0 l/m 1,9 km/h (1 Bft) NO 53 0 min 0,000 mm 0,0 UV-I 0 W/m 5,4 C 8,1 C 3,2 km/h (1 Bft) 98,00 %
21.10.2018 06:28 8,2 C 11,7 C 7,8 C 82 % 1026,3 hPa 0,0 l/m 1,3 km/h (1 Bft) NO 53 0 min 0,000 mm 0,0 UV-I 0 W/m 5,3 C 8,2 C 3,2 km/h (1 Bft) 97,37 %
21.10.2018 06:30 8,2 C 11,7 C 7,8 C 82 % 1026,3 hPa 0,0 l/m 0,4 km/h (0 Bft) NO 53 0 min 0,000 mm 0,0 UV-I 0 W/m 5,3 C 8,2 C 1,6 km/h (1 Bft) 98,11 %
21.10.2018 06:32 8,2 C 11,7 C 7,8 C 82 % 1026,3 hPa 0,0 l/m 0,0 km/h (0 Bft) NO 53 0 min 0,000 mm 0,0 UV-I 0 W/m 5,3 C 8,2 C 0,0 km/h (0 Bft) 96,00 %
21.10.2018 06:34 8,2 C 11,7 C 7,8 C 83 % 1026,3 hPa 0,0 l/m 0,0 km/h (0 Bft) NO 53 0 min 0,000 mm 0,0 UV-I 0 W/m 5,5 C 8,2 C 0,0 km/h (0 Bft) 100,00 %
21.10.2018 06:36 8,2 C 11,7 C 7,8 C 83 % 1026,3 hPa 0,0 l/m 0,5 km/h (0 Bft) NO 53 0 min 0,000 mm 0,0 UV-I 0 W/m 5,5 C 8,2 C 1,6 km/h (1 Bft) 94,00 %
21.10.2018 06:38 8,2 C 11,7 C 7,2 C 82 % 1026,4 hPa 0,0 l/m 0,6 km/h (0 Bft) NO 53 0 min 0,000 mm 0,0 UV-I 0 W/m 5,3 C 8,2 C 1,6 km/h (1 Bft) 98,11 %
21.10.2018 06:40 8,2 C 11,7 C 7,2 C 83 % 1026,3 hPa 0,0 l/m 1,1 km/h (1 Bft) NO 53 0 min 0,000 mm 0,0 UV-I 0 W/m 5,5 C 8,2 C 1,6 km/h (1 Bft) 95,74 %
21.10.2018 06:42 8,2 C 11,7 C 7,2 C 81 % 1026,4 hPa 0,0 l/m 1,5 km/h (1 Bft) NO 53 0 min 0,000 mm 0,0 UV-I 0 W/m 5,1 C 8,2 C 1,6 km/h (1 Bft) 100,00 %
21.10.2018 06:44 8,2 C 11,7 C 7,2 C 82 % 1026,4 hPa 0,0 l/m 0,8 km/h (0 Bft) NO 53 0 min 0,000 mm 0,0 UV-I 0 W/m 5,3 C 8,2 C 1,6 km/h (1 Bft) 100,00 %
21.10.2018 06:46 8,2 C 11,7 C 7,2 C 81 % 1026,4 hPa 0,0 l/m 1,1 km/h (1 Bft) NO 53 0 min 0,000 mm 0,0 UV-I 0 W/m 5,1 C 8,2 C 1,6 km/h (1 Bft) 100,00 %
21.10.2018 06:48 8,2 C 11,7 C 7,2 C 82 % 1026,4 hPa 0,0 l/m 1,3 km/h (1 Bft) NO 53 0 min 0,000 mm 0,0 UV-I 0 W/m 5,3 C 8,2 C 3,2 km/h (1 Bft) 100,00 %
21.10.2018 06:50 8,1 C 11,7 C 7,2 C 82 % 1026,4 hPa 0,0 l/m 1,5 km/h (1 Bft) NO 53 0 min 0,000 mm 0,0 UV-I 0 W/m 5,2 C 8,1 C 3,2 km/h (1 Bft) 100,00 %
21.10.2018 06:52 8,1 C 11,7 C 7,2 C 83 % 1026,4 hPa 0,0 l/m 1,0 km/h (0 Bft) NO 53 0 min 0,000 mm 0,0 UV-I 0 W/m 5,4 C 8,1 C 1,6 km/h (1 Bft) 100,00 %
21.10.2018 06:54 8,1 C 11,7 C 7,2 C 84 % 1026,4 hPa 0,0 l/m 1,2 km/h (1 Bft) NO 53 0 min 0,000 mm 0,0 UV-I 0 W/m 5,6 C 8,1 C 3,2 km/h (1 Bft) 100,00 %
21.10.2018 06:56 8,1 C 11,7 C 7,2 C 84 % 1026,4 hPa 0,0 l/m 1,9 km/h (1 Bft) NO 53 0 min 0,000 mm 0,0 UV-I 0 W/m 5,6 C 8,1 C 3,2 km/h (1 Bft) 100,00 %
21.10.2018 06:58 8,1 C 11,7 C 7,2 C 83 % 1026,4 hPa 0,0 l/m 1,2 km/h (1 Bft) NO 53 0 min 0,000 mm 0,0 UV-I 0 W/m 5,4 C 8,1 C 1,6 km/h (1 Bft) 98,00 %
21.10.2018 07:00 8,0 C 11,7 C 7,2 C 83 % 1026,4 hPa 0,0 l/m 2,2 km/h (1 Bft) NO 53 0 min 0,000 mm 0,0 UV-I 0 W/m 5,3 C 8,0 C 3,2 km/h (1 Bft) 97,87 %
21.10.2018 07:02 8,1 C 11,7 C 7,2 C 82 % 1026,4 hPa 0,0 l/m 3,1 km/h (1 Bft) NO 53 0 min 0,000 mm 0,0 UV-I 0 W/m 5,2 C 8,1 C 3,2 km/h (1 Bft) 100,00 %
21.10.2018 07:04 8,1 C 11,7 C 7,2 C 81 % 1026,4 hPa 0,0 l/m 2,8 km/h (1 Bft) NO 53 0 min 0,000 mm 0,0 UV-I 0 W/m 5,0 C 8,1 C 4,8 km/h (1 Bft) 100,00 %
21.10.2018 07:06 8,2 C 11,7 C 7,2 C 80 % 1026,4 hPa 0,0 l/m 2,9 km/h (1 Bft) NO 53 0 min 0,000 mm 0,0 UV-I 0 W/m 5,0 C 8,2 C 4,8 km/h (1 Bft) 100,00 %
21.10.2018 07:08 8,2 C 11,7 C 7,2 C 80 % 1026,4 hPa 0,0 l/m 1,3 km/h (1 Bft) NO 53 0 min 0,000 mm 0,0 UV-I 0 W/m 5,0 C 8,2 C 3,2 km/h (1 Bft) 97,87 %
21.10.2018 07:10 8,2 C 11,7 C 7,2 C 80 % 1026,4 hPa 0,0 l/m 0,6 km/h (0 Bft) NO 53 0 min 0,000 mm 0,0 UV-I 0 W/m 5,0 C 8,2 C 3,2 km/h (1 Bft) 100,00 %
21.10.2018 07:12 8,2 C 11,7 C 7,2 C 82 % 1026,4 hPa 0,0 l/m 0,1 km/h (0 Bft) NO 53 0 min 0,000 mm 0,0 UV-I 0 W/m 5,3 C 8,2 C 1,6 km/h (1 Bft) 100,00 %
21.10.2018 07:14 8,1 C 11,7 C 7,2 C 82 % 1026,4 hPa 0,0 l/m 0,1 km/h (0 Bft) NO 53 0 min 0,000 mm 0,0 UV-I 0 W/m 5,2 C 8,1 C 1,6 km/h (1 Bft) 100,00 %
21.10.2018 07:16 8,0 C 11,7 C 7,2 C 83 % 1026,3 hPa 0,0 l/m 0,0 km/h (0 Bft) NO 53 0 min 0,000 mm 0,0 UV-I 0 W/m 5,3 C 8,0 C 0,0 km/h (0 Bft) 100,00 %
21.10.2018 07:18 8,0 C 11,7 C 7,2 C 83 % 1026,3 hPa 0,0 l/m 0,9 km/h (0 Bft) NO 53 0 min 0,000 mm 0,0 UV-I 0 W/m 5,3 C 8,0 C 3,2 km/h (1 Bft) 96,00 %
21.10.2018 07:20 7,9 C 11,7 C 7,2 C 84 % 1026,3 hPa 0,0 l/m 1,2 km/h (1 Bft) NO 53 0 min 0,000 mm 0,0 UV-I 0 W/m 5,4 C 7,9 C 1,6 km/h (1 Bft) 98,00 %
21.10.2018 07:22 7,8 C 11,7 C 7,2 C 84 % 1026,3 hPa 0,0 l/m 1,0 km/h (0 Bft) NO 53 0 min 0,000 mm 0,0 UV-I 0 W/m 5,3 C 7,8 C 1,6 km/h (1 Bft) 97,87 %
21.10.2018 07:24 7,7 C 11,7 C 7,2 C 84 % 1026,3 hPa 0,0 l/m 1,4 km/h (1 Bft) NO 53 0 min 0,000 mm 0,0 UV-I 0 W/m 5,2 C 7,7 C 3,2 km/h (1 Bft) 96,00 %
21.10.2018 07:26 7,7 C 11,7 C 7,2 C 84 % 1026,3 hPa 0,0 l/m 2,0 km/h (1 Bft) NO 53 0 min 0,000 mm 0,0 UV-I 0 W/m 5,2 C 7,7 C 3,2 km/h (1 Bft) 97,37 %
21.10.2018 07:28 7,8 C 11,7 C 7,2 C 84 % 1026,3 hPa 0,0 l/m 1,7 km/h (1 Bft) NO 53 0 min 0,000 mm 0,0 UV-I 0 W/m 5,3 C 7,8 C 3,2 km/h (1 Bft) 97,87 %
21.10.2018 07:30 7,8 C 11,7 C 7,2 C 83 % 1026,3 hPa 0,0 l/m 1,3 km/h (1 Bft) NO 53 0 min 0,000 mm 0,0 UV-I 0 W/m 5,1 C 7,8 C 3,2 km/h (1 Bft) 98,00 %
21.10.2018 07:32 7,9 C 11,7 C 7,2 C 84 % 1026,4 hPa 0,0 l/m 0,0 km/h (0 Bft) NO 53 0 min 0,000 mm 0,0 UV-I 3 W/m 5,4 C 7,9 C 0,0 km/h (0 Bft) 96,00 %
21.10.2018 07:34 7,9 C 11,7 C 7,2 C 83 % 1026,4 hPa 0,0 l/m 0,0 km/h (0 Bft) NO 53 0 min 0,000 mm 0,0 UV-I 5 W/m 5,2 C 7,9 C 1,6 km/h (1 Bft) 97,56 %
21.10.2018 07:36 7,9 C 11,7 C 7,2 C 84 % 1026,4 hPa 0,0 l/m 1,7 km/h (1 Bft) O-NO 59 0 min 0,000 mm 0,0 UV-I 5 W/m 5,4 C 7,9 C 3,2 km/h (1 Bft) 89,36 %
21.10.2018 07:38 7,9 C 11,7 C 7,2 C 84 % 1026,4 hPa 0,0 l/m 1,7 km/h (1 Bft) O-NO 59 0 min 0,000 mm 0,0 UV-I 5 W/m 5,4 C 7,9 C 3,2 km/h (1 Bft) 96,23 %
21.10.2018 07:40 7,8 C 11,7 C 7,2 C 85 % 1026,4 hPa 0,0 l/m 0,5 km/h (0 Bft) S-SO 148 0 min 0,000 mm 0,0 UV-I 5 W/m 5,4 C 7,8 C 1,6 km/h (1 Bft) 95,74 %
21.10.2018 07:42 7,8 C 11,7 C 7,2 C 85 % 1026,5 hPa 0,0 l/m 0,0 km/h (0 Bft) S-SO 148 0 min 0,000 mm 0,0 UV-I 5 W/m 5,4 C 7,8 C 0,0 km/h (0 Bft) 91,43 %
21.10.2018 07:44 7,8 C 11,7 C 7,2 C 85 % 1026,5 hPa 0,0 l/m 0,0 km/h (0 Bft) S-SO 148 0 min 0,000 mm 0,0 UV-I 7 W/m 5,4 C 7,8 C 0,0 km/h (0 Bft) 96,43 %
21.10.2018 07:46 7,8 C 11,7 C 7,2 C 85 % 1026,5 hPa 0,0 l/m 0,0 km/h (0 Bft) S-SO 148 0 min 0,000 mm 0,0 UV-I 7 W/m 5,4 C 7,8 C 0,0 km/h (0 Bft) 94,00 %
21.10.2018 07:48 7,8 C 11,7 C 7,2 C 85 % 1026,5 hPa 0,0 l/m 1,4 km/h (1 Bft) W 279 0 min 0,000 mm 0,0 UV-I 7 W/m 5,4 C 7,8 C 4,8 km/h (1 Bft) 93,75 %
21.10.2018 07:50 7,8 C 11,7 C 7,2 C 85 % 1026,5 hPa 0,0 l/m 2,4 km/h (1 Bft) W 279 0 min 0,000 mm 0,0 UV-I 8 W/m 5,4 C 7,8 C 3,2 km/h (1 Bft) 97,37 %
21.10.2018 07:52 7,7 C 11,7 C 7,2 C 86 % 1026,5 hPa 0,0 l/m 1,1 km/h (1 Bft) W 279 0 min 0,000 mm 0,0 UV-I 10 W/m 5,5 C 7,7 C 1,6 km/h (1 Bft) 94,00 %
21.10.2018 07:54 7,7 C 11,7 C 7,2 C 86 % 1026,6 hPa 0,0 l/m 0,4 km/h (0 Bft) W 279 0 min 0,000 mm 0,0 UV-I 11 W/m 5,5 C 7,7 C 1,6 km/h (1 Bft) 100,00 %
21.10.2018 07:56 7,7 C 11,7 C 7,2 C 86 % 1026,7 hPa 0,0 l/m 0,0 km/h (0 Bft) W 279 0 min 0,000 mm 0,0 UV-I 12 W/m 5,5 C 7,7 C 0,0 km/h (0 Bft) 96,00 %
21.10.2018 07:58 7,7 C 11,7 C 7,2 C 86 % 1026,7 hPa 0,0 l/m 0,1 km/h (0 Bft) W 279 0 min 0,000 mm 0,0 UV-I 12 W/m 5,5 C 7,7 C 1,6 km/h (1 Bft) 97,87 %
21.10.2018 08:00 7,8 C 11,7 C 7,2 C 85 % 1026,7 hPa 0,0 l/m 0,8 km/h (0 Bft) W 279 0 min 0,000 mm 0,0 UV-I 12 W/m 5,4 C 7,8 C 1,6 km/h (1 Bft) 98,11 %
21.10.2018 08:02 7,8 C 11,7 C 7,2 C 86 % 1026,8 hPa 0,0 l/m 0,0 km/h (0 Bft) W 279 0 min 0,000 mm 0,0 UV-I 12 W/m 5,6 C 7,8 C 0,0 km/h (0 Bft) 97,87 %
21.10.2018 08:04 7,8 C 11,7 C 7,2 C 86 % 1026,8 hPa 0,0 l/m 0,4 km/h (0 Bft) W 280 0 min 0,000 mm 0,0 UV-I 12 W/m 5,6 C 7,8 C 1,6 km/h (1 Bft) 100,00 %
21.10.2018 08:06 7,7 C 11,7 C 7,2 C 86 % 1026,9 hPa 0,0 l/m 1,2 km/h (1 Bft) W-SW 257 0 min 0,000 mm 0,0 UV-I 12 W/m 5,5 C 7,7 C 1,6 km/h (1 Bft) 100,00 %
21.10.2018 08:08 7,7 C 11,7 C 7,2 C 86 % 1026,9 hPa 0,0 l/m 0,3 km/h (0 Bft) W-SW 257 0 min 0,000 mm 0,0 UV-I 12 W/m 5,5 C 7,7 C 1,6 km/h (1 Bft) 98,21 %
21.10.2018 08:10 7,7 C 11,7 C 7,2 C 86 % 1026,9 hPa 0,0 l/m 0,0 km/h (0 Bft) W-SW 257 0 min 0,000 mm 0,0 UV-I 14 W/m 5,5 C 7,7 C 0,0 km/h (0 Bft) 100,00 %
21.10.2018 08:12 7,7 C 11,7 C 7,2 C 85 % 1026,9 hPa 0,0 l/m 0,0 km/h (0 Bft) W-SW 257 0 min 0,000 mm 0,0 UV-I 16 W/m 5,3 C 7,7 C 0,0 km/h (0 Bft) 100,00 %
21.10.2018 08:14 7,8 C 11,7 C 7,2 C 86 % 1026,9 hPa 0,0 l/m 1,1 km/h (1 Bft) W-SW 257 0 min 0,000 mm 0,0 UV-I 18 W/m 5,6 C 7,8 C 1,6 km/h (1 Bft) 100,00 %
21.10.2018 08:16 7,8 C 11,7 C 7,2 C 86 % 1026,9 hPa 0,0 l/m 0,2 km/h (0 Bft) W-SW 257 0 min 0,000 mm 0,0 UV-I 20 W/m 5,6 C 7,8 C 1,6 km/h (1 Bft) 100,00 %
21.10.2018 08:18 7,7 C 11,7 C 7,8 C 87 % 1026,9 hPa 0,0 l/m 0,0 km/h (0 Bft) W-SW 257 0 min 0,000 mm 0,0 UV-I 22 W/m 5,7 C 7,7 C 0,0 km/h (0 Bft) 97,56 %
21.10.2018 08:20 7,6 C 11,7 C 7,8 C 87 % 1026,9 hPa 0,0 l/m 0,6 km/h (0 Bft) W-SW 257 0 min 0,000 mm 0,0 UV-I 25 W/m 5,6 C 7,6 C 1,6 km/h (1 Bft) 100,00 %
21.10.2018 08:22 7,6 C 11,7 C 7,8 C 87 % 1026,9 hPa 0,0 l/m 1,1 km/h (1 Bft) W-SW 257 0 min 0,000 mm 0,0 UV-I 27 W/m 5,6 C 7,6 C 1,6 km/h (1 Bft) 98,00 %
21.10.2018 08:24 7,6 C 11,7 C 7,8 C 87 % 1026,9 hPa 0,0 l/m 1,0 km/h (0 Bft) W-SW 257 0 min 0,000 mm 0,0 UV-I 30 W/m 5,6 C 7,6 C 1,6 km/h (1 Bft) 97,37 %
21.10.2018 08:26 7,6 C 11,7 C 7,8 C 87 % 1026,9 hPa 0,0 l/m 1,0 km/h (0 Bft) W-SW 257 0 min 0,000 mm 0,0 UV-I 32 W/m 5,6 C 7,6 C 1,6 km/h (1 Bft) 98,00 %
21.10.2018 08:28 7,7 C 11,7 C 7,8 C 87 % 1026,9 hPa 0,0 l/m 1,1 km/h (1 Bft) W-SW 257 0 min 0,000 mm 0,0 UV-I 36 W/m 5,7 C 7,7 C 1,6 km/h (1 Bft) 96,23 %
21.10.2018 08:30 7,7 C 11,7 C 7,8 C 87 % 1027,0 hPa 0,0 l/m 2,0 km/h (1 Bft) W-SW 257 0 min 0,000 mm 0,0 UV-I 39 W/m 5,7 C 7,7 C 3,2 km/h (1 Bft) 97,87 %
21.10.2018 08:32 7,7 C 11,7 C 7,8 C 87 % 1027,0 hPa 0,0 l/m 2,1 km/h (1 Bft) W-SW 257 0 min 0,000 mm 0,0 UV-I 41 W/m 5,7 C 7,7 C 3,2 km/h (1 Bft) 97,44 %
21.10.2018 08:34 7,8 C 11,7 C 8,3 C 86 % 1027,0 hPa 0,0 l/m 0,8 km/h (0 Bft) W-SW 257 0 min 0,000 mm 0,0 UV-I 42 W/m 5,6 C 7,8 C 1,6 km/h (1 Bft) 98,28 %
21.10.2018 08:36 7,8 C 11,7 C 8,3 C 86 % 1027,0 hPa 0,0 l/m 0,7 km/h (0 Bft) W-SW 257 0 min 0,000 mm 0,0 UV-I 44 W/m 5,6 C 7,8 C 1,6 km/h (1 Bft) 97,56 %
21.10.2018 08:38 7,8 C 11,7 C 8,3 C 86 % 1027,0 hPa 0,0 l/m 0,7 km/h (0 Bft) W-SW 257 0 min 0,000 mm 0,0 UV-I 44 W/m 5,6 C 7,8 C 1,6 km/h (1 Bft) 96,00 %
21.10.2018 08:40 7,8 C 11,7 C 8,3 C 85 % 1027,0 hPa 0,0 l/m 1,1 km/h (1 Bft) W-SW 257 0 min 0,000 mm 0,0 UV-I 47 W/m 5,4 C 7,8 C 1,6 km/h (1 Bft) 95,83 %
21.10.2018 08:42 7,9 C 11,7 C 8,3 C 85 % 1027,1 hPa 0,0 l/m 0,9 km/h (0 Bft) W-SW 257 0 min 0,000 mm 0,0 UV-I 47 W/m 5,5 C 7,9 C 1,6 km/h (1 Bft) 97,56 %
21.10.2018 08:44 8,0 C 11,7 C 8,3 C 85 % 1027,1 hPa 0,0 l/m 1,0 km/h (0 Bft) W-SW 257 0 min 0,000 mm 0,0 UV-I 47 W/m 5,6 C 8,0 C 1,6 km/h (1 Bft) 94,00 %
21.10.2018 08:46 8,1 C 11,7 C 8,9 C 85 % 1027,2 hPa 0,0 l/m 0,5 km/h (0 Bft) W-SW 257 0 min 0,000 mm 0,0 UV-I 47 W/m 5,7 C 8,1 C 1,6 km/h (1 Bft) 97,37 %
21.10.2018 08:48 8,1 C 11,7 C 8,9 C 85 % 1027,2 hPa 0,0 l/m 0,0 km/h (0 Bft) W-SW 257 0 min 0,000 mm 0,0 UV-I 47 W/m 5,7 C 8,1 C 0,0 km/h (0 Bft) 98,11 %
21.10.2018 08:50 8,1 C 11,7 C 8,9 C 84 % 1027,1 hPa 0,0 l/m 0,1 km/h (0 Bft) W-SW 257 0 min 0,000 mm 0,0 UV-I 48 W/m 5,6 C 8,1 C 1,6 km/h (1 Bft) 97,87 %
21.10.2018 08:52 8,2 C 11,7 C 8,9 C 84 % 1027,1 hPa 0,0 l/m 1,1 km/h (1 Bft) W-SW 257 0 min 0,000 mm 0,0 UV-I 51 W/m 5,7 C 8,2 C 1,6 km/h (1 Bft) 97,56 %
21.10.2018 08:54 8,2 C 11,7 C 8,9 C 84 % 1027,1 hPa 0,0 l/m 2,3 km/h (1 Bft) W-SW 257 0 min 0,000 mm 0,0 UV-I 55 W/m 5,7 C 8,2 C 3,2 km/h (1 Bft) 96,61 %
21.10.2018 08:56 8,2 C 11,7 C 8,9 C 84 % 1027,1 hPa 0,0 l/m 2,6 km/h (1 Bft) W-SW 257 0 min 0,000 mm 0,0 UV-I 56 W/m 5,7 C 8,2 C 3,2 km/h (1 Bft) 97,87 %
21.10.2018 08:58 8,2 C 11,7 C 8,9 C 84 % 1027,1 hPa 0,0 l/m 3,1 km/h (1 Bft) W-SW 257 0 min 0,000 mm 0,0 UV-I 54 W/m 5,7 C 8,2 C 4,8 km/h (1 Bft) 97,87 %
21.10.2018 09:00 8,2 C 11,7 C 8,9 C 85 % 1027,1 hPa 0,0 l/m 2,8 km/h (1 Bft) W-SW 257 0 min 0,025 mm 0,0 UV-I 54 W/m 5,8 C 8,2 C 4,8 km/h (1 Bft) 95,74 %
21.10.2018 09:02 8,2 C 11,7 C 8,9 C 85 % 1027,1 hPa 0,0 l/m 3,4 km/h (1 Bft) W-SW 257 0 min 0,000 mm 0,0 UV-I 54 W/m 5,8 C 8,2 C 4,8 km/h (1 Bft) 94,74 %
21.10.2018 09:04 8,2 C 11,7 C 8,9 C 84 % 1027,0 hPa 0,0 l/m 2,8 km/h (1 Bft) W-SW 257 0 min 0,000 mm 0,0 UV-I 54 W/m 5,7 C 8,2 C 3,2 km/h (1 Bft) 96,00 %
21.10.2018 09:06 8,2 C 11,7 C 8,9 C 84 % 1027,0 hPa 0,0 l/m 3,0 km/h (1 Bft) W-SW 256 0 min 0,000 mm 0,0 UV-I 55 W/m 5,7 C 8,2 C 4,8 km/h (1 Bft) 96,00 %
21.10.2018 09:08 8,3 C 11,7 C 8,9 C 85 % 1027,0 hPa 0,0 l/m 2,0 km/h (1 Bft) W-SW 257 0 min 0,000 mm 0,0 UV-I 58 W/m 5,9 C 8,3 C 3,2 km/h (1 Bft) 95,24 %
21.10.2018 09:10 8,3 C 11,7 C 9,4 C 84 % 1027,0 hPa 0,0 l/m 2,8 km/h (1 Bft) W-SW 256 0 min 0,000 mm 0,0 UV-I 62 W/m 5,8 C 8,3 C 4,8 km/h (1 Bft) 95,74 %
21.10.2018 09:12 8,3 C 11,7 C 9,4 C 84 % 1027,1 hPa 0,0 l/m 2,3 km/h (1 Bft) W-SW 257 0 min 0,000 mm 0,0 UV-I 66 W/m 5,8 C 8,3 C 4,8 km/h (1 Bft) 95,74 %
21.10.2018 09:14 8,3 C 11,7 C 9,4 C 84 % 1027,1 hPa 0,0 l/m 3,0 km/h (1 Bft) W-SW 257 0 min 0,000 mm 0,0 UV-I 71 W/m 5,8 C 8,3 C 4,8 km/h (1 Bft) 93,62 %
21.10.2018 09:16 8,3 C 11,7 C 9,4 C 84 % 1027,2 hPa 0,0 l/m 2,4 km/h (1 Bft) W-SW 257 0 min 0,000 mm 0,0 UV-I 78 W/m 5,8 C 8,3 C 3,2 km/h (1 Bft) 93,62 %
21.10.2018 09:18 8,3 C 11,7 C 9,4 C 85 % 1027,2 hPa 0,0 l/m 1,8 km/h (1 Bft) W-SW 257 0 min 0,000 mm 0,0 UV-I 90 W/m 5,9 C 8,3 C 3,2 km/h (1 Bft) 93,62 %
21.10.2018 09:20 8,3 C 11,7 C 9,4 C 85 % 1027,2 hPa 0,0 l/m 1,7 km/h (1 Bft) W-SW 257 0 min 0,000 mm 0,0 UV-I 98 W/m 5,9 C 8,3 C 3,2 km/h (1 Bft) 94,00 %
21.10.2018 09:22 8,4 C 11,7 C 10,0 C 86 % 1027,3 hPa 0,0 l/m 2,0 km/h (1 Bft) W-SW 257 0 min 0,000 mm 0,0 UV-I 98 W/m 6,2 C 8,4 C 3,2 km/h (1 Bft) 95,74 %
21.10.2018 09:24 8,4 C 11,7 C 10,0 C 86 % 1027,4 hPa 0,0 l/m 1,9 km/h (1 Bft) W-SW 257 0 min 0,000 mm 0,0 UV-I 92 W/m 6,2 C 8,4 C 3,2 km/h (1 Bft) 98,00 %
21.10.2018 09:26 8,4 C 11,7 C 10,0 C 85 % 1027,4 hPa 0,0 l/m 1,2 km/h (1 Bft) W-SW 257 0 min 0,000 mm 0,0 UV-I 80 W/m 6,0 C 8,4 C 3,2 km/h (1 Bft) 92,11 %
21.10.2018 09:28 8,5 C 11,7 C 10,0 C 84 % 1027,4 hPa 0,0 l/m 0,5 km/h (0 Bft) W-SW 257 0 min 0,000 mm 0,0 UV-I 67 W/m 6,0 C 8,5 C 1,6 km/h (1 Bft) 98,00 %
21.10.2018 09:30 8,5 C 11,7 C 10,0 C 85 % 1027,4 hPa 0,0 l/m 0,4 km/h (0 Bft) W-SW 257 0 min 0,000 mm 0,0 UV-I 57 W/m 6,1 C 8,5 C 1,6 km/h (1 Bft) 96,00 %
21.10.2018 09:32 8,6 C 11,7 C 10,0 C 84 % 1027,4 hPa 0,0 l/m 1,6 km/h (1 Bft) W-SW 257 0 min 0,000 mm 0,0 UV-I 51 W/m 6,1 C 8,6 C 3,2 km/h (1 Bft) 97,73 %
21.10.2018 09:34 8,6 C 11,7 C 10,0 C 84 % 1027,5 hPa 0,0 l/m 1,0 km/h (0 Bft) W-SW 257 0 min 0,000 mm 0,0 UV-I 48 W/m 6,1 C 8,6 C 3,2 km/h (1 Bft) 95,74 %
21.10.2018 09:36 8,6 C 11,7 C 9,4 C 83 % 1027,4 hPa 0,0 l/m 2,1 km/h (1 Bft) N-NO 12 0 min 0,000 mm 0,0 UV-I 47 W/m 5,9 C 8,6 C 3,2 km/h (1 Bft) 97,44 %
21.10.2018 09:38 8,6 C 11,7 C 9,4 C 83 % 1027,5 hPa 0,0 l/m 4,8 km/h (1 Bft) N 11 0 min 0,000 mm 0,0 UV-I 49 W/m 5,9 C 8,6 C 6,4 km/h (2 Bft) 100,00 %
21.10.2018 09:40 8,7 C 11,7 C 9,4 C 83 % 1027,5 hPa 0,0 l/m 1,9 km/h (1 Bft) N 11 0 min 0,000 mm 0,0 UV-I 54 W/m 6,0 C 8,7 C 3,2 km/h (1 Bft) 94,83 %
21.10.2018 09:42 8,7 C 11,7 C 9,4 C 83 % 1027,5 hPa 0,0 l/m 1,5 km/h (1 Bft) NW 323 0 min 0,000 mm 0,0 UV-I 72 W/m 6,0 C 8,7 C 3,2 km/h (1 Bft) 98,11 %
21.10.2018 09:44 8,7 C 11,7 C 10,0 C 82 % 1027,5 hPa 0,0 l/m 2,9 km/h (1 Bft) NW 325 0 min 0,000 mm 0,0 UV-I 88 W/m 5,8 C 8,7 C 4,8 km/h (1 Bft) 92,50 %
21.10.2018 09:46 8,8 C 11,7 C 10,0 C 81 % 1027,4 hPa 0,0 l/m 1,3 km/h (1 Bft) NW 325 0 min 0,000 mm 0,0 UV-I 98 W/m 5,7 C 8,8 C 3,2 km/h (1 Bft) 93,10 %
21.10.2018 09:48 8,8 C 11,7 C 10,0 C 81 % 1027,3 hPa 0,0 l/m 0,7 km/h (0 Bft) NW 325 0 min 0,000 mm 0,0 UV-I 100 W/m 5,7 C 8,8 C 1,6 km/h (1 Bft) 98,53 %
21.10.2018 09:50 8,8 C 11,7 C 10,6 C 81 % 1027,3 hPa 0,0 l/m 0,8 km/h (0 Bft) NW 325 0 min 0,000 mm 0,0 UV-I 97 W/m 5,7 C 8,8 C 1,6 km/h (1 Bft) 97,87 %
21.10.2018 09:52 8,9 C 11,7 C 10,6 C 81 % 1027,4 hPa 0,0 l/m 1,4 km/h (1 Bft) NW 324 0 min 0,000 mm 0,0 UV-I 95 W/m 5,8 C 8,9 C 3,2 km/h (1 Bft) 97,56 %
21.10.2018 09:54 8,9 C 11,7 C 10,6 C 81 % 1027,4 hPa 0,0 l/m 2,0 km/h (1 Bft) NW 304 0 min 0,000 mm 0,0 UV-I 95 W/m 5,8 C 8,9 C 4,8 km/h (1 Bft) 95,74 %
21.10.2018 09:56 9,0 C 11,7 C 10,6 C 80 % 1027,4 hPa 0,0 l/m 3,5 km/h (1 Bft) W 275 0 min 0,000 mm 0,0 UV-I 93 W/m 5,7 C 9,0 C 4,8 km/h (1 Bft) 100,00 %
21.10.2018 09:58 9,1 C 11,7 C 10,6 C 79 % 1027,4 hPa 0,0 l/m 2,7 km/h (1 Bft) W 275 0 min 0,000 mm 0,0 UV-I 40 W/m 5,7 C 9,1 C 4,8 km/h (1 Bft) 100,00 %
21.10.2018 10:00 9,1 C 11,7 C 10,6 C 79 % 1027,4 hPa 0,0 l/m 0,7 km/h (0 Bft) W 275 0 min 0,026 mm 0,0 UV-I 64 W/m 5,7 C 9,1 C 1,6 km/h (1 Bft) 95,74 %
21.10.2018 10:02 9,1 C 11,7 C 10,6 C 79 % 1027,4 hPa 0,0 l/m 1,2 km/h (1 Bft) W 275 0 min 0,000 mm 0,0 UV-I 82 W/m 5,7 C 9,1 C 3,2 km/h (1 Bft) 100,00 %
21.10.2018 10:04 9,1 C 11,7 C 10,6 C 79 % 1027,4 hPa 0,0 l/m 2,6 km/h (1 Bft) W 275 0 min 0,000 mm 0,0 UV-I 81 W/m 5,7 C 9,1 C 3,2 km/h (1 Bft) 100,00 %
21.10.2018 10:06 9,1 C 11,7 C 10,6 C 79 % 1027,4 hPa 0,0 l/m 2,8 km/h (1 Bft) W 275 0 min 0,000 mm 0,0 UV-I 81 W/m 5,7 C 9,1 C 4,8 km/h (1 Bft) 100,00 %
21.10.2018 10:08 9,2 C 11,7 C 10,6 C 79 % 1027,4 hPa 0,0 l/m 2,6 km/h (1 Bft) W 274 0 min 0,000 mm 0,0 UV-I 82 W/m 5,8 C 9,2 C 3,2 km/h (1 Bft) 100,00 %
21.10.2018 10:10 9,2 C 11,7 C 10,6 C 79 % 1027,4 hPa 0,0 l/m 2,3 km/h (1 Bft) W 276 0 min 0,000 mm 0,0 UV-I 83 W/m 5,8 C 9,2 C 3,2 km/h (1 Bft) 100,00 %
21.10.2018 10:12 9,2 C 11,7 C 10,6 C 79 % 1027,4 hPa 0,0 l/m 2,9 km/h (1 Bft) W-SW 249 0 min 0,000 mm 0,0 UV-I 83 W/m 5,8 C 9,2 C 4,8 km/h (1 Bft) 100,00 %
21.10.2018 10:14 9,2 C 11,7 C 10,6 C 78 % 1027,3 hPa 0,0 l/m 1,6 km/h (1 Bft) W-SW 249 0 min 0,000 mm 0,0 UV-I 81 W/m 5,6 C 9,2 C 3,2 km/h (1 Bft) 100,00 %
21.10.2018 10:16 9,2 C 11,7 C 10,6 C 78 % 1027,4 hPa 0,0 l/m 4,5 km/h (1 Bft) W-SW 248 0 min 0,000 mm 0,0 UV-I 76 W/m 5,6 C 9,2 C 6,4 km/h (2 Bft) 100,00 %
21.10.2018 10:18 9,2 C 11,7 C 10,6 C 78 % 1027,5 hPa 0,0 l/m 3,1 km/h (1 Bft) W 279 0 min 0,000 mm 0,0 UV-I 72 W/m 5,6 C 9,2 C 4,8 km/h (1 Bft) 100,00 %
21.10.2018 10:20 9,3 C 11,7 C 10,0 C 78 % 1027,4 hPa 0,0 l/m 2,3 km/h (1 Bft) W 274 0 min 0,000 mm 0,0 UV-I 70 W/m 5,7 C 9,3 C 4,8 km/h (1 Bft) 100,00 %
21.10.2018 10:22 9,2 C 11,7 C 10,0 C 79 % 1027,5 hPa 0,0 l/m 4,2 km/h (1 Bft) W-SW 256 0 min 0,000 mm 0,0 UV-I 68 W/m 5,8 C 9,2 C 6,4 km/h (2 Bft) 95,12 %
21.10.2018 10:24 9,2 C 11,7 C 10,0 C 78 % 1027,5 hPa 0,0 l/m 2,5 km/h (1 Bft) W-SW 248 0 min 0,000 mm 0,0 UV-I 67 W/m 5,6 C 9,2 C 4,8 km/h (1 Bft) 98,11 %
21.10.2018 10:26 9,2 C 11,7 C 10,0 C 78 % 1027,5 hPa 0,0 l/m 2,7 km/h (1 Bft) SW 232 0 min 0,000 mm 0,0 UV-I 65 W/m 5,6 C 9,2 C 4,8 km/h (1 Bft) 94,44 %
21.10.2018 10:28 9,2 C 11,7 C 10,0 C 77 % 1027,5 hPa 0,0 l/m 3,5 km/h (1 Bft) W 265 0 min 0,000 mm 0,0 UV-I 65 W/m 5,4 C 9,2 C 4,8 km/h (1 Bft) 96,23 %
21.10.2018 10:30 9,2 C 11,7 C 10,0 C 77 % 1027,5 hPa 0,0 l/m 2,6 km/h (1 Bft) W 265 0 min 0,000 mm 0,0 UV-I 67 W/m 5,4 C 9,2 C 4,8 km/h (1 Bft) 95,74 %
21.10.2018 10:32 9,3 C 11,7 C 10,0 C 77 % 1027,5 hPa 0,0 l/m 1,6 km/h (1 Bft) W 265 0 min 0,000 mm 0,0 UV-I 71 W/m 5,5 C 9,3 C 3,2 km/h (1 Bft) 97,87 %
21.10.2018 10:34 9,3 C 11,7 C 10,0 C 77 % 1027,5 hPa 0,0 l/m 1,6 km/h (1 Bft) W 265 0 min 0,000 mm 0,0 UV-I 77 W/m 5,5 C 9,3 C 3,2 km/h (1 Bft) 92,45 %
21.10.2018 10:36 9,3 C 11,7 C 10,0 C 77 % 1027,5 hPa 0,0 l/m 1,3 km/h (1 Bft) W 265 0 min 0,000 mm 0,0 UV-I 81 W/m 5,5 C 9,3 C 3,2 km/h (1 Bft) 97,87 %
21.10.2018 10:38 9,3 C 11,7 C 10,0 C 77 % 1027,5 hPa 0,0 l/m 2,5 km/h (1 Bft) W 265 0 min 0,000 mm 0,0 UV-I 87 W/m 5,5 C 9,3 C 3,2 km/h (1 Bft) 97,56 %
21.10.2018 10:40 9,3 C 11,7 C 10,6 C 77 % 1027,5 hPa 0,0 l/m 1,5 km/h (1 Bft) W 265 0 min 0,000 mm 0,0 UV-I 94 W/m 5,5 C 9,3 C 3,2 km/h (1 Bft) 98,00 %
21.10.2018 10:42 9,3 C 11,7 C 10,6 C 77 % 1027,6 hPa 0,0 l/m 2,4 km/h (1 Bft) W 265 0 min 0,000 mm 0,0 UV-I 99 W/m 5,5 C 9,3 C 3,2 km/h (1 Bft) 97,56 %
21.10.2018 10:44 9,3 C 11,7 C 10,6 C 78 % 1027,5 hPa 0,0 l/m 2,1 km/h (1 Bft) W 265 0 min 0,000 mm 0,0 UV-I 106 W/m 5,7 C 9,3 C 3,2 km/h (1 Bft) 97,87 %
21.10.2018 10:46 9,4 C 11,7 C 11,1 C 78 % 1027,6 hPa 0,0 l/m 1,8 km/h (1 Bft) W 265 0 min 0,000 mm 0,0 UV-I 113 W/m 5,8 C 9,4 C 3,2 km/h (1 Bft) 100,00 %
21.10.2018 10:48 9,4 C 11,7 C 11,1 C 78 % 1027,6 hPa 0,0 l/m 2,4 km/h (1 Bft) W 265 0 min 0,000 mm 0,5 UV-I 120 W/m 5,8 C 9,4 C 3,2 km/h (1 Bft) 100,00 %
21.10.2018 10:50 9,4 C 11,7 C 11,7 C 79 % 1027,6 hPa 0,0 l/m 0,5 km/h (0 Bft) W 265 0 min 0,000 mm 0,5 UV-I 121 W/m 5,9 C 9,4 C 1,6 km/h (1 Bft) 100,00 %
21.10.2018 10:52 9,5 C 11,7 C 11,7 C 78 % 1027,6 hPa 0,0 l/m 0,9 km/h (0 Bft) W 265 0 min 0,000 mm 0,6 UV-I 121 W/m 5,9 C 9,5 C 3,2 km/h (1 Bft) 100,00 %
21.10.2018 10:54 9,5 C 11,7 C 11,7 C 78 % 1027,8 hPa 0,0 l/m 2,3 km/h (1 Bft) W 279 0 min 0,000 mm 0,6 UV-I 122 W/m 5,9 C 9,5 C 3,2 km/h (1 Bft) 100,00 %
21.10.2018 10:56 9,6 C 11,7 C 11,7 C 80 % 1027,8 hPa 0,0 l/m 2,9 km/h (1 Bft) N 355 0 min 0,000 mm 0,6 UV-I 125 W/m 6,3 C 9,6 C 4,8 km/h (1 Bft) 100,00 %
21.10.2018 10:58 9,7 C 11,7 C 11,7 C 80 % 1027,8 hPa 0,0 l/m 2,1 km/h (1 Bft) N 360 0 min 0,000 mm 0,7 UV-I 137 W/m 6,4 C 9,7 C 3,2 km/h (1 Bft) 100,00 %
21.10.2018 11:00 9,6 C 11,7 C 12,2 C 78 % 1027,8 hPa 0,0 l/m 0,4 km/h (0 Bft) N 360 0 min 0,051 mm 0,8 UV-I 162 W/m 6,0 C 9,6 C 1,6 km/h (1 Bft) 100,00 %
21.10.2018 11:02 9,7 C 11,7 C 12,8 C 79 % 1027,7 hPa 0,0 l/m 1,1 km/h (1 Bft) N 360 0 min 0,000 mm 0,8 UV-I 187 W/m 6,2 C 9,7 C 3,2 km/h (1 Bft) 97,87 %
21.10.2018 11:04 9,7 C 11,7 C 12,8 C 79 % 1027,5 hPa 0,0 l/m 0,7 km/h (0 Bft) N 360 0 min 0,000 mm 0,9 UV-I 210 W/m 6,2 C 9,7 C 1,6 km/h (1 Bft) 98,00 %
21.10.2018 11:06 9,7 C 11,7 C 13,3 C 77 % 1027,6 hPa 0,0 l/m 0,9 km/h (0 Bft) N 355 0 min 0,000 mm 0,9 UV-I 230 W/m 5,9 C 9,7 C 3,2 km/h (1 Bft) 97,37 %
21.10.2018 11:08 9,7 C 11,7 C 13,9 C 76 % 1027,5 hPa 0,0 l/m 3,9 km/h (1 Bft) W-SW 240 2 min 0,000 mm 1,0 UV-I 259 W/m 5,7 C 9,7 C 6,4 km/h (2 Bft) 100,00 %
21.10.2018 11:10 9,8 C 11,7 C 15,6 C 76 % 1027,5 hPa 0,0 l/m 2,8 km/h (1 Bft) W-SW 241 2 min 0,000 mm 1,1 UV-I 373 W/m 5,8 C 9,8 C 4,8 km/h (1 Bft) 100,00 %
21.10.2018 11:12 10,0 C 11,7 C 18,3 C 76 % 1027,5 hPa 0,0 l/m 2,5 km/h (1 Bft) W 271 2 min 0,000 mm 1,3 UV-I 580 W/m 6,0 C 10,0 C 4,8 km/h (1 Bft) 96,23 %
21.10.2018 11:14 10,2 C 11,7 C 20,0 C 76 % 1027,4 hPa 0,0 l/m 2,3 km/h (1 Bft) W 271 2 min 0,000 mm 1,2 UV-I 549 W/m 6,2 C 10,2 C 4,8 km/h (1 Bft) 100,00 %
21.10.2018 11:16 10,4 C 11,7 C 18,9 C 75 % 1027,4 hPa 0,0 l/m 4,4 km/h (1 Bft) W 274 2 min 0,000 mm 1,1 UV-I 346 W/m 6,2 C 10,4 C 9,7 km/h (2 Bft) 100,00 %
21.10.2018 11:18 10,4 C 11,7 C 20,6 C 73 % 1027,4 hPa 0,0 l/m 5,0 km/h (1 Bft) W-NW 293 2 min 0,000 mm 1,3 UV-I 341 W/m 5,8 C 10,4 C 9,7 km/h (2 Bft) 100,00 %
21.10.2018 11:20 10,5 C 11,7 C 21,1 C 73 % 1027,4 hPa 0,0 l/m 4,7 km/h (1 Bft) NW 319 2 min 0,000 mm 1,3 UV-I 562 W/m 5,9 C 10,5 C 8,0 km/h (2 Bft) 96,43 %
21.10.2018 11:22 10,7 C 11,7 C 22,2 C 72 % 1027,4 hPa 0,0 l/m 3,9 km/h (1 Bft) W 277 2 min 0,000 mm 1,3 UV-I 487 W/m 5,9 C 10,7 C 9,7 km/h (2 Bft) 97,56 %
21.10.2018 11:24 10,9 C 11,7 C 22,2 C 70 % 1027,4 hPa 0,0 l/m 4,3 km/h (1 Bft) N-NW 348 2 min 0,000 mm 1,4 UV-I 497 W/m 5,6 C 10,9 C 6,4 km/h (2 Bft) 98,00 %
21.10.2018 11:26 10,9 C 11,7 C 22,8 C 69 % 1027,4 hPa 0,0 l/m 3,9 km/h (1 Bft) NW 306 2 min 0,000 mm 1,4 UV-I 528 W/m 5,4 C 10,9 C 6,4 km/h (2 Bft) 97,56 %
21.10.2018 11:28 11,1 C 11,7 C 23,3 C 68 % 1027,4 hPa 0,0 l/m 4,1 km/h (1 Bft) NW 315 2 min 0,000 mm 1,4 UV-I 537 W/m 5,4 C 11,1 C 6,4 km/h (2 Bft) 97,87 %
21.10.2018 11:30 11,2 C 11,7 C 23,3 C 70 % 1027,4 hPa 0,0 l/m 4,3 km/h (1 Bft) NW 317 2 min 0,000 mm 1,4 UV-I 531 W/m 5,9 C 11,2 C 6,4 km/h (2 Bft) 94,00 %
21.10.2018 11:32 11,3 C 11,7 C 23,9 C 71 % 1027,4 hPa 0,0 l/m 3,4 km/h (1 Bft) W-NW 293 2 min 0,000 mm 1,4 UV-I 528 W/m 6,2 C 11,3 C 8,0 km/h (2 Bft) 97,87 %
21.10.2018 11:34 11,4 C 11,7 C 23,9 C 68 % 1027,5 hPa 0,0 l/m 3,7 km/h (1 Bft) N 355 2 min 0,000 mm 1,4 UV-I 521 W/m 5,7 C 11,4 C 6,4 km/h (2 Bft) 98,04 %
21.10.2018 11:36 11,5 C 11,7 C 23,3 C 69 % 1027,5 hPa 0,0 l/m 3,6 km/h (1 Bft) N 5 2 min 0,000 mm 1,3 UV-I 516 W/m 6,0 C 11,5 C 6,4 km/h (2 Bft) 93,62 %
21.10.2018 11:38 11,5 C 11,7 C 22,2 C 70 % 1027,5 hPa 0,0 l/m 5,3 km/h (1 Bft) N 11 2 min 0,000 mm 1,2 UV-I 478 W/m 6,2 C 11,5 C 6,4 km/h (2 Bft) 97,37 %
21.10.2018 11:40 11,3 C 11,7 C 18,9 C 69 % 1027,5 hPa 0,0 l/m 4,2 km/h (1 Bft) N 9 0 min 0,000 mm 1,1 UV-I 134 W/m 5,8 C 11,3 C 6,4 km/h (2 Bft) 97,87 %
21.10.2018 11:42 11,0 C 11,7 C 16,7 C 69 % 1027,5 hPa 0,0 l/m 1,8 km/h (1 Bft) N 5 0 min 0,000 mm 1,1 UV-I 128 W/m 5,5 C 11,0 C 3,2 km/h (1 Bft) 96,00 %
21.10.2018 11:44 10,8 C 11,7 C 15,6 C 70 % 1027,5 hPa 0,0 l/m 1,9 km/h (1 Bft) W 263 0 min 0,000 mm 1,1 UV-I 119 W/m 5,6 C 10,8 C 4,8 km/h (1 Bft) 96,23 %
21.10.2018 11:46 10,7 C 11,7 C 15,0 C 70 % 1027,5 hPa 0,0 l/m 2,1 km/h (1 Bft) N-NW 332 0 min 0,000 mm 1,2 UV-I 141 W/m 5,5 C 10,7 C 6,4 km/h (2 Bft) 97,87 %
21.10.2018 11:48 10,8 C 11,7 C 16,7 C 72 % 1027,5 hPa 0,0 l/m 3,4 km/h (1 Bft) N 9 2 min 0,000 mm 1,4 UV-I 400 W/m 6,0 C 10,8 C 4,8 km/h (1 Bft) 94,74 %
21.10.2018 11:50 10,9 C 11,7 C 18,3 C 70 % 1027,5 hPa 0,0 l/m 4,5 km/h (1 Bft) NW 318 2 min 0,000 mm 1,4 UV-I 496 W/m 5,6 C 10,9 C 6,4 km/h (2 Bft) 98,11 %
21.10.2018 11:52 11,2 C 11,7 C 19,4 C 70 % 1027,5 hPa 0,0 l/m 4,6 km/h (1 Bft) N 5 2 min 0,000 mm 1,4 UV-I 466 W/m 5,9 C 11,2 C 6,4 km/h (2 Bft) 97,73 %
21.10.2018 11:54 11,1 C 11,7 C 17,8 C 69 % 1027,6 hPa 0,0 l/m 4,5 km/h (1 Bft) NW 315 0 min 0,000 mm 1,2 UV-I 238 W/m 5,6 C 11,1 C 6,4 km/h (2 Bft) 97,37 %
21.10.2018 11:56 11,1 C 11,7 C 18,3 C 69 % 1027,6 hPa 0,0 l/m 3,9 km/h (1 Bft) N-NW 344 0 min 0,000 mm 1,5 UV-I 234 W/m 5,6 C 11,1 C 6,4 km/h (2 Bft) 97,87 %
21.10.2018 11:58 11,2 C 11,7 C 20,6 C 70 % 1027,5 hPa 0,0 l/m 0,3 km/h (0 Bft) N-NW 345 2 min 0,000 mm 1,5 UV-I 554 W/m 5,9 C 11,2 C 1,6 km/h (1 Bft) 98,00 %
21.10.2018 12:00 11,5 C 11,7 C 21,7 C 70 % 1027,5 hPa 0,0 l/m 3,6 km/h (1 Bft) NW 313 2 min 0,203 mm 1,6 UV-I 585 W/m 6,2 C 11,5 C 6,4 km/h (2 Bft) 97,87 %
21.10.2018 12:02 11,7 C 11,7 C 22,8 C 67 % 1027,5 hPa 0,0 l/m 5,7 km/h (1 Bft) W-SW 247 2 min 0,000 mm 1,6 UV-I 610 W/m 5,8 C 11,7 C 11,3 km/h (2 Bft) 96,23 %
21.10.2018 12:04 11,7 C 11,7 C 23,3 C 66 % 1027,5 hPa 0,0 l/m 3,6 km/h (1 Bft) W-SW 252 2 min 0,000 mm 1,6 UV-I 633 W/m 5,6 C 11,7 C 8,0 km/h (2 Bft) 97,78 %
21.10.2018 12:06 11,8 C 11,7 C 23,3 C 65 % 1027,5 hPa 0,0 l/m 5,7 km/h (1 Bft) W-SW 249 2 min 0,000 mm 1,6 UV-I 646 W/m 5,4 C 11,8 C 11,3 km/h (2 Bft) 100,00 %
21.10.2018 12:08 11,8 C 11,7 C 23,3 C 64 % 1027,5 hPa 0,0 l/m 4,5 km/h (1 Bft) NW 321 2 min 0,000 mm 1,6 UV-I 652 W/m 5,2 C 11,8 C 6,4 km/h (2 Bft) 97,87 %
21.10.2018 12:10 11,9 C 11,7 C 23,3 C 63 % 1027,5 hPa 0,0 l/m 2,2 km/h (1 Bft) W-SW 244 2 min 0,000 mm 1,6 UV-I 662 W/m 5,1 C 11,9 C 4,8 km/h (1 Bft) 100,00 %
21.10.2018 12:12 12,1 C 11,7 C 24,4 C 63 % 1027,4 hPa 0,0 l/m 4,4 km/h (1 Bft) S-SW 207 2 min 0,000 mm 1,6 UV-I 674 W/m 5,3 C 12,1 C 6,4 km/h (2 Bft) 100,00 %
21.10.2018 12:14 12,2 C 11,7 C 25,0 C 62 % 1027,4 hPa 0,0 l/m 4,0 km/h (1 Bft) W-SW 238 2 min 0,000 mm 1,6 UV-I 672 W/m 5,1 C 12,2 C 8,0 km/h (2 Bft) 98,00 %
21.10.2018 12:16 12,3 C 11,7 C 25,6 C 62 % 1027,4 hPa 0,0 l/m 4,2 km/h (1 Bft) W-NW 297 2 min 0,000 mm 1,6 UV-I 654 W/m 5,2 C 12,3 C 6,4 km/h (2 Bft) 100,00 %
21.10.2018 12:18 12,4 C 11,7 C 25,6 C 64 % 1027,4 hPa 0,0 l/m 3,9 km/h (1 Bft) N-NW 344 2 min 0,000 mm 1,7 UV-I 637 W/m 5,8 C 12,4 C 12,9 km/h (3 Bft) 100,00 %
21.10.2018 12:20 12,6 C 11,7 C 23,3 C 62 % 1027,4 hPa 0,0 l/m 9,7 km/h (2 Bft) N-NO 19 2 min 0,000 mm 1,6 UV-I 638 W/m 5,5 C 10,6 C 16,1 km/h (3 Bft) 100,00 %
21.10.2018 12:22 12,6 C 11,7 C 20,6 C 62 % 1027,4 hPa 0,0 l/m 9,6 km/h (2 Bft) N-NO 22 2 min 0,000 mm 1,3 UV-I 370 W/m 5,5 C 10,7 C 12,9 km/h (3 Bft) 100,00 %
21.10.2018 12:24 12,3 C 11,7 C 18,9 C 61 % 1027,3 hPa 0,0 l/m 10,7 km/h (2 Bft) N 349 0 min 0,000 mm 1,5 UV-I 268 W/m 5,0 C 9,8 C 14,5 km/h (3 Bft) 96,15 %
21.10.2018 12:26 12,2 C 11,7 C 20,0 C 60 % 1027,4 hPa 0,0 l/m 3,6 km/h (1 Bft) N 355 0 min 0,000 mm 1,5 UV-I 269 W/m 4,7 C 12,2 C 8,0 km/h (2 Bft) 100,00 %
21.10.2018 12:28 12,3 C 11,7 C 20,0 C 65 % 1027,3 hPa 0,0 l/m 5,6 km/h (1 Bft) NO 40 0 min 0,000 mm 1,4 UV-I 269 W/m 5,9 C 12,3 C 8,0 km/h (2 Bft) 100,00 %
21.10.2018 12:30 12,4 C 11,7 C 20,6 C 65 % 1027,3 hPa 0,0 l/m 5,8 km/h (2 Bft) N-NO 31 2 min 0,000 mm 1,5 UV-I 558 W/m 6,0 C 12,4 C 8,0 km/h (2 Bft) 100,00 %
21.10.2018 12:32 12,3 C 11,7 C 18,9 C 62 % 1027,3 hPa 0,0 l/m 4,3 km/h (1 Bft) N-NO 22 2 min 0,000 mm 1,3 UV-I 350 W/m 5,2 C 12,3 C 6,4 km/h (2 Bft) 98,11 %
21.10.2018 12:34 12,3 C 11,7 C 18,9 C 64 % 1027,2 hPa 0,0 l/m 7,6 km/h (2 Bft) N-NO 13 0 min 0,000 mm 1,5 UV-I 214 W/m 5,7 C 11,5 C 12,9 km/h (3 Bft) 100,00 %
21.10.2018 12:36 12,1 C 11,7 C 17,8 C 62 % 1027,3 hPa 0,0 l/m 5,6 km/h (1 Bft) N 11 0 min 0,000 mm 1,3 UV-I 246 W/m 5,0 C 12,1 C 11,3 km/h (2 Bft) 100,00 %
21.10.2018 12:38 12,0 C 11,7 C 17,8 C 63 % 1027,2 hPa 0,0 l/m 3,7 km/h (1 Bft) NO 41 2 min 0,000 mm 1,4 UV-I 320 W/m 5,2 C 12,0 C 6,4 km/h (2 Bft) 100,00 %
21.10.2018 12:40 12,2 C 11,7 C 18,9 C 66 % 1027,2 hPa 0,0 l/m 4,3 km/h (1 Bft) N-NO 26 2 min 0,000 mm 1,6 UV-I 380 W/m 6,0 C 12,2 C 6,4 km/h (2 Bft) 100,00 %
21.10.2018 12:42 12,4 C 11,7 C 19,4 C 65 % 1027,2 hPa 0,0 l/m 5,5 km/h (1 Bft) N-NO 22 2 min 0,000 mm 1,6 UV-I 385 W/m 6,0 C 12,4 C 8,0 km/h (2 Bft) 98,00 %
21.10.2018 12:44 12,5 C 11,7 C 18,9 C 61 % 1027,2 hPa 0,0 l/m 4,6 km/h (1 Bft) NO 47 2 min 0,000 mm 1,5 UV-I 452 W/m 5,2 C 12,5 C 8,0 km/h (2 Bft) 98,00 %
21.10.2018 12:46 12,4 C 11,7 C 18,9 C 61 % 1027,1 hPa 0,0 l/m 7,0 km/h (2 Bft) O-NO 60 2 min 0,000 mm 1,4 UV-I 420 W/m 5,1 C 12,0 C 12,9 km/h (3 Bft) 100,00 %
21.10.2018 12:48 12,4 C 11,7 C 18,9 C 60 % 1027,2 hPa 0,0 l/m 4,1 km/h (1 Bft) NO 47 2 min 0,000 mm 1,4 UV-I 484 W/m 4,9 C 12,4 C 8,0 km/h (2 Bft) 100,00 %
21.10.2018 12:50 12,3 C 11,7 C 19,4 C 60 % 1027,2 hPa 0,0 l/m 2,6 km/h (1 Bft) O-NO 73 2 min 0,000 mm 1,5 UV-I 566 W/m 4,8 C 12,3 C 3,2 km/h (1 Bft) 100,00 %
21.10.2018 12:52 12,3 C 11,7 C 20,6 C 59 % 1027,1 hPa 0,0 l/m 4,4 km/h (1 Bft) SO 127 2 min 0,000 mm 1,4 UV-I 667 W/m 4,5 C 12,3 C 6,4 km/h (2 Bft) 100,00 %
21.10.2018 12:54 12,4 C 11,7 C 20,6 C 59 % 1027,2 hPa 0,0 l/m 3,9 km/h (1 Bft) SO 130 2 min 0,000 mm 1,1 UV-I 599 W/m 4,6 C 12,4 C 6,4 km/h (2 Bft) 98,18 %
21.10.2018 12:56 12,3 C 11,7 C 19,4 C 59 % 1027,1 hPa 0,0 l/m 2,7 km/h (1 Bft) O-SO 123 2 min 0,000 mm 0,7 UV-I 336 W/m 4,5 C 12,3 C 4,8 km/h (1 Bft) 98,00 %
21.10.2018 12:58 12,3 C 11,7 C 17,8 C 59 % 1027,2 hPa 0,0 l/m 5,0 km/h (1 Bft) O 91 0 min 0,000 mm 0,6 UV-I 158 W/m 4,5 C 12,3 C 8,0 km/h (2 Bft) 94,74 %
21.10.2018 13:00 12,1 C 11,7 C 16,1 C 59 % 1027,1 hPa 0,0 l/m 4,0 km/h (1 Bft) O 95 0 min 0,254 mm 0,6 UV-I 144 W/m 4,3 C 12,1 C 6,4 km/h (2 Bft) 97,87 %
21.10.2018 13:02 12,0 C 11,7 C 15,6 C 60 % 1027,1 hPa 0,0 l/m 3,8 km/h (1 Bft) O-NO 59 0 min 0,000 mm 0,5 UV-I 136 W/m 4,5 C 12,0 C 6,4 km/h (2 Bft) 93,62 %
21.10.2018 13:04 11,8 C 11,7 C 15,0 C 59 % 1027,1 hPa 0,0 l/m 0,7 km/h (0 Bft) O-NO 59 0 min 0,000 mm 0,5 UV-I 130 W/m 4,1 C 11,8 C 3,2 km/h (1 Bft) 94,00 %
21.10.2018 13:06 11,7 C 11,7 C 14,4 C 62 % 1027,1 hPa 0,0 l/m 4,3 km/h (1 Bft) NO 40 0 min 0,000 mm 0,5 UV-I 129 W/m 4,7 C 11,7 C 6,4 km/h (2 Bft) 96,00 %
21.10.2018 13:08 11,6 C 11,7 C 13,9 C 61 % 1027,1 hPa 0,0 l/m 2,9 km/h (1 Bft) O-SO 105 0 min 0,000 mm 0,6 UV-I 136 W/m 4,3 C 11,6 C 4,8 km/h (1 Bft) 95,83 %
21.10.2018 13:10 11,6 C 11,7 C 13,9 C 61 % 1027,1 hPa 0,0 l/m 2,2 km/h (1 Bft) O-SO 105 0 min 0,000 mm 0,6 UV-I 149 W/m 4,3 C 11,6 C 4,8 km/h (1 Bft) 95,12 %
21.10.2018 13:12 11,6 C 11,7 C 13,9 C 62 % 1027,1 hPa 0,0 l/m 2,5 km/h (1 Bft) S-SW 202 0 min 0,000 mm 0,7 UV-I 163 W/m 4,6 C 11,6 C 4,8 km/h (1 Bft) 95,74 %
21.10.2018 13:14 11,5 C 11,7 C 13,9 C 62 % 1027,1 hPa 0,0 l/m 2,8 km/h (1 Bft) NW 318 0 min 0,000 mm 0,7 UV-I 157 W/m 4,5 C 11,5 C 6,4 km/h (2 Bft) 96,23 %
21.10.2018 13:16 11,5 C 11,7 C 13,9 C 64 % 1027,1 hPa 0,0 l/m 3,1 km/h (1 Bft) N 351 0 min 0,000 mm 0,6 UV-I 142 W/m 4,9 C 11,5 C 4,8 km/h (1 Bft) 94,74 %
21.10.2018 13:18 11,5 C 11,7 C 13,3 C 64 % 1027,1 hPa 0,0 l/m 2,3 km/h (1 Bft) N 355 0 min 0,000 mm 0,6 UV-I 130 W/m 4,9 C 11,5 C 4,8 km/h (1 Bft) 95,74 %
21.10.2018 13:20 11,5 C 11,7 C 13,3 C 64 % 1027,1 hPa 0,0 l/m 7,6 km/h (2 Bft) N-NO 20 0 min 0,000 mm 0,6 UV-I 128 W/m 4,9 C 10,7 C 12,9 km/h (3 Bft) 97,87 %
21.10.2018 13:22 11,4 C 11,7 C 12,8 C 63 % 1027,1 hPa 0,0 l/m 6,4 km/h (2 Bft) N-NO 20 0 min 0,000 mm 0,6 UV-I 130 W/m 4,6 C 11,4 C 8,0 km/h (2 Bft) 95,74 %
21.10.2018 13:24 11,3 C 11,7 C 12,8 C 64 % 1027,1 hPa 0,0 l/m 3,5 km/h (1 Bft) N-NW 348 0 min 0,000 mm 0,6 UV-I 131 W/m 4,7 C 11,3 C 6,4 km/h (2 Bft) 95,74 %
21.10.2018 13:26 11,3 C 11,7 C 12,8 C 65 % 1027,1 hPa 0,0 l/m 3,5 km/h (1 Bft) W-NW 300 0 min 0,000 mm 0,6 UV-I 132 W/m 5,0 C 11,3 C 4,8 km/h (1 Bft) 100,00 %
21.10.2018 13:28 11,3 C 11,7 C 12,8 C 63 % 1027,1 hPa 0,0 l/m 3,6 km/h (1 Bft) W-NW 302 0 min 0,000 mm 0,6 UV-I 133 W/m 4,5 C 11,3 C 4,8 km/h (1 Bft) 100,00 %
21.10.2018 13:30 11,3 C 11,7 C 12,8 C 64 % 1027,1 hPa 0,0 l/m 3,7 km/h (1 Bft) N-NW 330 0 min 0,000 mm 0,6 UV-I 138 W/m 4,7 C 11,3 C 4,8 km/h (1 Bft) 97,37 %
21.10.2018 13:32 11,3 C 11,7 C 13,3 C 63 % 1027,1 hPa 0,0 l/m 3,3 km/h (1 Bft) N-NW 331 0 min 0,000 mm 0,6 UV-I 140 W/m 4,5 C 11,3 C 4,8 km/h (1 Bft) 100,00 %
21.10.2018 13:34 11,4 C 11,7 C 13,3 C 63 % 1027,1 hPa 0,0 l/m 2,5 km/h (1 Bft) N-NW 332 0 min 0,000 mm 0,6 UV-I 140 W/m 4,6 C 11,4 C 4,8 km/h (1 Bft) 100,00 %
21.10.2018 13:36 11,4 C 11,7 C 13,3 C 63 % 1027,1 hPa 0,0 l/m 2,6 km/h (1 Bft) N-NW 333 0 min 0,000 mm 0,6 UV-I 144 W/m 4,6 C 11,4 C 4,8 km/h (1 Bft) 100,00 %
21.10.2018 13:38 11,3 C 11,7 C 13,3 C 63 % 1027,0 hPa 0,0 l/m 3,3 km/h (1 Bft) W 264 0 min 0,000 mm 0,7 UV-I 153 W/m 4,5 C 11,3 C 4,8 km/h (1 Bft) 100,00 %
21.10.2018 13:40 11,3 C 11,7 C 13,3 C 63 % 1027,1 hPa 0,0 l/m 3,0 km/h (1 Bft) W 278 0 min 0,000 mm 0,7 UV-I 167 W/m 4,5 C 11,3 C 6,4 km/h (2 Bft) 100,00 %
21.10.2018 13:42 11,2 C 11,7 C 13,9 C 62 % 1027,0 hPa 0,0 l/m 2,4 km/h (1 Bft) W 281 0 min 0,000 mm 0,8 UV-I 180 W/m 4,2 C 11,2 C 4,8 km/h (1 Bft) 100,00 %
21.10.2018 13:44 11,3 C 11,7 C 13,9 C 64 % 1027,0 hPa 0,0 l/m 2,5 km/h (1 Bft) N-NW 333 0 min 0,000 mm 0,9 UV-I 195 W/m 4,7 C 11,3 C 4,8 km/h (1 Bft) 100,00 %
21.10.2018 13:46 11,3 C 11,7 C 14,4 C 64 % 1027,0 hPa 0,0 l/m 2,5 km/h (1 Bft) N-NO 32 0 min 0,000 mm 1,0 UV-I 213 W/m 4,7 C 11,3 C 3,2 km/h (1 Bft) 98,21 %
21.10.2018 13:48 11,5 C 11,7 C 14,4 C 64 % 1027,0 hPa 0,0 l/m 1,4 km/h (1 Bft) N-NO 32 0 min 0,000 mm 1,0 UV-I 215 W/m 4,9 C 11,5 C 3,2 km/h (1 Bft) 100,00 %
21.10.2018 13:50 11,5 C 11,7 C 15,0 C 63 % 1027,0 hPa 0,0 l/m 3,3 km/h (1 Bft) W-SW 248 0 min 0,000 mm 1,0 UV-I 216 W/m 4,7 C 11,5 C 4,8 km/h (1 Bft) 100,00 %
21.10.2018 13:52 11,5 C 11,7 C 15,0 C 64 % 1026,9 hPa 0,0 l/m 2,5 km/h (1 Bft) W-NW 296 0 min 0,000 mm 1,0 UV-I 236 W/m 4,9 C 11,5 C 4,8 km/h (1 Bft) 100,00 %
21.10.2018 13:54 11,5 C 11,7 C 15,0 C 63 % 1026,8 hPa 0,0 l/m 2,5 km/h (1 Bft) W-NW 290 0 min 0,000 mm 1,0 UV-I 230 W/m 4,7 C 11,5 C 3,2 km/h (1 Bft) 96,00 %
21.10.2018 13:56 11,5 C 11,7 C 15,0 C 63 % 1026,9 hPa 0,0 l/m 2,5 km/h (1 Bft) W-NW 291 0 min 0,000 mm 0,9 UV-I 227 W/m 4,7 C 11,5 C 4,8 km/h (1 Bft) 100,00 %
21.10.2018 13:59 11,5 C 11,7 C 15,0 C 62 % 1026,9 hPa 0,0 l/m 2,6 km/h (1 Bft) W-NW 285 0 min 0,000 mm 0,8 UV-I 205 W/m 4,5 C 11,5 C 4,8 km/h (1 Bft) 100,00 %
21.10.2018 14:00 11,5 C 11,7 C 15,0 C 63 % 1026,9 hPa 0,0 l/m 1,6 km/h (1 Bft) W-NW 285 0 min 0,101 mm 0,8 UV-I 201 W/m 4,7 C 11,5 C 3,2 km/h (1 Bft) 97,72 %
21.10.2018 14:02 11,5 C 11,7 C 15,0 C 62 % 1026,9 hPa 0,0 l/m 3,2 km/h (1 Bft) W 279 0 min 0,000 mm 0,9 UV-I 206 W/m 4,5 C 11,5 C 4,8 km/h (1 Bft) 100,00 %
21.10.2018 14:04 11,6 C 11,7 C 15,0 C 64 % 1026,9 hPa 0,0 l/m 2,2 km/h (1 Bft) W-NW 286 0 min 0,000 mm 0,9 UV-I 211 W/m 5,0 C 11,6 C 4,8 km/h (1 Bft) 100,00 %
21.10.2018 14:06 11,6 C 11,7 C 15,0 C 64 % 1026,9 hPa 0,0 l/m 3,6 km/h (1 Bft) W-SW 244 0 min 0,000 mm 0,9 UV-I 208 W/m 5,0 C 11,6 C 4,8 km/h (1 Bft) 100,00 %
21.10.2018 14:08 11,7 C 11,7 C 14,4 C 62 % 1027,0 hPa 0,0 l/m 3,3 km/h (1 Bft) W-NW 300 0 min 0,000 mm 0,9 UV-I 197 W/m 4,7 C 11,7 C 4,8 km/h (1 Bft) 97,92 %
21.10.2018 14:10 11,6 C 11,7 C 14,4 C 61 % 1027,0 hPa 0,0 l/m 1,6 km/h (1 Bft) W-NW 300 0 min 0,000 mm 0,9 UV-I 189 W/m 4,3 C 11,6 C 3,2 km/h (1 Bft) 97,73 %
21.10.2018 14:12 11,5 C 11,7 C 14,4 C 61 % 1027,0 hPa 0,0 l/m 0,8 km/h (0 Bft) W-NW 300 0 min 0,000 mm 0,9 UV-I 196 W/m 4,2 C 11,5 C 3,2 km/h (1 Bft) 95,74 %
21.10.2018 14:14 11,5 C 11,7 C 15,0 C 63 % 1027,0 hPa 0,0 l/m 0,8 km/h (0 Bft) W-NW 300 0 min 0,000 mm 1,0 UV-I 226 W/m 4,7 C 11,5 C 3,2 km/h (1 Bft) 94,00 %
21.10.2018 14:16 11,5 C 11,7 C 15,0 C 63 % 1027,0 hPa 0,0 l/m 1,2 km/h (1 Bft) W-NW 300 0 min 0,000 mm 1,0 UV-I 257 W/m 4,7 C 11,5 C 3,2 km/h (1 Bft) 97,56 %
21.10.2018 14:18 11,7 C 11,7 C 15,6 C 62 % 1027,0 hPa 0,0 l/m 1,5 km/h (1 Bft) W-NW 300 2 min 0,000 mm 1,2 UV-I 264 W/m 4,7 C 11,7 C 3,2 km/h (1 Bft) 96,23 %
21.10.2018 14:20 11,9 C 11,7 C 16,1 C 63 % 1027,0 hPa 0,0 l/m 1,7 km/h (1 Bft) NW 315 2 min 0,000 mm 1,1 UV-I 264 W/m 5,1 C 11,9 C 3,2 km/h (1 Bft) 97,56 %
21.10.2018 14:22 12,0 C 11,7 C 15,6 C 62 % 1027,0 hPa 0,0 l/m 2,2 km/h (1 Bft) NW 317 2 min 0,000 mm 0,9 UV-I 257 W/m 4,9 C 12,0 C 4,8 km/h (1 Bft) 100,00 %
21.10.2018 14:24 12,1 C 11,7 C 15,6 C 63 % 1027,0 hPa 0,0 l/m 2,4 km/h (1 Bft) N-NO 24 0 min 0,000 mm 0,8 UV-I 231 W/m 5,3 C 12,1 C 4,8 km/h (1 Bft) 94,74 %
21.10.2018 14:26 12,0 C 11,7 C 15,6 C 60 % 1027,0 hPa 0,0 l/m 3,5 km/h (1 Bft) W 277 0 min 0,000 mm 0,7 UV-I 201 W/m 4,5 C 12,0 C 4,8 km/h (1 Bft) 96,00 %
21.10.2018 14:28 11,9 C 11,7 C 15,6 C 61 % 1027,0 hPa 0,0 l/m 1,3 km/h (1 Bft) W 279 0 min 0,000 mm 0,7 UV-I 194 W/m 4,6 C 11,9 C 3,2 km/h (1 Bft) 94,74 %
21.10.2018 14:30 11,9 C 11,7 C 15,6 C 63 % 1027,0 hPa 0,0 l/m 2,8 km/h (1 Bft) W-NW 298 0 min 0,000 mm 0,7 UV-I 190 W/m 5,1 C 11,9 C 4,8 km/h (1 Bft) 94,64 %
21.10.2018 14:32 11,9 C 11,7 C 15,0 C 63 % 1027,0 hPa 0,0 l/m 3,6 km/h (1 Bft) NW 317 0 min 0,000 mm 0,6 UV-I 182 W/m 5,1 C 11,9 C 6,4 km/h (2 Bft) 96,00 %
21.10.2018 14:34 11,9 C 11,7 C 15,0 C 61 % 1026,9 hPa 0,0 l/m 3,0 km/h (1 Bft) N-NO 31 0 min 0,000 mm 0,6 UV-I 176 W/m 4,6 C 11,9 C 6,4 km/h (2 Bft) 95,12 %
21.10.2018 14:36 12,0 C 11,7 C 14,4 C 63 % 1026,9 hPa 0,0 l/m 6,7 km/h (2 Bft) N-NO 24 0 min 0,000 mm 0,6 UV-I 167 W/m 5,2 C 11,8 C 11,3 km/h (2 Bft) 95,83 %
21.10.2018 14:38 12,0 C 11,7 C 14,4 C 63 % 1026,9 hPa 0,0 l/m 6,2 km/h (2 Bft) N-NO 26 0 min 0,000 mm 0,5 UV-I 154 W/m 5,2 C 12,0 C 9,7 km/h (2 Bft) 94,00 %
21.10.2018 14:40 12,1 C 11,7 C 13,9 C 62 % 1026,9 hPa 0,0 l/m 6,9 km/h (2 Bft) N 11 0 min 0,000 mm 0,5 UV-I 143 W/m 5,0 C 11,8 C 9,7 km/h (2 Bft) 92,00 %
21.10.2018 14:42 12,0 C 11,7 C 13,9 C 61 % 1026,9 hPa 0,0 l/m 5,4 km/h (1 Bft) N 11 0 min 0,000 mm 0,5 UV-I 139 W/m 4,7 C 12,0 C 6,4 km/h (2 Bft) 94,74 %
21.10.2018 14:44 11,9 C 11,7 C 13,9 C 60 % 1026,8 hPa 0,0 l/m 2,9 km/h (1 Bft) N-NO 12 0 min 0,000 mm 0,5 UV-I 139 W/m 4,4 C 11,9 C 4,8 km/h (1 Bft) 92,45 %
21.10.2018 14:46 11,8 C 11,7 C 13,3 C 61 % 1026,9 hPa 0,0 l/m 3,1 km/h (1 Bft) N-NO 14 0 min 0,000 mm 0,0 UV-I 135 W/m 4,5 C 11,8 C 4,8 km/h (1 Bft) 95,12 %
21.10.2018 14:49 11,8 C 11,7 C 13,3 C 62 % 1026,8 hPa 0,0 l/m 5,9 km/h (2 Bft) NO 38 0 min 0,000 mm 0,0 UV-I 127 W/m 4,8 C 11,8 C 9,7 km/h (2 Bft) 92,86 %
21.10.2018 14:50 11,8 C 11,7 C 13,3 C 63 % 1026,8 hPa 0,0 l/m 7,7 km/h (2 Bft) NO 39 0 min 0,000 mm 0,0 UV-I 130 W/m 5,0 C 10,9 C 8,0 km/h (2 Bft) 93,33 %
21.10.2018 14:52 11,8 C 11,7 C 12,8 C 63 % 1026,8 hPa 0,0 l/m 7,4 km/h (2 Bft) NO 35 0 min 0,000 mm 0,0 UV-I 130 W/m 5,0 C 11,1 C 11,3 km/h (2 Bft) 95,45 %
21.10.2018 14:54 11,8 C 11,7 C 12,8 C 64 % 1026,8 hPa 0,0 l/m 7,3 km/h (2 Bft) NO 43 0 min 0,000 mm 0,0 UV-I 123 W/m 5,2 C 11,2 C 11,3 km/h (2 Bft) 93,62 %
21.10.2018 14:56 11,7 C 11,7 C 12,2 C 63 % 1026,8 hPa 0,0 l/m 6,3 km/h (2 Bft) N 5 0 min 0,000 mm 0,4 UV-I 115 W/m 4,9 C 11,7 C 8,0 km/h (2 Bft) 94,00 %
21.10.2018 14:58 11,7 C 11,7 C 12,2 C 65 % 1026,7 hPa 0,0 l/m 3,4 km/h (1 Bft) N-NO 17 0 min 0,000 mm 0,5 UV-I 111 W/m 5,3 C 11,7 C 4,8 km/h (1 Bft) 94,74 %
21.10.2018 15:00 11,7 C 11,7 C 12,2 C 64 % 1026,7 hPa 0,0 l/m 3,2 km/h (1 Bft) N-NO 23 0 min 0,102 mm 0,6 UV-I 118 W/m 5,1 C 11,7 C 4,8 km/h (1 Bft) 95,74 %
21.10.2018 15:02 11,6 C 11,7 C 12,2 C 63 % 1026,7 hPa 0,0 l/m 2,5 km/h (1 Bft) N-NO 23 0 min 0,000 mm 0,6 UV-I 127 W/m 4,8 C 11,6 C 4,8 km/h (1 Bft) 95,74 %
21.10.2018 15:04 11,6 C 11,7 C 12,2 C 63 % 1026,7 hPa 0,0 l/m 2,8 km/h (1 Bft) N-NO 28 0 min 0,000 mm 0,7 UV-I 139 W/m 4,8 C 11,6 C 4,8 km/h (1 Bft) 92,45 %
21.10.2018 15:06 11,6 C 11,7 C 12,8 C 64 % 1026,7 hPa 0,0 l/m 2,9 km/h (1 Bft) N-NO 30 0 min 0,000 mm 0,7 UV-I 155 W/m 5,0 C 11,6 C 4,8 km/h (1 Bft) 95,83 %
21.10.2018 15:08 11,7 C 11,7 C 12,8 C 65 % 1026,6 hPa 0,0 l/m 2,1 km/h (1 Bft) N-NO 30 0 min 0,000 mm 0,7 UV-I 155 W/m 5,3 C 11,7 C 3,2 km/h (1 Bft) 94,00 %
21.10.2018 15:10 11,7 C 11,7 C 12,8 C 64 % 1026,6 hPa 0,0 l/m 2,4 km/h (1 Bft) NO 34 0 min 0,000 mm 0,7 UV-I 142 W/m 5,1 C 11,7 C 4,8 km/h (1 Bft) 93,62 %
21.10.2018 15:12 11,7 C 11,7 C 12,8 C 64 % 1026,6 hPa 0,0 l/m 2,7 km/h (1 Bft) NO 34 0 min 0,000 mm 0,7 UV-I 132 W/m 5,1 C 11,7 C 4,8 km/h (1 Bft) 94,74 %
21.10.2018 15:14 11,7 C 11,7 C 12,8 C 65 % 1026,6 hPa 0,0 l/m 4,2 km/h (1 Bft) O-NO 64 0 min 0,000 mm 0,7 UV-I 143 W/m 5,3 C 11,7 C 6,4 km/h (2 Bft) 95,74 %
21.10.2018 15:16 11,7 C 11,7 C 13,3 C 65 % 1026,7 hPa 0,0 l/m 3,9 km/h (1 Bft) NO 56 0 min 0,000 mm 0,7 UV-I 160 W/m 5,3 C 11,7 C 4,8 km/h (1 Bft) 97,87 %
21.10.2018 15:18 11,7 C 11,7 C 13,3 C 64 % 1026,6 hPa 0,0 l/m 4,4 km/h (1 Bft) NO 51 0 min 0,000 mm 0,7 UV-I 162 W/m 5,1 C 11,7 C 6,4 km/h (2 Bft) 98,00 %
21.10.2018 15:20 11,7 C 11,7 C 13,3 C 65 % 1026,6 hPa 0,0 l/m 5,9 km/h (2 Bft) NO 44 0 min 0,000 mm 0,7 UV-I 174 W/m 5,3 C 11,7 C 8,0 km/h (2 Bft) 97,87 %
21.10.2018 15:22 11,8 C 11,7 C 13,3 C 64 % 1026,5 hPa 0,0 l/m 4,9 km/h (1 Bft) N-NO 30 2 min 0,000 mm 0,7 UV-I 228 W/m 5,2 C 11,8 C 8,0 km/h (2 Bft) 97,87 %
21.10.2018 15:24 11,9 C 11,7 C 12,8 C 63 % 1026,5 hPa 0,0 l/m 4,2 km/h (1 Bft) NO 49 2 min 0,000 mm 0,7 UV-I 213 W/m 5,1 C 11,9 C 6,4 km/h (2 Bft) 94,00 %
21.10.2018 15:26 11,9 C 11,7 C 13,3 C 62 % 1026,5 hPa 0,0 l/m 2,0 km/h (1 Bft) NO 51 0 min 0,000 mm 0,7 UV-I 165 W/m 4,9 C 11,9 C 4,8 km/h (1 Bft) 97,87 %
21.10.2018 15:28 11,9 C 11,7 C 13,3 C 61 % 1026,5 hPa 0,0 l/m 3,1 km/h (1 Bft) NO 55 0 min 0,000 mm 0,7 UV-I 167 W/m 4,6 C 11,9 C 4,8 km/h (1 Bft) 94,74 %
21.10.2018 15:30 11,9 C 11,7 C 13,3 C 62 % 1026,4 hPa 0,0 l/m 2,1 km/h (1 Bft) NO 54 0 min 0,000 mm 0,7 UV-I 163 W/m 4,9 C 11,9 C 3,2 km/h (1 Bft) 98,00 %
21.10.2018 15:32 12,1 C 11,7 C 13,3 C 64 % 1026,5 hPa 0,0 l/m 3,8 km/h (1 Bft) N-NO 16 2 min 0,000 mm 0,7 UV-I 363 W/m 5,5 C 12,1 C 6,4 km/h (2 Bft) 98,00 %
21.10.2018 15:34 12,2 C 11,7 C 13,3 C 61 % 1026,4 hPa 0,0 l/m 3,4 km/h (1 Bft) N-NO 16 2 min 0,000 mm 0,7 UV-I 364 W/m 4,9 C 12,2 C 4,8 km/h (1 Bft) 97,44 %
21.10.2018 15:36 12,2 C 11,7 C 13,3 C 60 % 1026,4 hPa 0,0 l/m 2,8 km/h (1 Bft) W 279 2 min 0,000 mm 0,7 UV-I 352 W/m 4,7 C 12,2 C 4,8 km/h (1 Bft) 100,00 %
21.10.2018 15:38 12,3 C 11,7 C 12,8 C 60 % 1026,4 hPa 0,0 l/m 3,3 km/h (1 Bft) NW 312 2 min 0,000 mm 0,7 UV-I 350 W/m 4,8 C 12,3 C 4,8 km/h (1 Bft) 97,87 %
21.10.2018 15:40 12,3 C 11,7 C 12,8 C 59 % 1026,4 hPa 0,0 l/m 3,4 km/h (1 Bft) NW 312 2 min 0,000 mm 0,7 UV-I 344 W/m 4,5 C 12,3 C 6,4 km/h (2 Bft) 100,00 %
21.10.2018 15:42 12,3 C 11,7 C 12,8 C 59 % 1026,4 hPa 0,0 l/m 4,1 km/h (1 Bft) N-NW 333 2 min 0,000 mm 0,6 UV-I 303 W/m 4,5 C 12,3 C 6,4 km/h (2 Bft) 98,00 %
21.10.2018 15:44 12,3 C 11,7 C 12,2 C 59 % 1026,5 hPa 0,0 l/m 1,6 km/h (1 Bft) N-NW 334 2 min 0,000 mm 0,6 UV-I 198 W/m 4,5 C 12,3 C 3,2 km/h (1 Bft) 97,87 %
21.10.2018 15:46 12,3 C 11,7 C 12,2 C 59 % 1026,5 hPa 0,0 l/m 4,2 km/h (1 Bft) NO 42 0 min 0,000 mm 0,5 UV-I 146 W/m 4,5 C 12,3 C 6,4 km/h (2 Bft) 97,87 %
21.10.2018 15:48 12,2 C 11,7 C 12,2 C 62 % 1026,5 hPa 0,0 l/m 6,5 km/h (2 Bft) NO 35 0 min 0,000 mm 0,5 UV-I 150 W/m 5,1 C 12,2 C 9,7 km/h (2 Bft) 97,87 %
21.10.2018 15:50 12,2 C 11,7 C 12,8 C 62 % 1026,5 hPa 0,0 l/m 5,9 km/h (2 Bft) N-NO 28 0 min 0,000 mm 0,5 UV-I 176 W/m 5,1 C 12,2 C 8,0 km/h (2 Bft) 95,74 %
21.10.2018 15:52 12,2 C 11,7 C 12,8 C 63 % 1026,5 hPa 0,0 l/m 4,4 km/h (1 Bft) NO 41 2 min 0,000 mm 0,5 UV-I 205 W/m 5,4 C 12,2 C 6,4 km/h (2 Bft) 97,56 %
21.10.2018 15:54 12,2 C 11,7 C 13,3 C 61 % 1026,5 hPa 0,0 l/m 4,9 km/h (1 Bft) N-NO 12 2 min 0,000 mm 0,5 UV-I 262 W/m 4,9 C 12,2 C 6,4 km/h (2 Bft) 96,00 %
21.10.2018 15:56 12,2 C 11,7 C 13,9 C 59 % 1026,5 hPa 0,0 l/m 2,1 km/h (1 Bft) N-NO 12 2 min 0,000 mm 0,5 UV-I 365 W/m 4,4 C 12,2 C 4,8 km/h (1 Bft) 97,73 %
21.10.2018 15:58 12,2 C 11,7 C 13,9 C 59 % 1026,5 hPa 0,0 l/m 2,9 km/h (1 Bft) N-NO 29 2 min 0,000 mm 0,0 UV-I 360 W/m 4,4 C 12,2 C 4,8 km/h (1 Bft) 98,00 %
21.10.2018 16:00 12,2 C 11,7 C 13,9 C 60 % 1026,5 hPa 0,0 l/m 4,2 km/h (1 Bft) NO 42 2 min 0,000 mm 0,0 UV-I 356 W/m 4,7 C 12,2 C 4,8 km/h (1 Bft) 92,68 %
21.10.2018 16:02 12,2 C 11,7 C 13,9 C 60 % 1026,5 hPa 0,0 l/m 5,5 km/h (1 Bft) NW 324 2 min 0,127 mm 0,0 UV-I 342 W/m 4,7 C 12,2 C 9,7 km/h (2 Bft) 97,87 %
21.10.2018 16:04 12,3 C 11,7 C 13,9 C 58 % 1026,5 hPa 0,0 l/m 6,6 km/h (2 Bft) N-NW 332 2 min 0,000 mm 0,0 UV-I 322 W/m 4,3 C 12,2 C 9,7 km/h (2 Bft) 98,00 %
21.10.2018 16:06 12,3 C 12,2 C 13,9 C 59 % 1026,4 hPa 0,0 l/m 6,0 km/h (2 Bft) NW 323 2 min 0,000 mm 0,0 UV-I 311 W/m 4,5 C 12,3 C 16,1 km/h (3 Bft) 92,00 %
21.10.2018 16:09 12,4 C 11,7 C 13,3 C 60 % 1026,4 hPa 0,0 l/m 5,3 km/h (1 Bft) N-NW 338 3 min 0,000 mm 0,0 UV-I 191 W/m 4,9 C 12,4 C 14,5 km/h (3 Bft) 100,00 %
21.10.2018 16:10 12,4 C 11,7 C 13,3 C 60 % 1026,4 hPa 0,0 l/m 6,0 km/h (2 Bft) N-NW 339 0 min 0,000 mm 0,0 UV-I 138 W/m 4,9 C 12,4 C 8,0 km/h (2 Bft) 100,00 %
21.10.2018 16:12 12,4 C 11,7 C 13,3 C 58 % 1026,5 hPa 0,0 l/m 7,3 km/h (2 Bft) N-NW 333 2 min 0,000 mm 0,0 UV-I 155 W/m 4,4 C 11,8 C 9,7 km/h (2 Bft) 100,00 %
21.10.2018 16:14 12,3 C 11,7 C 13,3 C 58 % 1026,5 hPa 0,0 l/m 5,0 km/h (1 Bft) NW 319 2 min 0,000 mm 0,0 UV-I 154 W/m 4,3 C 12,3 C 8,0 km/h (2 Bft) 100,00 %
21.10.2018 16:16 12,2 C 11,7 C 13,3 C 58 % 1026,5 hPa 0,0 l/m 3,9 km/h (1 Bft) N 350 2 min 0,000 mm 0,0 UV-I 148 W/m 4,2 C 12,2 C 6,4 km/h (2 Bft) 97,87 %
21.10.2018 16:18 12,1 C 11,7 C 13,3 C 56 % 1026,4 hPa 0,0 l/m 0,5 km/h (0 Bft) N 350 0 min 0,000 mm 0,0 UV-I 144 W/m 3,6 C 12,1 C 1,6 km/h (1 Bft) 100,00 %
21.10.2018 16:20 12,1 C 11,7 C 13,3 C 56 % 1026,4 hPa 0,0 l/m 0,5 km/h (0 Bft) N 350 2 min 0,000 mm 0,0 UV-I 158 W/m 3,6 C 12,1 C 1,6 km/h (1 Bft) 97,56 %
21.10.2018 16:22 12,1 C 12,2 C 13,9 C 57 % 1026,4 hPa 0,0 l/m 2,1 km/h (1 Bft) N-NW 342 2 min 0,000 mm 0,0 UV-I 242 W/m 3,8 C 12,1 C 4,8 km/h (1 Bft) 100,00 %
21.10.2018 16:24 12,1 C 11,7 C 13,9 C 57 % 1026,4 hPa 0,0 l/m 0,4 km/h (0 Bft) N-NW 342 2 min 0,000 mm 0,0 UV-I 272 W/m 3,8 C 12,1 C 1,6 km/h (1 Bft) 100,00 %
21.10.2018 16:26 12,1 C 11,7 C 13,9 C 58 % 1026,4 hPa 0,0 l/m 2,5 km/h (1 Bft) N 360 2 min 0,000 mm 0,0 UV-I 256 W/m 4,1 C 12,1 C 6,4 km/h (2 Bft) 98,00 %
21.10.2018 16:28 12,2 C 12,2 C 13,9 C 59 % 1026,4 hPa 0,0 l/m 2,6 km/h (1 Bft) N 9 2 min 0,000 mm 0,0 UV-I 243 W/m 4,4 C 12,2 C 4,8 km/h (1 Bft) 100,00 %
21.10.2018 16:30 12,2 C 11,7 C 13,3 C 59 % 1026,4 hPa 0,0 l/m 2,0 km/h (1 Bft) N 9 2 min 0,000 mm 0,0 UV-I 233 W/m 4,4 C 12,2 C 3,2 km/h (1 Bft) 100,00 %
21.10.2018 16:32 12,3 C 11,7 C 13,3 C 59 % 1026,4 hPa 0,0 l/m 3,9 km/h (1 Bft) N-NO 29 2 min 0,000 mm 0,0 UV-I 221 W/m 4,5 C 12,3 C 8,0 km/h (2 Bft) 100,00 %
21.10.2018 16:34 12,3 C 11,7 C 13,3 C 59 % 1026,4 hPa 0,0 l/m 3,6 km/h (1 Bft) N-NW 332 2 min 0,000 mm 0,0 UV-I 209 W/m 4,5 C 12,3 C 6,4 km/h (2 Bft) 100,00 %
21.10.2018 16:36 12,3 C 11,7 C 12,8 C 57 % 1026,3 hPa 0,0 l/m 5,0 km/h (1 Bft) N-NW 338 2 min 0,000 mm 0,0 UV-I 199 W/m 4,0 C 12,3 C 11,3 km/h (2 Bft) 98,00 %
21.10.2018 16:38 12,3 C 11,7 C 12,8 C 56 % 1026,3 hPa 0,0 l/m 2,4 km/h (1 Bft) N-NW 329 2 min 0,000 mm 0,0 UV-I 164 W/m 3,8 C 12,3 C 4,8 km/h (1 Bft) 98,00 %
21.10.2018 16:40 12,2 C 11,7 C 12,8 C 57 % 1026,3 hPa 0,0 l/m 3,5 km/h (1 Bft) W-NW 303 0 min 0,000 mm 0,0 UV-I 89 W/m 3,9 C 12,2 C 6,4 km/h (2 Bft) 92,68 %
21.10.2018 16:42 12,2 C 11,7 C 12,8 C 58 % 1026,3 hPa 0,0 l/m 3,7 km/h (1 Bft) N-NO 16 0 min 0,000 mm 0,0 UV-I 82 W/m 4,2 C 12,2 C 6,4 km/h (2 Bft) 98,00 %
21.10.2018 16:44 12,1 C 11,7 C 12,8 C 58 % 1026,2 hPa 0,0 l/m 4,3 km/h (1 Bft) N-NO 19 0 min 0,000 mm 0,0 UV-I 72 W/m 4,1 C 12,1 C 8,0 km/h (2 Bft) 97,87 %
21.10.2018 16:46 12,1 C 12,2 C 12,2 C 59 % 1026,2 hPa 0,0 l/m 4,0 km/h (1 Bft) N-NO 24 0 min 0,000 mm 0,0 UV-I 64 W/m 4,3 C 12,1 C 6,4 km/h (2 Bft) 97,87 %
21.10.2018 16:48 12,0 C 11,7 C 12,2 C 61 % 1026,3 hPa 0,0 l/m 3,7 km/h (1 Bft) N-NO 24 0 min 0,000 mm 0,0 UV-I 58 W/m 4,7 C 12,0 C 4,8 km/h (1 Bft) 94,00 %
21.10.2018 16:50 11,9 C 11,7 C 12,2 C 60 % 1026,3 hPa 0,0 l/m 3,3 km/h (1 Bft) N-NO 24 0 min 0,000 mm 0,0 UV-I 56 W/m 4,4 C 11,9 C 4,8 km/h (1 Bft) 100,00 %
21.10.2018 16:52 11,9 C 12,2 C 12,2 C 59 % 1026,3 hPa 0,0 l/m 3,7 km/h (1 Bft) N-NO 15 0 min 0,000 mm 0,0 UV-I 52 W/m 4,1 C 11,9 C 6,4 km/h (2 Bft) 96,23 %
21.10.2018 16:54 11,9 C 11,7 C 11,7 C 60 % 1026,3 hPa 0,0 l/m 4,5 km/h (1 Bft) N-NO 14 0 min 0,000 mm 0,0 UV-I 50 W/m 4,4 C 11,9 C 6,4 km/h (2 Bft) 96,00 %
21.10.2018 16:56 11,8 C 12,2 C 11,7 C 59 % 1026,3 hPa 0,0 l/m 1,8 km/h (1 Bft) N-NO 14 0 min 0,000 mm 0,0 UV-I 50 W/m 4,1 C 11,8 C 3,2 km/h (1 Bft) 98,00 %
21.10.2018 16:58 11,8 C 12,2 C 11,7 C 60 % 1026,3 hPa 0,0 l/m 2,2 km/h (1 Bft) N-NO 15 0 min 0,000 mm 0,0 UV-I 51 W/m 4,3 C 11,8 C 3,2 km/h (1 Bft) 97,14 %
21.10.2018 17:00 11,8 C 11,7 C 11,7 C 58 % 1026,3 hPa 0,0 l/m 2,2 km/h (1 Bft) N-NO 15 0 min 0,000 mm 0,0 UV-I 51 W/m 3,8 C 11,8 C 3,2 km/h (1 Bft) 96,23 %
21.10.2018 17:02 11,8 C 12,2 C 11,7 C 58 % 1026,3 hPa 0,0 l/m 1,1 km/h (1 Bft) N-NO 15 0 min 0,102 mm 0,0 UV-I 51 W/m 3,8 C 11,8 C 1,6 km/h (1 Bft) 96,23 %
21.10.2018 17:04 11,8 C 12,2 C 11,7 C 58 % 1026,3 hPa 0,0 l/m 1,0 km/h (0 Bft) N-NO 15 0 min 0,000 mm 0,0 UV-I 51 W/m 3,8 C 11,8 C 1,6 km/h (1 Bft) 97,14 %
21.10.2018 17:06 11,8 C 12,2 C 11,7 C 57 % 1026,3 hPa 0,0 l/m 0,0 km/h (0 Bft) N-NO 15 0 min 0,000 mm 0,0 UV-I 51 W/m 3,6 C 11,8 C 1,6 km/h (1 Bft) 94,34 %
21.10.2018 17:08 11,8 C 12,2 C 11,1 C 57 % 1026,3 hPa 0,0 l/m 0,0 km/h (0 Bft) N-NO 15 0 min 0,000 mm 0,0 UV-I 48 W/m 3,6 C 11,8 C 0,0 km/h (0 Bft) 95,12 %
21.10.2018 17:10 11,8 C 12,2 C 11,1 C 59 % 1026,3 hPa 0,0 l/m 1,0 km/h (0 Bft) N-NO 15 0 min 0,000 mm 0,0 UV-I 46 W/m 4,1 C 11,8 C 3,2 km/h (1 Bft) 93,62 %
21.10.2018 17:12 11,7 C 12,2 C 11,1 C 60 % 1026,3 hPa 0,0 l/m 1,3 km/h (1 Bft) N-NO 15 0 min 0,000 mm 0,0 UV-I 46 W/m 4,2 C 11,7 C 1,6 km/h (1 Bft) 98,11 %
21.10.2018 17:14 11,7 C 12,2 C 11,1 C 61 % 1026,3 hPa 0,0 l/m 2,1 km/h (1 Bft) N-NO 15 0 min 0,000 mm 0,0 UV-I 44 W/m 4,4 C 11,7 C 3,2 km/h (1 Bft) 97,87 %
21.10.2018 17:16 11,6 C 12,2 C 11,1 C 61 % 1026,3 hPa 0,0 l/m 2,4 km/h (1 Bft) N-NO 15 0 min 0,000 mm 0,0 UV-I 44 W/m 4,3 C 11,6 C 3,2 km/h (1 Bft) 98,00 %
21.10.2018 17:18 11,6 C 12,2 C 11,1 C 62 % 1026,3 hPa 0,0 l/m 3,2 km/h (1 Bft) N-NO 15 0 min 0,000 mm 0,0 UV-I 44 W/m 4,6 C 11,6 C 4,8 km/h (1 Bft) 97,87 %
21.10.2018 17:20 11,6 C 12,2 C 11,1 C 62 % 1026,3 hPa 0,0 l/m 2,2 km/h (1 Bft) N-NO 15 0 min 0,000 mm 0,0 UV-I 44 W/m 4,6 C 11,6 C 3,2 km/h (1 Bft) 97,44 %
21.10.2018 17:22 11,6 C 12,2 C 11,1 C 62 % 1026,3 hPa 0,0 l/m 2,9 km/h (1 Bft) N-NO 15 0 min 0,000 mm 0,0 UV-I 41 W/m 4,6 C 11,6 C 4,8 km/h (1 Bft) 94,55 %
21.10.2018 17:24 11,5 C 12,2 C 11,1 C 62 % 1026,3 hPa 0,0 l/m 3,1 km/h (1 Bft) N-NO 27 0 min 0,000 mm 0,0 UV-I 38 W/m 4,5 C 11,5 C 4,8 km/h (1 Bft) 97,87 %
21.10.2018 17:26 11,5 C 12,2 C 10,6 C 62 % 1026,3 hPa 0,0 l/m 3,9 km/h (1 Bft) NO 51 0 min 0,000 mm 0,0 UV-I 33 W/m 4,5 C 11,5 C 4,8 km/h (1 Bft) 97,62 %
21.10.2018 17:28 11,4 C 12,2 C 10,6 C 62 % 1026,3 hPa 0,0 l/m 3,7 km/h (1 Bft) NO 51 0 min 0,000 mm 0,0 UV-I 30 W/m 4,4 C 11,4 C 4,8 km/h (1 Bft) 98,00 %
21.10.2018 17:30 11,4 C 12,2 C 10,6 C 63 % 1026,4 hPa 0,0 l/m 2,4 km/h (1 Bft) NO 51 0 min 0,000 mm 0,0 UV-I 25 W/m 4,6 C 11,4 C 3,2 km/h (1 Bft) 100,00 %
21.10.2018 17:32 11,3 C 12,2 C 10,6 C 64 % 1026,3 hPa 0,0 l/m 2,3 km/h (1 Bft) NO 51 0 min 0,000 mm 0,0 UV-I 23 W/m 4,7 C 11,3 C 3,2 km/h (1 Bft) 96,55 %
21.10.2018 17:34 11,3 C 12,2 C 10,6 C 64 % 1026,4 hPa 0,0 l/m 2,4 km/h (1 Bft) NO 51 0 min 0,000 mm 0,0 UV-I 20 W/m 4,7 C 11,3 C 3,2 km/h (1 Bft) 100,00 %
21.10.2018 17:36 11,3 C 12,2 C 10,6 C 65 % 1026,4 hPa 0,0 l/m 2,3 km/h (1 Bft) NO 51 0 min 0,000 mm 0,0 UV-I 19 W/m 5,0 C 11,3 C 3,2 km/h (1 Bft) 98,39 %
21.10.2018 17:38 11,2 C 12,2 C 10,0 C 65 % 1026,4 hPa 0,0 l/m 2,9 km/h (1 Bft) NO 51 0 min 0,000 mm 0,0 UV-I 18 W/m 4,9 C 11,2 C 4,8 km/h (1 Bft) 98,11 %
21.10.2018 17:40 11,2 C 12,2 C 10,0 C 65 % 1026,4 hPa 0,0 l/m 2,1 km/h (1 Bft) NO 51 0 min 0,000 mm 0,0 UV-I 17 W/m 4,9 C 11,2 C 3,2 km/h (1 Bft) 100,00 %
21.10.2018 17:42 11,2 C 12,2 C 10,0 C 65 % 1026,4 hPa 0,0 l/m 2,2 km/h (1 Bft) NO 51 0 min 0,000 mm 0,0 UV-I 16 W/m 4,9 C 11,2 C 3,2 km/h (1 Bft) 100,00 %
21.10.2018 17:44 11,1 C 12,2 C 10,0 C 64 % 1026,4 hPa 0,0 l/m 2,1 km/h (1 Bft) NO 51 0 min 0,000 mm 0,0 UV-I 19 W/m 4,6 C 11,1 C 3,2 km/h (1 Bft) 100,00 %
21.10.2018 17:46 11,2 C 12,2 C 10,0 C 63 % 1026,3 hPa 0,0 l/m 1,1 km/h (1 Bft) NO 51 2 min 0,000 mm 0,0 UV-I 23 W/m 4,4 C 11,2 C 1,6 km/h (1 Bft) 100,00 %
21.10.2018 17:49 11,1 C 12,2 C 10,0 C 63 % 1026,3 hPa 0,0 l/m 1,9 km/h (1 Bft) NO 51 3 min 0,000 mm 0,0 UV-I 20 W/m 4,3 C 11,1 C 3,2 km/h (1 Bft) 98,65 %
21.10.2018 17:50 11,1 C 12,2 C 10,0 C 65 % 1026,3 hPa 0,0 l/m 1,2 km/h (1 Bft) NO 51 1 min 0,000 mm 0,0 UV-I 16 W/m 4,8 C 11,1 C 3,2 km/h (1 Bft) 100,00 %
21.10.2018 17:52 11,1 C 12,2 C 9,4 C 67 % 1026,3 hPa 0,0 l/m 1,6 km/h (1 Bft) NO 51 2 min 0,000 mm 0,0 UV-I 14 W/m 5,2 C 11,1 C 3,2 km/h (1 Bft) 100,00 %
21.10.2018 17:54 11,0 C 12,2 C 9,4 C 69 % 1026,3 hPa 0,0 l/m 0,8 km/h (0 Bft) NO 51 0 min 0,000 mm 0,0 UV-I 14 W/m 5,5 C 11,0 C 1,6 km/h (1 Bft) 100,00 %
21.10.2018 17:56 10,9 C 12,2 C 9,4 C 68 % 1026,3 hPa 0,0 l/m 0,1 km/h (0 Bft) NO 51 0 min 0,000 mm 0,0 UV-I 12 W/m 5,2 C 10,9 C 1,6 km/h (1 Bft) 100,00 %
21.10.2018 17:58 10,9 C 12,2 C 8,9 C 68 % 1026,3 hPa 0,0 l/m 0,0 km/h (0 Bft) NO 51 0 min 0,000 mm 0,0 UV-I 11 W/m 5,2 C 10,9 C 0,0 km/h (0 Bft) 95,74 %
21.10.2018 18:00 10,8 C 12,2 C 8,9 C 71 % 1026,3 hPa 0,0 l/m 0,2 km/h (0 Bft) NO 51 0 min 0,000 mm 0,0 UV-I 9 W/m 5,8 C 10,8 C 1,6 km/h (1 Bft) 97,87 %
21.10.2018 18:02 10,7 C 12,2 C 8,9 C 70 % 1026,3 hPa 0,0 l/m 0,4 km/h (0 Bft) NO 51 0 min 0,025 mm 0,0 UV-I 8 W/m 5,5 C 10,7 C 1,6 km/h (1 Bft) 100,00 %
21.10.2018 18:04 10,7 C 12,2 C 8,9 C 70 % 1026,3 hPa 0,0 l/m 0,0 km/h (0 Bft) NO 51 0 min 0,000 mm 0,0 UV-I 7 W/m 5,5 C 10,7 C 0,0 km/h (0 Bft) 100,00 %
21.10.2018 18:06 10,6 C 12,2 C 8,3 C 70 % 1026,4 hPa 0,0 l/m 0,0 km/h (0 Bft) NO 51 0 min 0,000 mm 0,0 UV-I 7 W/m 5,4 C 10,6 C 0,0 km/h (0 Bft) 98,21 %
21.10.2018 18:08 10,6 C 12,2 C 8,9 C 73 % 1026,4 hPa 0,0 l/m 0,0 km/h (0 Bft) NO 51 0 min 0,000 mm 0,0 UV-I 5 W/m 6,0 C 10,6 C 0,0 km/h (0 Bft) 100,00 %
21.10.2018 18:10 10,4 C 12,2 C 8,9 C 74 % 1026,4 hPa 0,0 l/m 0,0 km/h (0 Bft) NO 51 0 min 0,000 mm 0,0 UV-I 5 W/m 6,0 C 10,4 C 0,0 km/h (0 Bft) 100,00 %
21.10.2018 18:12 10,2 C 12,2 C 8,9 C 75 % 1026,4 hPa 0,0 l/m 0,0 km/h (0 Bft) NO 51 0 min 0,000 mm 0,0 UV-I 5 W/m 6,0 C 10,2 C 0,0 km/h (0 Bft) 100,00 %
21.10.2018 18:14 10,1 C 12,2 C 8,9 C 76 % 1026,4 hPa 0,0 l/m 0,0 km/h (0 Bft) NO 51 0 min 0,000 mm 0,0 UV-I 3 W/m 6,1 C 10,1 C 0,0 km/h (0 Bft) 100,00 %
21.10.2018 18:16 10,0 C 12,2 C 8,9 C 76 % 1026,5 hPa 0,0 l/m 0,0 km/h (0 Bft) NO 51 0 min 0,000 mm 0,0 UV-I 0 W/m 6,0 C 10,0 C 0,0 km/h (0 Bft) 100,00 %
21.10.2018 18:18 9,9 C 12,2 C 8,9 C 76 % 1026,5 hPa 0,0 l/m 0,0 km/h (0 Bft) NO 51 0 min 0,000 mm 0,0 UV-I 0 W/m 5,9 C 9,9 C 0,0 km/h (0 Bft) 100,00 %
21.10.2018 18:20 9,9 C 12,2 C 8,9 C 75 % 1026,5 hPa 0,0 l/m 0,0 km/h (0 Bft) NO 51 0 min 0,000 mm 0,0 UV-I 0 W/m 5,7 C 9,9 C 0,0 km/h (0 Bft) 100,00 %
21.10.2018 18:22 9,9 C 12,2 C 8,9 C 75 % 1026,5 hPa 0,0 l/m 0,0 km/h (0 Bft) NO 51 0 min 0,000 mm 0,0 UV-I 0 W/m 5,7 C 9,9 C 1,6 km/h (1 Bft) 100,00 %
21.10.2018 18:24 9,8 C 12,2 C 8,9 C 75 % 1026,5 hPa 0,0 l/m 2,0 km/h (1 Bft) NO 51 0 min 0,000 mm 0,0 UV-I 0 W/m 5,6 C 9,8 C 3,2 km/h (1 Bft) 97,56 %
21.10.2018 18:26 9,8 C 12,2 C 8,9 C 73 % 1026,5 hPa 0,0 l/m 2,8 km/h (1 Bft) NO 51 0 min 0,000 mm 0,0 UV-I 0 W/m 5,2 C 9,8 C 3,2 km/h (1 Bft) 100,00 %
21.10.2018 18:28 9,8 C 12,2 C 8,9 C 73 % 1026,6 hPa 0,0 l/m 3,1 km/h (1 Bft) NO 51 0 min 0,000 mm 0,0 UV-I 0 W/m 5,2 C 9,8 C 3,2 km/h (1 Bft) 98,00 %
21.10.2018 18:30 9,7 C 12,2 C 8,9 C 73 % 1026,5 hPa 0,0 l/m 2,6 km/h (1 Bft) NO 51 0 min 0,000 mm 0,0 UV-I 0 W/m 5,1 C 9,7 C 3,2 km/h (1 Bft) 98,11 %
21.10.2018 18:32 9,7 C 12,2 C 8,9 C 73 % 1026,5 hPa 0,0 l/m 1,9 km/h (1 Bft) NO 51 0 min 0,000 mm 0,0 UV-I 0 W/m 5,1 C 9,7 C 3,2 km/h (1 Bft) 97,87 %
21.10.2018 18:34 9,7 C 12,2 C 8,9 C 75 % 1026,7 hPa 0,0 l/m 1,1 km/h (1 Bft) NO 51 0 min 0,000 mm 0,0 UV-I 0 W/m 5,5 C 9,7 C 1,6 km/h (1 Bft) 97,87 %
21.10.2018 18:36 9,7 C 12,2 C 8,9 C 75 % 1026,7 hPa 0,0 l/m 0,5 km/h (0 Bft) NO 51 0 min 0,000 mm 0,0 UV-I 0 W/m 5,5 C 9,7 C 1,6 km/h (1 Bft) 95,74 %
21.10.2018 18:38 9,7 C 12,2 C 8,3 C 75 % 1026,7 hPa 0,0 l/m 0,7 km/h (0 Bft) NO 51 0 min 0,000 mm 0,0 UV-I 0 W/m 5,5 C 9,7 C 1,6 km/h (1 Bft) 94,87 %
21.10.2018 18:40 9,7 C 12,2 C 8,3 C 75 % 1026,7 hPa 0,0 l/m 1,0 km/h (0 Bft) NO 51 0 min 0,000 mm 0,0 UV-I 0 W/m 5,5 C 9,7 C 1,6 km/h (1 Bft) 94,23 %
21.10.2018 18:42 9,7 C 12,2 C 8,3 C 75 % 1026,7 hPa 0,0 l/m 1,0 km/h (0 Bft) NO 51 0 min 0,000 mm 0,0 UV-I 0 W/m 5,5 C 9,7 C 1,6 km/h (1 Bft) 94,12 %
21.10.2018 18:44 9,7 C 12,2 C 8,3 C 75 % 1026,7 hPa 0,0 l/m 0,7 km/h (0 Bft) NO 51 0 min 0,000 mm 0,0 UV-I 0 W/m 5,5 C 9,7 C 1,6 km/h (1 Bft) 90,24 %
21.10.2018 18:46 9,8 C 12,2 C 8,3 C 75 % 1026,7 hPa 0,0 l/m 0,1 km/h (0 Bft) NO 51 0 min 0,000 mm 0,0 UV-I 0 W/m 5,6 C 9,8 C 1,6 km/h (1 Bft) 92,00 %
21.10.2018 18:48 9,7 C 12,2 C 8,3 C 75 % 1026,8 hPa 0,0 l/m 0,0 km/h (0 Bft) NO 51 0 min 0,000 mm 0,0 UV-I 0 W/m 5,5 C 9,7 C 0,0 km/h (0 Bft) 91,49 %
21.10.2018 18:50 9,8 C 12,2 C 8,3 C 74 % 1026,8 hPa 0,0 l/m 0,0 km/h (0 Bft) NO 51 0 min 0,000 mm 0,0 UV-I 0 W/m 5,4 C 9,8 C 0,0 km/h (0 Bft) 92,68 %
21.10.2018 18:52 9,7 C 12,2 C 8,3 C 75 % 1026,9 hPa 0,0 l/m 0,0 km/h (0 Bft) NO 51 0 min 0,000 mm 0,0 UV-I 0 W/m 5,5 C 9,7 C 0,0 km/h (0 Bft) 89,36 %
21.10.2018 18:54 9,7 C 12,2 C 8,3 C 74 % 1026,8 hPa 0,0 l/m 0,0 km/h (0 Bft) NO 51 0 min 0,000 mm 0,0 UV-I 0 W/m 5,3 C 9,7 C 0,0 km/h (0 Bft) 94,34 %
21.10.2018 18:56 9,7 C 12,2 C 8,3 C 74 % 1026,9 hPa 0,0 l/m 1,0 km/h (0 Bft) NO 51 0 min 0,000 mm 0,0 UV-I 0 W/m 5,3 C 9,7 C 3,2 km/h (1 Bft) 93,62 %
21.10.2018 18:58 9,6 C 12,2 C 8,3 C 75 % 1026,9 hPa 0,0 l/m 2,5 km/h (1 Bft) NO 51 0 min 0,000 mm 0,0 UV-I 0 W/m 5,4 C 9,6 C 3,2 km/h (1 Bft) 97,37 %
21.10.2018 19:00 9,5 C 12,2 C 8,9 C 75 % 1026,9 hPa 0,0 l/m 3,6 km/h (1 Bft) NO 52 0 min 0,000 mm 0,0 UV-I 0 W/m 5,3 C 9,5 C 4,8 km/h (1 Bft) 91,49 %
21.10.2018 19:02 9,4 C 12,2 C 8,9 C 75 % 1026,9 hPa 0,0 l/m 4,0 km/h (1 Bft) O-NO 75 0 min 0,000 mm 0,0 UV-I 0 W/m 5,2 C 9,4 C 4,8 km/h (1 Bft) 96,00 %
21.10.2018 19:04 9,3 C 12,2 C 8,9 C 75 % 1026,9 hPa 0,0 l/m 3,3 km/h (1 Bft) O-NO 75 0 min 0,000 mm 0,0 UV-I 0 W/m 5,1 C 9,3 C 4,8 km/h (1 Bft) 94,00 %
21.10.2018 19:06 9,3 C 12,2 C 8,9 C 75 % 1026,9 hPa 0,0 l/m 2,9 km/h (1 Bft) O-NO 75 0 min 0,000 mm 0,0 UV-I 0 W/m 5,1 C 9,3 C 3,2 km/h (1 Bft) 92,00 %
21.10.2018 19:08 9,3 C 12,2 C 8,3 C 76 % 1026,9 hPa 0,0 l/m 3,0 km/h (1 Bft) O-NO 75 0 min 0,000 mm 0,0 UV-I 0 W/m 5,3 C 9,3 C 3,2 km/h (1 Bft) 93,62 %
21.10.2018 19:10 9,3 C 12,2 C 8,9 C 76 % 1026,9 hPa 0,0 l/m 2,7 km/h (1 Bft) O-NO 75 0 min 0,000 mm 0,0 UV-I 0 W/m 5,3 C 9,3 C 3,2 km/h (1 Bft) 94,74 %
21.10.2018 19:12 9,3 C 12,2 C 8,9 C 76 % 1026,9 hPa 0,0 l/m 2,8 km/h (1 Bft) O-NO 75 0 min 0,000 mm 0,0 UV-I 0 W/m 5,3 C 9,3 C 3,2 km/h (1 Bft) 96,43 %
21.10.2018 19:14 9,3 C 12,2 C 8,9 C 76 % 1026,9 hPa 0,0 l/m 2,7 km/h (1 Bft) O-NO 75 0 min 0,000 mm 0,0 UV-I 0 W/m 5,3 C 9,3 C 3,2 km/h (1 Bft) 95,74 %
21.10.2018 19:16 9,3 C 12,2 C 8,9 C 75 % 1026,9 hPa 0,0 l/m 2,5 km/h (1 Bft) O-NO 75 0 min 0,000 mm 0,0 UV-I 0 W/m 5,1 C 9,3 C 3,2 km/h (1 Bft) 92,31 %
21.10.2018 19:18 9,3 C 12,2 C 8,9 C 74 % 1026,9 hPa 0,0 l/m 1,2 km/h (1 Bft) O-NO 75 0 min 0,000 mm 0,0 UV-I 0 W/m 4,9 C 9,3 C 1,6 km/h (1 Bft) 94,00 %
21.10.2018 19:20 9,3 C 12,2 C 8,9 C 74 % 1026,9 hPa 0,0 l/m 0,8 km/h (0 Bft) O-NO 75 0 min 0,000 mm 0,0 UV-I 0 W/m 4,9 C 9,3 C 1,6 km/h (1 Bft) 93,88 %
21.10.2018 19:22 9,4 C 12,2 C 8,3 C 73 % 1026,9 hPa 0,0 l/m 0,6 km/h (0 Bft) O-NO 75 0 min 0,000 mm 0,0 UV-I 0 W/m 4,8 C 9,4 C 1,6 km/h (1 Bft) 95,24 %
21.10.2018 19:24 9,4 C 12,2 C 8,3 C 73 % 1026,9 hPa 0,0 l/m 0,1 km/h (0 Bft) O-NO 75 0 min 0,000 mm 0,0 UV-I 0 W/m 4,8 C 9,4 C 1,6 km/h (1 Bft) 98,00 %
21.10.2018 19:26 9,6 C 12,2 C 8,3 C 75 % 1026,9 hPa 0,0 l/m 1,2 km/h (1 Bft) O-NO 75 0 min 0,000 mm 0,0 UV-I 0 W/m 5,4 C 9,6 C 1,6 km/h (1 Bft) 97,56 %
21.10.2018 19:28 9,5 C 12,2 C 8,3 C 76 % 1026,9 hPa 0,0 l/m 2,0 km/h (1 Bft) O-NO 75 0 min 0,000 mm 0,0 UV-I 0 W/m 5,5 C 9,5 C 3,2 km/h (1 Bft) 98,11 %
21.10.2018 19:30 9,4 C 12,2 C 8,3 C 75 % 1026,9 hPa 0,0 l/m 1,9 km/h (1 Bft) O-NO 75 0 min 0,000 mm 0,0 UV-I 0 W/m 5,2 C 9,4 C 3,2 km/h (1 Bft) 97,87 %
21.10.2018 19:32 9,4 C 12,2 C 8,3 C 76 % 1026,8 hPa 0,0 l/m 1,0 km/h (0 Bft) O-NO 75 0 min 0,000 mm 0,0 UV-I 0 W/m 5,4 C 9,4 C 1,6 km/h (1 Bft) 94,74 %
21.10.2018 19:34 9,4 C 12,2 C 8,3 C 76 % 1026,8 hPa 0,0 l/m 1,2 km/h (1 Bft) O-NO 75 0 min 0,000 mm 0,0 UV-I 0 W/m 5,4 C 9,4 C 1,6 km/h (1 Bft) 98,11 %
21.10.2018 19:36 9,4 C 12,2 C 8,3 C 76 % 1026,8 hPa 0,0 l/m 1,8 km/h (1 Bft) O-NO 75 0 min 0,000 mm 0,0 UV-I 0 W/m 5,4 C 9,4 C 3,2 km/h (1 Bft) 100,00 %
21.10.2018 19:38 9,4 C 12,2 C 8,3 C 76 % 1026,8 hPa 0,0 l/m 1,7 km/h (1 Bft) O-NO 75 0 min 0,000 mm 0,0 UV-I 0 W/m 5,4 C 9,4 C 3,2 km/h (1 Bft) 98,00 %
21.10.2018 19:40 9,5 C 12,2 C 8,3 C 76 % 1026,8 hPa 0,0 l/m 1,5 km/h (1 Bft) O-NO 75 0 min 0,000 mm 0,0 UV-I 0 W/m 5,5 C 9,5 C 1,6 km/h (1 Bft) 97,73 %
21.10.2018 19:42 9,5 C 12,2 C 8,3 C 78 % 1026,8 hPa 0,0 l/m 1,1 km/h (1 Bft) O-NO 75 0 min 0,000 mm 0,0 UV-I 0 W/m 5,9 C 9,5 C 1,6 km/h (1 Bft) 100,00 %
21.10.2018 19:44 9,4 C 12,2 C 8,3 C 78 % 1026,8 hPa 0,0 l/m 1,4 km/h (1 Bft) O-NO 75 0 min 0,000 mm 0,0 UV-I 0 W/m 5,8 C 9,4 C 1,6 km/h (1 Bft) 98,00 %
21.10.2018 19:46 9,2 C 12,2 C 8,3 C 79 % 1026,8 hPa 0,0 l/m 1,8 km/h (1 Bft) O-NO 75 0 min 0,000 mm 0,0 UV-I 0 W/m 5,8 C 9,2 C 3,2 km/h (1 Bft) 95,74 %
21.10.2018 19:48 9,2 C 12,2 C 7,8 C 78 % 1026,8 hPa 0,0 l/m 2,2 km/h (1 Bft) O-NO 76 0 min 0,000 mm 0,0 UV-I 0 W/m 5,6 C 9,2 C 3,2 km/h (1 Bft) 100,00 %
21.10.2018 19:50 9,1 C 12,2 C 7,8 C 79 % 1026,8 hPa 0,0 l/m 1,8 km/h (1 Bft) O-NO 76 0 min 0,000 mm 0,0 UV-I 0 W/m 5,7 C 9,1 C 3,2 km/h (1 Bft) 98,00 %
21.10.2018 19:52 9,1 C 12,2 C 7,8 C 80 % 1026,8 hPa 0,0 l/m 1,5 km/h (1 Bft) O-NO 76 0 min 0,000 mm 0,0 UV-I 0 W/m 5,8 C 9,1 C 1,6 km/h (1 Bft) 98,11 %
21.10.2018 19:54 8,9 C 12,2 C 7,8 C 79 % 1026,8 hPa 0,0 l/m 1,3 km/h (1 Bft) O-NO 76 0 min 0,000 mm 0,0 UV-I 0 W/m 5,5 C 8,9 C 3,2 km/h (1 Bft) 97,44 %
21.10.2018 19:56 8,8 C 12,2 C 7,2 C 79 % 1026,8 hPa 0,0 l/m 1,8 km/h (1 Bft) O-NO 76 0 min 0,000 mm 0,0 UV-I 0 W/m 5,4 C 8,8 C 3,2 km/h (1 Bft) 97,87 %
21.10.2018 19:58 8,8 C 12,2 C 7,2 C 78 % 1026,8 hPa 0,0 l/m 1,2 km/h (1 Bft) O-NO 76 0 min 0,000 mm 0,0 UV-I 0 W/m 5,2 C 8,8 C 1,6 km/h (1 Bft) 98,00 %
21.10.2018 20:00 8,8 C 12,2 C 6,7 C 78 % 1026,8 hPa 0,0 l/m 1,2 km/h (1 Bft) O-NO 76 0 min 0,000 mm 0,0 UV-I 0 W/m 5,2 C 8,8 C 1,6 km/h (1 Bft) 96,00 %
21.10.2018 20:02 8,9 C 12,2 C 6,1 C 78 % 1026,9 hPa 0,0 l/m 0,0 km/h (0 Bft) O-NO 76 0 min 0,000 mm 0,0 UV-I 0 W/m 5,3 C 8,9 C 0,0 km/h (0 Bft) 98,00 %
21.10.2018 20:04 8,9 C 12,2 C 5,6 C 77 % 1026,9 hPa 0,0 l/m 0,0 km/h (0 Bft) O-NO 76 0 min 0,000 mm 0,0 UV-I 0 W/m 5,1 C 8,9 C 0,0 km/h (0 Bft) 95,74 %
21.10.2018 20:06 8,9 C 12,2 C 5,0 C 77 % 1027,0 hPa 0,0 l/m 0,0 km/h (0 Bft) O-NO 76 0 min 0,000 mm 0,0 UV-I 0 W/m 5,1 C 8,9 C 0,0 km/h (0 Bft) 97,37 %
21.10.2018 20:08 8,9 C 12,2 C 5,0 C 77 % 1027,0 hPa 0,0 l/m 0,0 km/h (0 Bft) O-NO 76 0 min 0,000 mm 0,0 UV-I 0 W/m 5,1 C 8,9 C 0,0 km/h (0 Bft) 96,43 %
21.10.2018 20:10 8,9 C 12,2 C 4,4 C 77 % 1027,0 hPa 0,0 l/m 0,0 km/h (0 Bft) O-NO 75 0 min 0,000 mm 0,0 UV-I 0 W/m 5,1 C 8,9 C 0,0 km/h (0 Bft) 97,56 %
21.10.2018 20:12 8,7 C 12,2 C 4,4 C 78 % 1027,0 hPa 0,0 l/m 0,6 km/h (0 Bft) O-NO 76 0 min 0,000 mm 0,0 UV-I 0 W/m 5,1 C 8,7 C 3,2 km/h (1 Bft) 97,37 %
21.10.2018 20:14 8,3 C 12,2 C 4,4 C 80 % 1027,0 hPa 0,0 l/m 1,7 km/h (1 Bft) O-NO 76 0 min 0,000 mm 0,0 UV-I 0 W/m 5,1 C 8,3 C 3,2 km/h (1 Bft) 100,00 %
21.10.2018 20:16 7,9 C 12,2 C 4,4 C 81 % 1027,0 hPa 0,0 l/m 1,8 km/h (1 Bft) O-NO 75 0 min 0,000 mm 0,0 UV-I 0 W/m 4,8 C 7,9 C 3,2 km/h (1 Bft) 98,00 %
21.10.2018 20:18 7,8 C 12,2 C 4,4 C 82 % 1027,0 hPa 0,0 l/m 2,6 km/h (1 Bft) O-NO 76 0 min 0,000 mm 0,0 UV-I 0 W/m 4,9 C 7,8 C 3,2 km/h (1 Bft) 100,00 %
21.10.2018 20:20 7,7 C 12,2 C 4,4 C 82 % 1027,0 hPa 0,0 l/m 2,4 km/h (1 Bft) O-NO 76 0 min 0,000 mm 0,0 UV-I 0 W/m 4,8 C 7,7 C 3,2 km/h (1 Bft) 100,00 %
21.10.2018 20:22 7,6 C 12,2 C 4,4 C 83 % 1027,0 hPa 0,0 l/m 2,3 km/h (1 Bft) O-NO 76 0 min 0,000 mm 0,0 UV-I 0 W/m 4,9 C 7,6 C 3,2 km/h (1 Bft) 98,44 %
21.10.2018 20:24 7,5 C 12,2 C 4,4 C 83 % 1027,0 hPa 0,0 l/m 2,1 km/h (1 Bft) O-NO 76 0 min 0,000 mm 0,0 UV-I 0 W/m 4,8 C 7,5 C 3,2 km/h (1 Bft) 100,00 %
21.10.2018 20:26 7,5 C 12,2 C 5,0 C 82 % 1027,0 hPa 0,0 l/m 1,1 km/h (1 Bft) O-NO 76 0 min 0,000 mm 0,0 UV-I 0 W/m 4,6 C 7,5 C 1,6 km/h (1 Bft) 100,00 %
21.10.2018 20:28 7,5 C 12,2 C 5,0 C 81 % 1027,0 hPa 0,0 l/m 0,6 km/h (0 Bft) O-NO 76 0 min 0,000 mm 0,0 UV-I 0 W/m 4,5 C 7,5 C 1,6 km/h (1 Bft) 100,00 %
21.10.2018 20:30 7,6 C 12,2 C 5,0 C 81 % 1027,0 hPa 0,0 l/m 0,9 km/h (0 Bft) O-NO 76 0 min 0,000 mm 0,0 UV-I 0 W/m 4,6 C 7,6 C 1,6 km/h (1 Bft) 100,00 %
21.10.2018 20:32 7,4 C 12,2 C 5,0 C 81 % 1027,0 hPa 0,0 l/m 1,3 km/h (1 Bft) O-NO 76 0 min 0,000 mm 0,0 UV-I 0 W/m 4,4 C 7,4 C 1,6 km/h (1 Bft) 100,00 %
21.10.2018 20:34 7,3 C 12,2 C 5,0 C 83 % 1027,0 hPa 0,0 l/m 1,5 km/h (1 Bft) O-NO 76 0 min 0,000 mm 0,0 UV-I 0 W/m 4,6 C 7,3 C 1,6 km/h (1 Bft) 100,00 %
21.10.2018 20:36 7,4 C 12,2 C 5,0 C 82 % 1027,0 hPa 0,0 l/m 2,1 km/h (1 Bft) O-NO 76 0 min 0,000 mm 0,0 UV-I 0 W/m 4,5 C 7,4 C 3,2 km/h (1 Bft) 100,00 %
21.10.2018 20:38 7,4 C 12,2 C 5,0 C 81 % 1027,0 hPa 0,0 l/m 2,6 km/h (1 Bft) O-NO 76 0 min 0,000 mm 0,0 UV-I 0 W/m 4,4 C 7,4 C 3,2 km/h (1 Bft) 100,00 %
21.10.2018 20:40 7,6 C 12,2 C 5,6 C 79 % 1027,0 hPa 0,0 l/m 3,3 km/h (1 Bft) O-SO 107 0 min 0,000 mm 0,0 UV-I 0 W/m 4,2 C 7,6 C 4,8 km/h (1 Bft) 100,00 %
21.10.2018 20:42 7,8 C 12,2 C 5,6 C 79 % 1027,0 hPa 0,0 l/m 3,0 km/h (1 Bft) O-SO 107 0 min 0,000 mm 0,0 UV-I 0 W/m 4,4 C 7,8 C 3,2 km/h (1 Bft) 100,00 %
21.10.2018 20:44 7,7 C 12,2 C 6,1 C 80 % 1027,0 hPa 0,0 l/m 3,2 km/h (1 Bft) O-SO 107 0 min 0,000 mm 0,0 UV-I 0 W/m 4,5 C 7,7 C 3,2 km/h (1 Bft) 100,00 %
21.10.2018 20:46 7,4 C 12,2 C 6,1 C 82 % 1027,0 hPa 0,0 l/m 3,4 km/h (1 Bft) O-SO 107 0 min 0,000 mm 0,0 UV-I 0 W/m 4,5 C 7,4 C 4,8 km/h (1 Bft) 100,00 %
21.10.2018 20:48 7,4 C 12,2 C 6,7 C 82 % 1027,1 hPa 0,0 l/m 3,8 km/h (1 Bft) O-SO 107 0 min 0,000 mm 0,0 UV-I 0 W/m 4,5 C 7,4 C 4,8 km/h (1 Bft) 100,00 %
21.10.2018 20:50 7,5 C 12,2 C 6,7 C 82 % 1027,1 hPa 0,0 l/m 4,2 km/h (1 Bft) SO 131 0 min 0,000 mm 0,0 UV-I 0 W/m 4,6 C 7,5 C 6,4 km/h (2 Bft) 100,00 %
21.10.2018 20:52 7,6 C 12,2 C 6,7 C 82 % 1027,1 hPa 0,0 l/m 4,5 km/h (1 Bft) S-SO 151 0 min 0,000 mm 0,0 UV-I 0 W/m 4,7 C 7,6 C 6,4 km/h (2 Bft) 100,00 %
21.10.2018 20:54 7,8 C 12,2 C 7,2 C 81 % 1027,1 hPa 0,0 l/m 3,5 km/h (1 Bft) S-SO 152 0 min 0,000 mm 0,0 UV-I 0 W/m 4,7 C 7,8 C 4,8 km/h (1 Bft) 97,87 %
21.10.2018 20:55 7,9 C 12,2 C 7,2 C 80 % 1027,1 hPa 0,0 l/m 3,2 km/h (1 Bft) S-SO 157 0 min 0,000 mm 0,0 UV-I 0 W/m 4,7 C 7,9 C 6,4 km/h (2 Bft) 95,61 %
21.10.2018 21:00 8,1 C 12,2 C 7,2 C 80 % 1027,0 hPa 0,0 l/m 1,6 km/h (1 Bft) S-SO 157 0 min 0,000 mm 0,0 UV-I 0 W/m 4,9 C 8,1 C 3,2 km/h (1 Bft) 96,49 %
21.10.2018 21:02 8,1 C 12,2 C 7,2 C 81 % 1027,1 hPa 0,0 l/m 0,0 km/h (0 Bft) S-SO 152 0 min 0,000 mm 0,0 UV-I 0 W/m 5,0 C 8,1 C 0,0 km/h (0 Bft) 100,00 %
21.10.2018 21:04 8,0 C 12,2 C 7,2 C 81 % 1027,1 hPa 0,0 l/m 1,6 km/h (1 Bft) S-SO 152 0 min 0,000 mm 0,0 UV-I 0 W/m 4,9 C 8,0 C 3,2 km/h (1 Bft) 96,43 %
21.10.2018 21:06 8,1 C 12,2 C 7,8 C 81 % 1027,0 hPa 0,0 l/m 2,5 km/h (1 Bft) S-SO 152 0 min 0,000 mm 0,0 UV-I 0 W/m 5,0 C 8,1 C 3,2 km/h (1 Bft) 97,56 %
21.10.2018 21:08 8,2 C 12,2 C 7,8 C 79 % 1027,0 hPa 0,0 l/m 2,9 km/h (1 Bft) S-SO 153 0 min 0,000 mm 0,0 UV-I 0 W/m 4,8 C 8,2 C 3,2 km/h (1 Bft) 96,43 %
21.10.2018 21:10 8,4 C 12,2 C 7,8 C 78 % 1027,1 hPa 0,0 l/m 2,8 km/h (1 Bft) S-SO 153 0 min 0,000 mm 0,0 UV-I 0 W/m 4,8 C 8,4 C 4,8 km/h (1 Bft) 97,37 %
21.10.2018 21:12 8,5 C 12,2 C 7,8 C 78 % 1027,0 hPa 0,0 l/m 4,3 km/h (1 Bft) S 185 0 min 0,000 mm 0,0 UV-I 0 W/m 4,9 C 8,5 C 6,4 km/h (2 Bft) 96,23 %
21.10.2018 21:14 8,6 C 12,2 C 7,8 C 78 % 1027,1 hPa 0,0 l/m 5,3 km/h (1 Bft) S-SW 201 0 min 0,000 mm 0,0 UV-I 0 W/m 5,0 C 8,6 C 9,7 km/h (2 Bft) 96,00 %
21.10.2018 21:16 8,7 C 12,2 C 7,8 C 78 % 1027,1 hPa 0,0 l/m 2,5 km/h (1 Bft) S-SW 202 0 min 0,000 mm 0,0 UV-I 0 W/m 5,1 C 8,7 C 4,8 km/h (1 Bft) 95,74 %
21.10.2018 21:18 8,8 C 12,2 C 8,3 C 77 % 1027,1 hPa 0,0 l/m 2,4 km/h (1 Bft) S-SW 200 0 min 0,000 mm 0,0 UV-I 0 W/m 5,0 C 8,8 C 4,8 km/h (1 Bft) 95,74 %
21.10.2018 21:20 8,9 C 12,2 C 8,3 C 76 % 1027,1 hPa 0,0 l/m 1,8 km/h (1 Bft) S-SW 200 0 min 0,000 mm 0,0 UV-I 0 W/m 4,9 C 8,9 C 3,2 km/h (1 Bft) 94,74 %
21.10.2018 21:22 9,0 C 12,2 C 8,3 C 76 % 1027,1 hPa 0,0 l/m 3,1 km/h (1 Bft) S-SW 200 0 min 0,000 mm 0,0 UV-I 0 W/m 5,0 C 9,0 C 4,8 km/h (1 Bft) 96,23 %
21.10.2018 21:24 9,0 C 12,2 C 8,3 C 76 % 1027,1 hPa 0,0 l/m 3,1 km/h (1 Bft) S-SW 200 0 min 0,000 mm 0,0 UV-I 0 W/m 5,0 C 9,0 C 4,8 km/h (1 Bft) 92,31 %
21.10.2018 21:26 8,9 C 12,2 C 8,3 C 78 % 1027,1 hPa 0,0 l/m 3,1 km/h (1 Bft) S-SW 200 0 min 0,000 mm 0,0 UV-I 0 W/m 5,3 C 8,9 C 4,8 km/h (1 Bft) 94,23 %
21.10.2018 21:28 8,8 C 12,2 C 8,3 C 77 % 1027,0 hPa 0,0 l/m 2,1 km/h (1 Bft) S-SW 200 0 min 0,000 mm 0,0 UV-I 0 W/m 5,0 C 8,8 C 3,2 km/h (1 Bft) 94,00 %
21.10.2018 21:30 8,9 C 12,2 C 8,3 C 77 % 1027,0 hPa 0,0 l/m 2,2 km/h (1 Bft) S-SW 200 0 min 0,000 mm 0,0 UV-I 0 W/m 5,1 C 8,9 C 4,8 km/h (1 Bft) 95,74 %
21.10.2018 21:32 8,8 C 12,2 C 8,3 C 78 % 1027,0 hPa 0,0 l/m 2,5 km/h (1 Bft) S-SW 200 0 min 0,000 mm 0,0 UV-I 0 W/m 5,2 C 8,8 C 4,8 km/h (1 Bft) 97,92 %
21.10.2018 21:34 8,7 C 12,2 C 8,3 C 79 % 1027,1 hPa 0,0 l/m 1,9 km/h (1 Bft) S-SW 200 0 min 0,000 mm 0,0 UV-I 0 W/m 5,3 C 8,7 C 3,2 km/h (1 Bft) 100,00 %
21.10.2018 21:36 8,6 C 12,2 C 8,3 C 80 % 1027,1 hPa 0,0 l/m 1,9 km/h (1 Bft) S-SW 200 0 min 0,000 mm 0,0 UV-I 0 W/m 5,3 C 8,6 C 4,8 km/h (1 Bft) 100,00 %
21.10.2018 21:38 8,6 C 12,2 C 8,3 C 79 % 1027,1 hPa 0,0 l/m 2,6 km/h (1 Bft) S-SW 200 0 min 0,000 mm 0,0 UV-I 0 W/m 5,2 C 8,6 C 3,2 km/h (1 Bft) 100,00 %
21.10.2018 21:40 8,6 C 12,2 C 8,3 C 78 % 1027,0 hPa 0,0 l/m 1,8 km/h (1 Bft) S-SW 200 0 min 0,000 mm 0,0 UV-I 0 W/m 5,0 C 8,6 C 3,2 km/h (1 Bft) 98,00 %
21.10.2018 21:42 8,6 C 12,2 C 8,3 C 79 % 1027,0 hPa 0,0 l/m 1,3 km/h (1 Bft) S-SW 200 0 min 0,000 mm 0,0 UV-I 0 W/m 5,2 C 8,6 C 3,2 km/h (1 Bft) 100,00 %
21.10.2018 21:44 8,6 C 12,2 C 8,3 C 78 % 1027,0 hPa 0,0 l/m 1,5 km/h (1 Bft) S-SW 200 0 min 0,000 mm 0,0 UV-I 0 W/m 5,0 C 8,6 C 3,2 km/h (1 Bft) 100,00 %
21.10.2018 21:46 8,6 C 12,2 C 8,3 C 78 % 1027,0 hPa 0,0 l/m 0,9 km/h (0 Bft) S-SW 200 0 min 0,000 mm 0,0 UV-I 0 W/m 5,0 C 8,6 C 1,6 km/h (1 Bft) 100,00 %
21.10.2018 21:48 8,7 C 12,2 C 8,3 C 78 % 1027,0 hPa 0,0 l/m 0,4 km/h (0 Bft) S-SW 200 0 min 0,000 mm 0,0 UV-I 0 W/m 5,1 C 8,7 C 1,6 km/h (1 Bft) 100,00 %
21.10.2018 21:50 8,7 C 12,2 C 8,3 C 78 % 1027,0 hPa 0,0 l/m 0,0 km/h (0 Bft) S-SW 200 0 min 0,000 mm 0,0 UV-I 0 W/m 5,1 C 8,7 C 1,6 km/h (1 Bft) 97,14 %
21.10.2018 21:52 8,7 C 12,2 C 7,8 C 78 % 1027,0 hPa 0,0 l/m 0,0 km/h (0 Bft) S-SW 200 0 min 0,000 mm 0,0 UV-I 0 W/m 5,1 C 8,7 C 0,0 km/h (0 Bft) 96,61 %
21.10.2018 21:54 8,7 C 12,2 C 7,8 C 78 % 1027,0 hPa 0,0 l/m 0,0 km/h (0 Bft) S-SW 200 0 min 0,000 mm 0,0 UV-I 0 W/m 5,1 C 8,7 C 1,6 km/h (1 Bft) 100,00 %
21.10.2018 21:56 8,8 C 12,2 C 7,8 C 78 % 1027,0 hPa 0,0 l/m 1,5 km/h (1 Bft) S-SW 200 0 min 0,000 mm 0,0 UV-I 0 W/m 5,2 C 8,8 C 3,2 km/h (1 Bft) 100,00 %
21.10.2018 21:58 8,8 C 12,2 C 7,8 C 78 % 1027,0 hPa 0,0 l/m 1,4 km/h (1 Bft) S-SW 200 0 min 0,000 mm 0,0 UV-I 0 W/m 5,2 C 8,8 C 1,6 km/h (1 Bft) 97,73 %
21.10.2018 22:00 8,8 C 12,2 C 7,8 C 78 % 1027,0 hPa 0,0 l/m 1,9 km/h (1 Bft) S-SW 200 0 min 0,000 mm 0,0 UV-I 0 W/m 5,2 C 8,8 C 3,2 km/h (1 Bft) 100,00 %
21.10.2018 22:02 8,8 C 12,2 C 7,8 C 79 % 1027,0 hPa 0,0 l/m 1,9 km/h (1 Bft) S-SW 200 0 min 0,000 mm 0,0 UV-I 0 W/m 5,4 C 8,8 C 3,2 km/h (1 Bft) 100,00 %
21.10.2018 22:04 8,7 C 12,2 C 7,8 C 79 % 1027,0 hPa 0,0 l/m 1,4 km/h (1 Bft) S-SW 200 0 min 0,000 mm 0,0 UV-I 0 W/m 5,3 C 8,7 C 1,6 km/h (1 Bft) 100,00 %
21.10.2018 22:06 8,7 C 12,2 C 7,8 C 79 % 1026,9 hPa 0,0 l/m 1,3 km/h (1 Bft) S-SW 200 0 min 0,000 mm 0,0 UV-I 0 W/m 5,3 C 8,7 C 1,6 km/h (1 Bft) 98,51 %
21.10.2018 22:08 8,6 C 12,2 C 7,8 C 79 % 1026,9 hPa 0,0 l/m 1,4 km/h (1 Bft) S-SW 200 0 min 0,000 mm 0,0 UV-I 0 W/m 5,2 C 8,6 C 1,6 km/h (1 Bft) 97,87 %
21.10.2018 22:10 8,6 C 12,2 C 7,8 C 79 % 1026,9 hPa 0,0 l/m 1,3 km/h (1 Bft) S-SW 200 0 min 0,000 mm 0,0 UV-I 0 W/m 5,2 C 8,6 C 3,2 km/h (1 Bft) 94,87 %
21.10.2018 22:12 8,5 C 11,7 C 7,8 C 79 % 1026,9 hPa 0,0 l/m 1,8 km/h (1 Bft) S-SW 200 0 min 0,000 mm 0,0 UV-I 0 W/m 5,1 C 8,5 C 3,2 km/h (1 Bft) 97,87 %
21.10.2018 22:14 8,5 C 12,2 C 7,8 C 79 % 1026,9 hPa 0,0 l/m 2,5 km/h (1 Bft) S-SW 200 0 min 0,000 mm 0,0 UV-I 0 W/m 5,1 C 8,5 C 3,2 km/h (1 Bft) 97,87 %
21.10.2018 22:16 8,5 C 12,2 C 7,8 C 79 % 1027,0 hPa 0,0 l/m 3,4 km/h (1 Bft) S-SW 200 0 min 0,000 mm 0,0 UV-I 0 W/m 5,1 C 8,5 C 4,8 km/h (1 Bft) 97,87 %
21.10.2018 22:18 8,6 C 12,2 C 7,8 C 79 % 1027,0 hPa 0,0 l/m 2,5 km/h (1 Bft) S-SW 200 0 min 0,000 mm 0,0 UV-I 0 W/m 5,2 C 8,6 C 3,2 km/h (1 Bft) 97,87 %
21.10.2018 22:20 8,6 C 11,7 C 7,8 C 79 % 1027,0 hPa 0,0 l/m 2,6 km/h (1 Bft) S-SW 200 0 min 0,000 mm 0,0 UV-I 0 W/m 5,2 C 8,6 C 3,2 km/h (1 Bft) 96,00 %
21.10.2018 22:22 8,6 C 11,7 C 7,8 C 79 % 1027,0 hPa 0,0 l/m 2,5 km/h (1 Bft) S-SW 200 0 min 0,000 mm 0,0 UV-I 0 W/m 5,2 C 8,6 C 3,2 km/h (1 Bft) 98,00 %
21.10.2018 22:24 8,6 C 11,7 C 7,8 C 79 % 1027,0 hPa 0,0 l/m 2,7 km/h (1 Bft) S-SW 200 0 min 0,000 mm 0,0 UV-I 0 W/m 5,2 C 8,6 C 4,8 km/h (1 Bft) 96,55 %
21.10.2018 22:26 8,6 C 11,7 C 8,3 C 80 % 1027,0 hPa 0,0 l/m 2,1 km/h (1 Bft) S-SW 200 0 min 0,000 mm 0,0 UV-I 0 W/m 5,3 C 8,6 C 3,2 km/h (1 Bft) 98,46 %
21.10.2018 22:28 8,6 C 11,7 C 8,3 C 80 % 1027,0 hPa 0,0 l/m 1,8 km/h (1 Bft) S-SW 200 0 min 0,000 mm 0,0 UV-I 0 W/m 5,3 C 8,6 C 3,2 km/h (1 Bft) 95,74 %
21.10.2018 22:30 8,5 C 11,7 C 8,3 C 82 % 1027,0 hPa 0,0 l/m 2,1 km/h (1 Bft) S-SW 200 0 min 0,000 mm 0,0 UV-I 0 W/m 5,6 C 8,5 C 3,2 km/h (1 Bft) 100,00 %
21.10.2018 22:32 8,4 C 11,7 C 7,8 C 82 % 1027,0 hPa 0,0 l/m 1,2 km/h (1 Bft) S-SW 200 0 min 0,000 mm 0,0 UV-I 0 W/m 5,5 C 8,4 C 1,6 km/h (1 Bft) 96,00 %
21.10.2018 22:34 8,3 C 11,7 C 7,8 C 82 % 1027,0 hPa 0,0 l/m 1,2 km/h (1 Bft) S-SW 200 0 min 0,000 mm 0,0 UV-I 0 W/m 5,4 C 8,3 C 1,6 km/h (1 Bft) 91,49 %
21.10.2018 22:36 8,3 C 11,7 C 7,8 C 82 % 1027,0 hPa 0,0 l/m 1,3 km/h (1 Bft) S-SW 200 0 min 0,000 mm 0,0 UV-I 0 W/m 5,4 C 8,3 C 3,2 km/h (1 Bft) 95,74 %
21.10.2018 22:39 8,4 C 11,7 C 7,8 C 81 % 1027,0 hPa 0,0 l/m 2,1 km/h (1 Bft) S-SW 200 0 min 0,000 mm 0,0 UV-I 0 W/m 5,3 C 8,4 C 3,2 km/h (1 Bft) 96,25 %
21.10.2018 22:40 8,4 C 11,7 C 7,8 C 81 % 1027,0 hPa 0,0 l/m 2,1 km/h (1 Bft) S-SW 200 0 min 0,000 mm 0,0 UV-I 0 W/m 5,3 C 8,4 C 3,2 km/h (1 Bft) 85,71 %
21.10.2018 22:42 8,5 C 11,7 C 7,8 C 80 % 1027,0 hPa 0,0 l/m 2,1 km/h (1 Bft) S-SW 200 0 min 0,000 mm 0,0 UV-I 0 W/m 5,3 C 8,5 C 3,2 km/h (1 Bft) 96,00 %
21.10.2018 22:44 8,5 C 11,7 C 7,8 C 80 % 1027,0 hPa 0,0 l/m 1,9 km/h (1 Bft) S-SW 200 0 min 0,000 mm 0,0 UV-I 0 W/m 5,3 C 8,5 C 4,8 km/h (1 Bft) 96,23 %
21.10.2018 22:46 8,5 C 11,7 C 7,8 C 80 % 1027,0 hPa 0,0 l/m 2,3 km/h (1 Bft) S-SW 200 0 min 0,000 mm 0,0 UV-I 0 W/m 5,3 C 8,5 C 4,8 km/h (1 Bft) 94,87 %
21.10.2018 22:48 8,6 C 11,7 C 7,8 C 80 % 1027,0 hPa 0,0 l/m 2,4 km/h (1 Bft) S-SW 200 0 min 0,000 mm 0,0 UV-I 0 W/m 5,3 C 8,6 C 3,2 km/h (1 Bft) 96,00 %
21.10.2018 22:50 8,6 C 11,7 C 7,8 C 80 % 1027,0 hPa 0,0 l/m 1,9 km/h (1 Bft) S-SW 200 0 min 0,000 mm 0,0 UV-I 0 W/m 5,3 C 8,6 C 3,2 km/h (1 Bft) 96,00 %
21.10.2018 22:52 8,6 C 11,7 C 7,8 C 81 % 1027,0 hPa 0,0 l/m 1,9 km/h (1 Bft) S-SW 200 0 min 0,000 mm 0,0 UV-I 0 W/m 5,5 C 8,6 C 3,2 km/h (1 Bft) 97,56 %
21.10.2018 22:54 8,6 C 11,7 C 7,8 C 81 % 1027,0 hPa 0,0 l/m 2,0 km/h (1 Bft) S-SW 200 0 min 0,000 mm 0,0 UV-I 0 W/m 5,5 C 8,6 C 3,2 km/h (1 Bft) 93,62 %
21.10.2018 22:56 8,6 C 11,7 C 8,3 C 81 % 1027,0 hPa 0,0 l/m 3,3 km/h (1 Bft) S-SW 200 0 min 0,000 mm 0,0 UV-I 0 W/m 5,5 C 8,6 C 4,8 km/h (1 Bft) 98,00 %
21.10.2018 22:58 8,6 C 11,7 C 8,3 C 81 % 1026,9 hPa 0,0 l/m 3,4 km/h (1 Bft) S-SW 200 0 min 0,000 mm 0,0 UV-I 0 W/m 5,5 C 8,6 C 4,8 km/h (1 Bft) 95,74 %
21.10.2018 23:00 8,6 C 11,7 C 8,3 C 81 % 1026,9 hPa 0,0 l/m 2,9 km/h (1 Bft) S-SW 200 0 min 0,000 mm 0,0 UV-I 0 W/m 5,5 C 8,6 C 4,8 km/h (1 Bft) 96,00 %
21.10.2018 23:02 8,5 C 11,7 C 8,3 C 82 % 1026,9 hPa 0,0 l/m 2,5 km/h (1 Bft) S-SW 200 0 min 0,000 mm 0,0 UV-I 0 W/m 5,6 C 8,5 C 3,2 km/h (1 Bft) 95,74 %
21.10.2018 23:04 8,4 C 11,7 C 8,3 C 82 % 1026,9 hPa 0,0 l/m 1,5 km/h (1 Bft) S-SW 200 0 min 0,000 mm 0,0 UV-I 0 W/m 5,5 C 8,4 C 3,2 km/h (1 Bft) 96,15 %
21.10.2018 23:06 8,3 C 11,7 C 7,8 C 82 % 1026,9 hPa 0,0 l/m 1,8 km/h (1 Bft) S-SW 200 0 min 0,000 mm 0,0 UV-I 0 W/m 5,4 C 8,3 C 3,2 km/h (1 Bft) 95,38 %
21.10.2018 23:08 8,3 C 11,7 C 7,8 C 82 % 1026,9 hPa 0,0 l/m 1,6 km/h (1 Bft) S-SW 200 0 min 0,000 mm 0,0 UV-I 0 W/m 5,4 C 8,3 C 3,2 km/h (1 Bft) 95,74 %
21.10.2018 23:10 8,3 C 11,7 C 7,8 C 83 % 1026,9 hPa 0,0 l/m 0,0 km/h (0 Bft) S-SW 200 0 min 0,000 mm 0,0 UV-I 0 W/m 5,6 C 8,3 C 0,0 km/h (0 Bft) 97,37 %
21.10.2018 23:12 8,3 C 11,7 C 7,8 C 83 % 1026,9 hPa 0,0 l/m 0,0 km/h (0 Bft) S-SW 200 0 min 0,000 mm 0,0 UV-I 0 W/m 5,6 C 8,3 C 0,0 km/h (0 Bft) 96,00 %
21.10.2018 23:14 8,3 C 11,7 C 7,8 C 82 % 1026,9 hPa 0,0 l/m 0,0 km/h (0 Bft) S-SW 200 0 min 0,000 mm 0,0 UV-I 0 W/m 5,4 C 8,3 C 0,0 km/h (0 Bft) 95,74 %
21.10.2018 23:16 8,3 C 11,7 C 7,8 C 82 % 1026,9 hPa 0,0 l/m 0,3 km/h (0 Bft) S-SW 200 0 min 0,000 mm 0,0 UV-I 0 W/m 5,4 C 8,3 C 1,6 km/h (1 Bft) 96,00 %
21.10.2018 23:18 8,3 C 11,7 C 7,8 C 83 % 1026,9 hPa 0,0 l/m 0,4 km/h (0 Bft) S-SW 200 0 min 0,000 mm 0,0 UV-I 0 W/m 5,6 C 8,3 C 1,6 km/h (1 Bft) 97,62 %
21.10.2018 23:20 8,3 C 11,7 C 7,8 C 83 % 1026,9 hPa 0,0 l/m 0,0 km/h (0 Bft) S-SW 200 0 min 0,000 mm 0,0 UV-I 0 W/m 5,6 C 8,3 C 0,0 km/h (0 Bft) 97,96 %
21.10.2018 23:22 8,2 C 11,7 C 7,8 C 84 % 1026,9 hPa 0,0 l/m 0,0 km/h (0 Bft) S-SW 200 0 min 0,000 mm 0,0 UV-I 0 W/m 5,7 C 8,2 C 0,0 km/h (0 Bft) 97,92 %
21.10.2018 23:24 8,2 C 11,7 C 7,8 C 84 % 1026,9 hPa 0,0 l/m 0,3 km/h (0 Bft) S-SW 200 0 min 0,000 mm 0,0 UV-I 0 W/m 5,7 C 8,2 C 1,6 km/h (1 Bft) 97,87 %
21.10.2018 23:26 8,2 C 11,7 C 7,8 C 83 % 1026,9 hPa 0,0 l/m 0,7 km/h (0 Bft) S-SW 200 0 min 0,000 mm 0,0 UV-I 0 W/m 5,5 C 8,2 C 1,6 km/h (1 Bft) 97,87 %
21.10.2018 23:28 8,3 C 11,7 C 7,8 C 83 % 1026,9 hPa 0,0 l/m 0,2 km/h (0 Bft) S-SW 200 0 min 0,000 mm 0,0 UV-I 0 W/m 5,6 C 8,3 C 1,6 km/h (1 Bft) 95,74 %
21.10.2018 23:30 8,3 C 11,7 C 7,8 C 82 % 1026,9 hPa 0,0 l/m 0,0 km/h (0 Bft) S-SW 200 0 min 0,000 mm 0,0 UV-I 0 W/m 5,4 C 8,3 C 0,0 km/h (0 Bft) 97,87 %
21.10.2018 23:32 8,3 C 11,7 C 7,8 C 83 % 1026,9 hPa 0,0 l/m 0,0 km/h (0 Bft) S-SW 200 0 min 0,000 mm 0,0 UV-I 0 W/m 5,6 C 8,3 C 0,0 km/h (0 Bft) 98,11 %
21.10.2018 23:34 8,2 C 11,7 C 7,2 C 83 % 1026,9 hPa 0,0 l/m 0,0 km/h (0 Bft) S-SW 200 0 min 0,000 mm 0,0 UV-I 0 W/m 5,5 C 8,2 C 0,0 km/h (0 Bft) 94,74 %
21.10.2018 23:36 8,2 C 11,7 C 7,2 C 83 % 1026,9 hPa 0,0 l/m 0,0 km/h (0 Bft) S-SW 200 0 min 0,000 mm 0,0 UV-I 0 W/m 5,5 C 8,2 C 0,0 km/h (0 Bft) 98,00 %
21.10.2018 23:39 8,3 C 11,7 C 7,2 C 83 % 1026,9 hPa 0,0 l/m 0,0 km/h (0 Bft) S-SW 200 0 min 0,000 mm 0,0 UV-I 0 W/m 5,6 C 8,3 C 0,0 km/h (0 Bft) 100,00 %
21.10.2018 23:40 8,3 C 11,7 C 7,2 C 83 % 1026,9 hPa 0,0 l/m 0,0 km/h (0 Bft) S-SW 200 0 min 0,000 mm 0,0 UV-I 0 W/m 5,6 C 8,3 C 0,0 km/h (0 Bft) 100,00 %
21.10.2018 23:42 8,3 C 11,7 C 7,2 C 82 % 1026,9 hPa 0,0 l/m 0,0 km/h (0 Bft) S-SW 200 0 min 0,000 mm 0,0 UV-I 0 W/m 5,4 C 8,3 C 0,0 km/h (0 Bft) 98,00 %
21.10.2018 23:44 8,3 C 11,7 C 7,2 C 83 % 1026,9 hPa 0,0 l/m 0,0 km/h (0 Bft) S-SW 200 0 min 0,000 mm 0,0 UV-I 0 W/m 5,6 C 8,3 C 0,0 km/h (0 Bft) 97,37 %
21.10.2018 23:46 8,3 C 11,7 C 7,2 C 83 % 1026,9 hPa 0,0 l/m 0,3 km/h (0 Bft) S-SW 200 0 min 0,000 mm 0,0 UV-I 0 W/m 5,6 C 8,3 C 1,6 km/h (1 Bft) 100,00 %
21.10.2018 23:48 8,3 C 11,7 C 7,8 C 84 % 1026,9 hPa 0,0 l/m 1,0 km/h (0 Bft) S-SW 200 0 min 0,000 mm 0,0 UV-I 0 W/m 5,8 C 8,3 C 1,6 km/h (1 Bft) 97,87 %
21.10.2018 23:50 8,2 C 11,7 C 7,8 C 84 % 1026,9 hPa 0,0 l/m 0,5 km/h (0 Bft) S-SW 200 0 min 0,000 mm 0,0 UV-I 0 W/m 5,7 C 8,2 C 1,6 km/h (1 Bft) 98,11 %
21.10.2018 23:52 8,2 C 11,7 C 7,8 C 85 % 1026,9 hPa 0,0 l/m 0,1 km/h (0 Bft) S-SW 200 0 min 0,000 mm 0,0 UV-I 0 W/m 5,8 C 8,2 C 1,6 km/h (1 Bft) 100,00 %
21.10.2018 23:54 8,1 C 11,7 C 7,8 C 85 % 1026,9 hPa 0,0 l/m 0,0 km/h (0 Bft) S-SW 200 0 min 0,000 mm 0,0 UV-I 0 W/m 5,7 C 8,1 C 0,0 km/h (0 Bft) 95,74 %
21.10.2018 23:56 8,1 C 11,7 C 7,2 C 86 % 1026,8 hPa 0,0 l/m 0,0 km/h (0 Bft) S-SW 200 0 min 0,000 mm 0,0 UV-I 0 W/m 5,9 C 8,1 C 0,0 km/h (0 Bft) 98,00 %
21.10.2018 23:59 8,1 C 11,7 C 7,2 C 85 % 1026,8 hPa 0,0 l/m 0,0 km/h (0 Bft) S-SW 200 0 min 0,000 mm 0,0 UV-I 0 W/m 5,7 C 8,1 C 0,0 km/h (0 Bft) 98,70 %
_ Min-Zeit 20:34 02:12 20:10 16:18 03:50 - 00:04 - - - - - - 17:06 03:52 00:08 22:40
Minimum _ 7,3 C 11,7 C 4,4 C 56 % 1026,0 hPa - 0,0 km/h (0 Bft) - - - - - - 3,6 C 7,3 C 0,0 km/h (0 Bft) 85,71 %
_ Max-Zeit 12:22 00:00 12:16 01:26 10:54 00:00 12:24 - - 16:09 13:00 12:18 12:12 01:08 12:44 12:20 00:00
Maximum _ 12,7 C 12,2 C 25,6 C 89 % 1027,8 hPa 0,0 l/m 10,7 km/h
N (2 Bft)
- - 3 min 0,254 mm 1,7 UV-I 674 W/m 7,9 C 12,5 C 16,1 km/h
N-NO (3 Bft)
100,00 %
Durchschnitt _ 9,7 C 11,9 C 10,3 C 77 % 1026,8 hPa #0,0 l/m 2,5 km/h (1 Bft) NO - #2:45 h #1,016 mm 0,9 UV-I 169 W/m 5,6 C 9,6 C 4,1 km/h (1 Bft) 97,47 %